[[{"header":{"parameterUnit":"m.s-1","parameterCategory":1,"la1":30.6,"la2":29.2853,"lo1":-89.7004,"lo2":-87.6739,"dy":0.0162,"dx":0.0183,"nx":112,"ny":82,"refTime":"2026-03-28T00:00:00:Z","depth":0,"parameterNumber":2,"parameterNumberName":"U-component_of_WINDS"},"data":[0.0,0.0,0.0,0.0,0.0,0.0,0.0,0.0,0.0,0.0,0.0,0.0,0.0,0.0,0.0,0.0,0.0,0.0,0.0,0.0,0.0,0.0,0.0,0.0,0.0,0.0,0.0,0.0,0.0,0.0,0.0,0.0,0.0,0.0,0.0,0.0,0.0,0.0,0.0,0.0,0.0,0.0,0.0,0.0,0.0,0.0,0.0,0.0,0.0,0.0,0.0,0.0,0.0,0.0,0.0,0.0,0.0,0.0,0.0,0.0,0.0,0.0,0.0,0.0,0.0,0.0,0.0,0.0,0.0,0.0,0.0,0.0,0.0,0.0,0.0,0.0,0.0,0.0,0.0,0.0,0.0,0.0,0.0,0.0,0.0,0.0,0.0,0.0,0.0,0.0,-1.3223,-1.4387,-1.436,-1.3628,-1.2025,-1.1136,-1.0171,-0.9018,0.0,0.0,0.0,0.0,0.0,0.0,0.0,0.0,0.0,0.0,0.0,0.0,0.0,0.0,0.0,0.0,0.0,0.0,0.0,0.0,0.0,0.0,0.0,0.0,0.0,0.0,0.0,0.0,0.0,0.0,0.0,0.0,0.0,0.0,0.0,0.0,0.0,0.0,0.0,0.0,0.0,0.0,0.0,0.0,0.0,0.0,0.0,0.0,0.0,0.0,0.0,0.0,0.0,0.0,0.0,0.0,0.0,0.0,0.0,0.0,0.0,0.0,0.0,0.0,0.0,0.0,0.0,0.0,0.0,0.0,0.0,0.0,0.0,0.0,0.0,0.0,0.0,0.0,0.0,0.0,0.0,0.0,0.0,0.0,0.0,0.0,0.0,0.0,0.0,0.0,0.0,0.0,0.0,0.0,0.0,0.0,0.0,0.0,0.0,0.0,0.0,0.0,0.0,0.0,-1.3334,-1.6024,-1.5538,-1.4805,-1.4253,-1.219,-1.0557,-0.962,0.0,0.0,0.0,0.0,0.0,0.0,0.0,0.0,0.0,0.0,0.0,0.0,0.0,0.0,0.0,0.0,0.0,0.0,0.0,0.0,0.0,0.0,0.0,0.0,0.0,0.0,0.0,0.0,0.0,0.0,0.0,0.0,0.0,0.0,0.0,0.0,0.0,0.0,0.0,0.0,0.0,0.0,0.0,0.0,0.0,0.0,0.0,0.0,0.0,0.0,0.0,0.0,0.0,0.0,0.0,0.0,0.0,0.0,0.0,0.0,0.0,0.0,0.0,0.0,0.0,0.0,0.0,0.0,0.0,0.0,0.0,0.0,0.0,0.0,0.0,0.0,0.0,0.0,0.0,0.0,0.0,0.0,0.0,0.0,0.0,0.0,0.0,0.0,0.0,0.0,0.0,0.0,0.0,0.0,0.0,0.0,0.0,0.0,0.0,0.0,0.0,0.0,0.0,-1.3359,-1.4107,-1.538,-1.5308,-1.4653,-1.3309,-1.184,-1.0637,-0.9754,-0.8308,0.0,0.0,0.0,0.0,0.0,0.0,0.0,0.0,0.0,0.0,0.0,0.0,0.0,0.0,0.0,0.0,0.0,0.0,0.0,0.0,0.0,0.0,0.0,0.0,0.0,0.0,0.0,0.0,0.0,0.0,0.0,0.0,0.0,0.0,0.0,0.0,0.0,0.0,0.0,0.0,0.0,0.0,0.0,0.0,0.0,0.0,0.0,0.0,0.0,0.0,0.0,0.0,0.0,0.0,0.0,0.0,0.0,0.0,0.0,0.0,0.0,0.0,0.0,0.0,0.0,0.0,0.0,0.0,0.0,0.0,0.0,0.0,0.0,0.0,0.0,0.0,0.0,0.0,0.0,0.0,0.0,0.0,0.0,0.0,0.0,0.0,0.0,0.0,0.0,0.0,0.0,0.0,0.0,0.0,0.0,0.0,0.0,0.0,0.0,0.0,0.0,0.0,-1.5151,-1.5313,-1.5036,-1.5196,-1.4516,-1.2503,-1.1506,-1.0691,-0.9955,-0.8389,0.0,0.0,0.0,0.0,0.0,0.0,0.0,0.0,0.0,0.0,0.0,0.0,0.0,0.0,0.0,0.0,0.0,0.0,0.0,0.0,0.0,0.0,0.0,0.0,0.0,0.0,0.0,0.0,0.0,0.0,0.0,0.0,0.0,0.0,0.0,0.0,0.0,0.0,0.0,0.0,0.0,0.0,0.0,0.0,0.0,0.0,0.0,0.0,0.0,0.0,0.0,0.0,0.0,0.0,0.0,0.0,0.0,0.0,0.0,0.0,0.0,0.0,0.0,0.0,0.0,0.0,0.0,0.0,0.0,0.0,0.0,0.0,0.0,0.0,0.0,0.0,0.0,0.0,0.0,0.0,0.0,0.0,0.0,0.0,0.0,0.0,0.0,0.0,0.0,0.0,0.0,0.0,0.0,0.0,0.0,0.0,0.0,0.0,0.0,0.0,0.0,0.0,-1.6207,-1.702,-1.6504,-1.6046,-1.5156,-1.3702,-1.1991,-1.0865,-1.0562,-0.8629,0.0,0.0,0.0,0.0,0.0,0.0,0.0,0.0,0.0,0.0,0.0,0.0,0.0,0.0,0.0,0.0,0.0,0.0,0.0,0.0,0.0,0.0,0.0,0.0,0.0,0.0,0.0,0.0,0.0,0.0,0.0,0.0,0.0,0.0,0.0,0.0,0.0,0.0,0.0,0.0,0.0,0.0,0.0,0.0,0.0,0.0,0.0,0.0,0.0,0.0,0.0,0.0,0.0,0.0,0.0,0.0,0.0,0.0,0.0,0.0,0.0,0.0,0.0,0.0,0.0,0.0,0.0,0.0,0.0,0.0,0.0,0.0,0.0,0.0,0.0,0.0,0.0,0.0,0.0,0.0,0.0,0.0,0.0,0.0,0.0,0.0,0.0,0.0,0.0,0.0,0.0,0.0,0.0,0.0,0.0,0.0,0.0,0.0,0.0,0.0,0.0,0.0,-1.6215,-1.6809,-1.6375,-1.6025,-1.5064,-1.3285,-1.1982,-1.1062,-1.0642,0.0,0.0,0.0,0.0,0.0,0.0,0.0,0.0,0.0,0.0,0.0,0.0,0.0,0.0,0.0,0.0,0.0,0.0,0.0,0.0,0.0,0.0,0.0,0.0,0.0,0.0,0.0,0.0,0.0,0.0,0.0,0.0,0.0,0.0,0.0,0.0,0.0,0.0,0.0,0.0,0.0,0.0,0.0,0.0,0.0,0.0,0.0,0.0,0.0,0.0,0.0,0.0,0.0,0.0,0.0,0.0,0.0,0.0,0.0,0.0,0.0,0.0,0.0,0.0,0.0,0.0,0.0,0.0,0.0,0.0,0.0,0.0,0.0,0.0,0.0,0.0,0.0,0.0,0.0,0.0,0.0,0.0,0.0,0.0,0.0,0.0,0.0,0.0,0.0,0.0,0.0,0.0,0.0,0.0,0.0,0.0,0.0,0.0,0.0,0.0,0.0,0.0,-1.5352,-1.6605,-1.7169,-1.6769,-1.6394,-1.5386,-1.3469,-1.2145,-1.1142,-1.0477,0.0,0.0,0.0,0.0,0.0,0.0,0.0,0.0,0.0,0.0,0.0,0.0,0.0,0.0,0.0,0.0,0.0,0.0,0.0,0.0,0.0,0.0,0.0,0.0,0.0,0.0,0.0,0.0,0.0,0.0,0.0,0.0,0.0,0.0,0.0,0.0,0.0,0.0,0.0,0.0,0.0,0.0,0.0,0.0,0.0,0.0,0.0,0.0,0.0,0.0,0.0,0.0,0.0,0.0,0.0,0.0,0.0,0.0,0.0,0.0,0.0,0.0,0.0,0.0,0.0,0.0,0.0,0.0,0.0,0.0,0.0,0.0,0.0,0.0,0.0,0.0,0.0,0.0,0.0,0.0,0.0,0.0,0.0,0.0,0.0,0.0,0.0,0.0,0.0,0.0,0.0,0.0,0.0,0.0,0.0,0.0,0.0,0.0,0.0,0.0,0.0,0.0,-1.587,-1.7578,-1.8434,-1.7953,-1.7327,-1.6225,-1.4554,-1.2572,-1.1062,0.0,0.0,0.0,0.0,0.0,0.0,0.0,0.0,0.0,0.0,0.0,0.0,0.0,0.0,0.0,0.0,0.0,0.0,0.0,0.0,0.0,0.0,0.0,0.0,0.0,0.0,0.0,0.0,0.0,0.0,0.0,0.0,0.0,0.0,0.0,0.0,0.0,0.0,0.0,0.0,0.0,0.0,0.0,0.0,0.0,0.0,0.0,0.0,0.0,0.0,0.0,0.0,0.0,0.0,0.0,0.0,0.0,0.0,0.0,0.0,0.0,0.0,0.0,0.0,0.0,0.0,0.0,0.0,0.0,0.0,0.0,0.0,0.0,0.0,0.0,0.0,0.0,0.0,0.0,0.0,0.0,0.0,0.0,0.0,0.0,0.0,0.0,0.0,0.0,0.0,0.0,0.0,0.0,0.0,0.0,0.0,0.0,0.0,0.0,0.0,0.0,0.0,0.0,-1.6293,-1.8027,-1.8989,-1.8717,-1.8297,-1.7113,-1.4874,-1.3588,-1.2188,-1.0566,0.0,0.0,0.0,0.0,0.0,0.0,0.0,0.0,0.0,0.0,0.0,0.0,0.0,0.0,0.0,0.0,0.0,0.0,0.0,0.0,0.0,0.0,0.0,0.0,0.0,0.0,0.0,0.0,0.0,0.0,0.0,0.0,0.0,0.0,0.0,0.0,0.0,0.0,0.0,0.0,0.0,0.0,0.0,0.0,0.0,0.0,0.0,0.0,0.0,0.0,0.0,0.0,0.0,0.0,0.0,0.0,0.0,0.0,0.0,0.0,0.0,0.0,0.0,0.0,0.0,0.0,0.0,0.0,0.0,0.0,0.0,0.0,0.0,0.0,0.0,0.0,0.0,0.0,0.0,0.0,0.0,0.0,0.0,0.0,0.0,0.0,0.0,0.0,0.0,0.0,0.0,0.0,0.0,0.0,0.0,0.0,0.0,0.0,0.0,0.0,0.0,0.0,-1.6742,-1.8633,-1.9908,-2.0139,-1.9442,-1.8101,-1.6039,-1.463,-1.2934,-1.0746,0.0,0.0,0.0,0.0,0.0,0.0,0.0,0.0,0.0,0.0,0.0,0.0,0.0,0.0,0.0,0.0,0.0,0.0,0.0,0.0,0.0,0.0,0.0,0.0,0.0,0.0,0.0,0.0,0.0,0.0,0.0,0.0,0.0,0.0,0.0,0.0,0.0,0.0,0.0,0.0,0.0,0.0,0.0,0.0,0.0,0.0,0.0,0.0,0.0,0.0,0.0,0.0,0.0,0.0,0.0,0.0,0.0,0.0,0.0,0.0,0.0,0.0,0.0,0.0,0.0,0.0,0.0,0.0,0.0,0.0,0.0,0.0,0.0,0.0,0.0,0.0,0.0,0.0,0.0,0.0,0.0,0.0,0.0,0.0,0.0,0.0,0.0,0.0,0.0,0.0,0.0,0.0,0.0,0.0,0.0,0.0,0.0,0.0,0.0,0.0,0.0,0.0,-1.7184,-1.9256,-2.0918,-2.1817,-2.0647,-1.9242,-1.7772,-1.5893,-1.3654,-1.1001,0.0,0.0,0.0,0.0,0.0,0.0,0.0,0.0,0.0,0.0,0.0,0.0,0.0,0.0,0.0,0.0,0.0,0.0,0.0,0.0,0.0,0.0,0.0,0.0,0.0,0.0,0.0,0.0,0.0,0.0,0.0,0.0,0.0,0.0,0.0,0.0,0.0,0.0,0.0,0.0,0.0,0.0,0.0,0.0,0.0,0.0,0.0,0.0,0.0,0.0,0.0,0.0,0.0,0.0,0.0,0.0,0.0,0.0,0.0,0.0,-1.8691,-1.7227,0.0,0.0,0.0,0.0,0.0,0.0,0.0,0.0,0.0,0.0,0.0,0.0,0.0,0.0,0.0,0.0,0.0,0.0,0.0,0.0,0.0,0.0,0.0,0.0,0.0,0.0,0.0,0.0,0.0,0.0,0.0,0.0,0.0,0.0,0.0,0.0,0.0,0.0,0.0,0.0,-1.7184,-1.9256,-2.0918,-2.1817,-2.1611,-2.0715,-1.8971,-1.8202,-1.6279,-1.2778,-1.1435,0.0,0.0,0.0,0.0,0.0,0.0,0.0,0.0,0.0,0.0,0.0,0.0,0.0,0.0,0.0,0.0,0.0,0.0,0.0,0.0,0.0,0.0,0.0,0.0,0.0,0.0,0.0,0.0,0.0,0.0,0.0,0.0,0.0,0.0,0.0,0.0,0.0,0.0,0.0,0.0,0.0,0.0,0.0,0.0,0.0,0.0,0.0,0.0,0.0,0.0,0.0,0.0,0.0,0.0,0.0,0.0,0.0,0.0,0.0,-2.1894,-2.0488,0.0,0.0,0.0,0.0,0.0,0.0,0.0,0.0,0.0,0.0,0.0,0.0,0.0,0.0,0.0,0.0,0.0,0.0,0.0,0.0,0.0,0.0,0.0,0.0,0.0,0.0,0.0,0.0,0.0,0.0,0.0,0.0,0.0,0.0,0.0,0.0,0.0,0.0,0.0,0.0,-1.7773,-1.9882,-2.1544,-2.2402,-2.2305,-2.1598,-2.0131,-1.9361,-1.7753,-1.4991,-1.3012,0.0,0.0,0.0,0.0,0.0,0.0,0.0,0.0,0.0,0.0,0.0,0.0,0.0,0.0,0.0,0.0,0.0,0.0,0.0,0.0,0.0,0.0,0.0,0.0,0.0,0.0,0.0,0.0,0.0,0.0,0.0,0.0,0.0,0.0,0.0,0.0,0.0,0.0,0.0,0.0,0.0,0.0,0.0,0.0,0.0,0.0,0.0,0.0,0.0,0.0,0.0,0.0,0.0,-2.6738,-2.7207,-2.685,-2.7226,-2.7637,-2.7891,-2.5708,-2.4613,-2.4219,-2.2557,0.0,0.0,0.0,0.0,0.0,0.0,0.0,0.0,0.0,0.0,0.0,0.0,0.0,0.0,0.0,0.0,0.0,0.0,0.0,0.0,0.0,0.0,0.0,0.0,-2.0781,-2.0351,-1.7768,0.0,0.0,0.0,0.0,0.0,0.0,0.0,0.0,0.0,0.0,0.0,-1.8518,-2.0644,-2.2285,-2.3023,-2.281,-2.2215,-2.1262,-2.0317,-1.9005,-1.7156,-1.4874,-1.3076,0.0,0.0,0.0,0.0,0.0,0.0,0.0,0.0,0.0,0.0,0.0,0.0,0.0,0.0,0.0,0.0,0.0,0.0,0.0,0.0,0.0,0.0,0.0,0.0,0.0,0.0,0.0,0.0,0.0,0.0,0.0,0.0,-1.8691,-1.8926,0.0,0.0,0.0,0.0,0.0,0.0,0.0,0.0,0.0,0.0,0.0,0.0,0.0,-2.5406,-2.5879,-2.7897,-2.8914,-2.8933,-3.0634,-3.1397,-3.1358,-3.1416,-3.167,-3.1992,-3.1319,0.0,-2.6459,-2.5141,0.0,0.0,0.0,0.0,0.0,0.0,0.0,0.0,0.0,0.0,0.0,0.0,0.0,0.0,0.0,0.0,0.0,0.0,0.0,0.0,0.0,0.0,-2.3069,-2.2814,-2.2795,-2.2638,0.0,-1.963,-1.7422,-1.6026,-1.5469,0.0,0.0,0.0,0.0,0.0,0.0,0.0,-1.9023,-2.1094,-2.2596,-2.3042,-2.3042,-2.2823,-2.2347,-2.2153,-2.1032,-1.8591,-1.7897,-1.6492,-1.4174,-1.2281,0.0,0.0,0.0,0.0,0.0,0.0,0.0,0.0,0.0,0.0,0.0,0.0,0.0,0.0,0.0,0.0,0.0,0.0,0.0,0.0,0.0,0.0,0.0,0.0,0.0,0.0,0.0,0.0,0.0,-1.9043,-2.0918,-2.043,-2.1387,-2.1406,0.0,0.0,0.0,0.0,0.0,0.0,0.0,0.0,0.0,-2.7018,-2.8086,-2.9062,-2.998,-3.1416,-3.2003,-3.1758,-3.3008,-3.334,-3.2871,-3.3156,-3.3371,-3.3528,-3.3066,-3.2148,-3.0781,-2.8262,-2.6348,-2.4848,0.0,0.0,0.0,0.0,-2.25,-2.2676,-2.4359,-2.4473,-2.3864,-2.3767,0.0,0.0,0.0,0.0,0.0,0.0,0.0,0.0,0.0,0.0,-2.4672,-2.5195,-2.5332,-2.5137,-2.4449,-2.3086,-2.1329,0.0,-1.8455,-1.7692,-1.5649,0.0,0.0,0.0,0.0,-1.8926,-2.0196,-2.1621,-2.2654,-2.3042,-2.3101,-2.3023,-2.2869,-2.2635,-2.202,-2.0919,-1.9367,-1.7747,-1.6017,-1.3715,-1.1843,0.0,0.0,0.0,0.0,0.0,0.0,0.0,0.0,0.0,0.0,0.0,0.0,0.0,0.0,0.0,0.0,0.0,0.0,0.0,0.0,0.0,0.0,0.0,0.0,0.0,0.0,0.0,0.0,-2.1055,-2.2852,-2.1971,-2.3594,-2.3909,0.0,0.0,0.0,0.0,0.0,0.0,-2.6791,-2.7793,-2.9023,-3.0508,-3.1406,-3.2383,-3.3437,-3.4199,-3.4473,-3.4258,-3.4902,-3.4922,-3.4414,-3.4746,-3.4935,-3.4896,-3.4316,-3.4277,-3.4349,-3.0957,-2.8848,-2.7559,-2.6133,-2.5176,-2.4769,-2.561,-2.5762,-2.5859,-2.791,-2.8203,-2.7578,-2.7025,-2.5971,-2.457,-2.2658,0.0,0.0,0.0,0.0,-2.3479,-2.5278,-2.5791,-2.6001,-2.6953,-2.709,-2.6811,-2.6186,-2.5723,-2.4593,0.0,-2.1153,-2.041,-1.8244,0.0,0.0,0.0,0.0,-2.0293,-2.1249,-2.2127,-2.2771,-2.3062,-2.3101,-2.3101,-2.3101,-2.283,-2.2596,-2.2519,-2.0704,-1.9184,-1.8037,-1.5769,-1.3653,-1.1749,0.0,0.0,0.0,0.0,0.0,0.0,0.0,0.0,0.0,0.0,0.0,0.0,0.0,0.0,0.0,0.0,0.0,0.0,0.0,0.0,0.0,0.0,0.0,0.0,0.0,0.0,0.0,0.0,0.0,-2.3769,-2.5942,0.0,0.0,0.0,0.0,-2.6118,-2.7344,-2.8613,-2.9902,-3.124,-3.2335,-3.3172,-3.4062,-3.4746,-3.5254,-3.5703,-3.6113,-3.6538,-3.6577,-3.6792,-3.7109,-3.7129,-3.7129,-3.709,-3.625,-3.5864,-3.5684,-3.2606,-3.1318,-3.1064,-2.9328,-2.8645,-2.8567,-2.8262,-2.8379,-2.8769,-2.9316,-2.95,-2.952,-2.9863,-2.8301,-2.6269,-2.6157,-2.4945,0.0,0.0,-2.5512,-2.6392,-2.733,-2.7565,-2.7585,-2.7643,-2.7324,-2.6986,-2.6928,-2.6621,-2.5688,0.0,-2.2717,-2.2088,-2.1132,0.0,-2.0859,-2.0449,-2.1172,-2.1777,-2.1876,-2.2557,-2.3081,-2.3101,-2.3101,-2.3101,-2.3101,-2.3081,-2.2927,-2.2518,-2.2379,-2.1734,-2.0489,-1.9125,-1.7239,-1.4731,-1.2933,0.0,0.0,0.0,0.0,0.0,0.0,0.0,0.0,0.0,0.0,0.0,0.0,0.0,0.0,0.0,0.0,0.0,0.0,0.0,0.0,0.0,0.0,0.0,0.0,0.0,0.0,0.0,0.0,-2.6719,-2.873,0.0,-2.7285,-2.7643,-2.8367,-2.9219,-3.0723,-3.2031,-3.3047,-3.4082,-3.4922,-3.5488,-3.5835,-3.6172,-3.6621,-3.6758,-3.6914,-3.707,-3.707,-3.7148,-3.7305,-3.7305,-3.7305,-3.7285,-3.6973,-3.6836,-3.6719,-3.5078,-3.3718,-3.2625,-3.1758,-3.1074,-3.0576,-3.0742,-3.0703,-3.0644,-3.1123,-3.1084,-3.0801,-3.0684,-2.9676,-2.8406,-2.8105,-2.7402,-2.6758,-2.7051,-2.7559,-2.8144,-2.8758,-2.8914,-2.8914,-2.8914,-2.8555,-2.8137,-2.7891,-2.75,-2.692,-2.584,-2.4867,-2.3811,-2.2676,-2.2695,-2.2637,-2.1934,-2.2559,-2.3203,-2.3477,-2.3747,-2.3825,-2.3594,-2.3555,-2.3415,-2.312,-2.3101,-2.3042,-2.2908,-2.2402,-2.1585,-2.0391,-1.9203,-1.772,-1.5904,-1.418,-1.2433,0.0,0.0,0.0,0.0,0.0,0.0,0.0,0.0,0.0,0.0,0.0,0.0,0.0,0.0,0.0,0.0,0.0,0.0,0.0,0.0,0.0,0.0,0.0,0.0,0.0,-2.6654,-2.8945,-2.8945,-3.0976,-3.1816,-3.0371,-3.0742,-3.1494,-3.2344,-3.3574,-3.4609,-3.5332,-3.6055,-3.6641,-3.709,-3.7262,-3.7519,-3.793,-3.8086,-3.8184,-3.8164,-3.8008,-3.793,-3.793,-3.7793,-3.7734,-3.7715,-3.7578,-3.75,-3.7461,-3.6738,-3.5762,-3.4648,-3.3769,-3.3086,-3.2617,-3.2941,-3.2851,-3.2617,-3.2785,-3.2519,-3.2059,-3.166,-3.0937,-3.0176,-2.9855,-2.9492,-2.918,-2.918,-2.9375,-2.9648,-2.997,-2.9931,-2.9813,-2.9813,-2.9453,-2.9023,-2.8594,-2.8281,-2.791,-2.7344,-2.6333,-2.5278,-2.4418,-2.4355,-2.4199,-2.3477,-2.3867,-2.4277,-2.4394,-2.4391,-2.4316,-2.4023,-2.3867,-2.3672,-2.3357,-2.3201,-2.3101,-2.3101,-2.2459,-2.1699,-2.0799,-1.9776,-1.848,-1.6944,-1.4787,-1.2965,-1.1462,0.0,0.0,0.0,0.0,0.0,0.0,0.0,0.0,0.0,0.0,0.0,0.0,0.0,0.0,0.0,0.0,0.0,0.0,0.0,0.0,0.0,0.0,0.0,-2.581,-2.8411,-3.0303,-3.0362,-3.2617,-3.386,-3.2988,-3.3704,-3.4544,-3.5371,-3.584,-3.6269,-3.6734,-3.7129,-3.7539,-3.7933,-3.8398,-3.8845,-3.9219,-3.9668,-3.9902,-3.9883,-3.9434,-3.9219,-3.9199,-3.8789,-3.863,-3.8611,-3.8125,-3.7913,-3.7874,-3.75,-3.7324,-3.7148,-3.543,-3.4746,-3.4746,-3.4726,-3.4707,-3.4648,-3.4271,-3.3809,-3.3367,-3.2969,-3.2266,-3.1552,-3.1533,-3.1269,-3.0937,-3.0937,-3.0937,-3.0918,-3.0918,-3.0586,-3.0234,-3.0215,-2.9931,-2.95,-2.9043,-2.8918,-2.8691,-2.7897,-2.7057,-2.6445,-2.6406,-2.603,-2.5581,-2.52,-2.5121,0.0,-2.4512,-2.443,-2.443,-2.441,-2.4082,-2.3828,-2.3789,-2.3376,-2.3101,-2.3081,-2.2693,-2.2305,-2.1915,-2.1094,-1.9774,-1.7987,-1.4971,-1.2667,-1.1085,0.0,0.0,0.0,0.0,0.0,0.0,0.0,0.0,0.0,0.0,0.0,0.0,0.0,0.0,0.0,0.0,0.0,0.0,0.0,0.0,0.0,-2.6836,-2.8516,-2.8516,-3.0586,-3.2559,-3.3828,-3.5156,-3.5893,-3.5659,-3.5854,-3.6089,-3.6343,-3.6992,-3.7598,-3.8063,-3.8457,-3.8887,-3.9336,-3.9473,-3.959,-3.9707,-3.9824,-3.9902,-3.9902,-3.9766,-3.9707,-3.9687,-3.9238,-3.9023,-3.9004,-3.8574,-3.8398,-3.8359,-3.793,-3.7754,-3.7637,-3.6562,-3.5937,-3.5625,-3.5312,-3.498,-3.4687,-3.457,-3.4453,-3.4277,-3.3848,-3.334,-3.2801,-3.2539,-3.2148,-3.1846,-3.1846,-3.1846,-3.1768,-3.1426,-3.125,-3.1074,-3.0781,-3.0351,-3.0,-2.9863,-2.9609,-2.9238,-2.8691,-2.8144,-2.7578,-2.6953,-2.6484,-2.6172,-2.606,-2.5762,0.0,-2.5367,-2.5347,-2.523,-2.4945,-2.4809,-2.4496,-2.3848,-2.3672,-2.334,-2.2693,-2.2285,-2.2032,-2.1894,-2.1348,-2.0442,-1.9165,-1.7345,-1.533,0.0,0.0,0.0,0.0,0.0,0.0,0.0,0.0,0.0,0.0,0.0,0.0,0.0,0.0,0.0,0.0,0.0,0.0,0.0,0.0,0.0,0.0,-2.9609,-3.1445,-3.2168,-3.3203,-3.4453,-3.5996,-3.6988,-3.7574,-3.7715,-3.7946,-3.8027,-3.8027,-3.8476,-3.8867,-3.9121,-3.9355,-3.9609,-3.9883,-4.0059,-4.0156,-4.0156,-4.0351,-4.043,-4.043,-4.0254,-4.0156,-4.0137,-3.9687,-3.9492,-3.9473,-3.9023,-3.8828,-3.8809,-3.8379,-3.8203,0.0,0.0,0.0,0.0,0.0,-3.5644,-3.5234,-3.5059,-3.498,-3.4922,-3.4473,-3.4043,-3.3652,-3.3398,-3.3027,-3.2656,-3.2511,-3.2452,-3.2355,-3.1894,-3.1797,-3.168,-3.125,-3.0937,-3.0644,-3.0273,-3.0028,-2.9735,-2.9277,-2.8848,0.0,-2.7864,-2.7168,-2.6641,-2.6641,-2.642,-2.6186,-2.601,-2.5991,-2.584,-2.5391,-2.52,-2.4887,-2.4398,-2.416,0.0,0.0,0.0,-2.2208,-2.1641,-2.1347,0.0,0.0,0.0,0.0,0.0,0.0,0.0,0.0,-1.1663,-1.1547,0.0,0.0,0.0,0.0,0.0,0.0,0.0,0.0,0.0,0.0,0.0,0.0,0.0,0.0,0.0,0.0,-3.2305,-3.4284,-3.6055,-3.5996,-3.6172,-3.7305,-3.8203,-3.8867,-3.9238,-3.9648,-3.9902,-3.9902,-3.9902,-3.9922,-3.9961,-3.9961,0.0,0.0,0.0,-4.0586,-4.0586,-4.0976,-4.1211,-4.1211,-4.0781,-4.0586,-4.0586,-4.0156,-3.9961,-3.9941,-3.9473,-3.9258,-3.918,-3.8789,-3.865,-3.8532,-3.7676,-3.7344,-3.7246,-3.691,-3.6465,-3.6035,-3.5664,0.0,0.0,-3.4922,-3.4531,-3.4251,-3.4192,-3.3848,-3.3386,-3.3047,-3.291,-3.2773,-3.2374,-3.2276,-3.2159,-3.1699,-3.1582,-3.1367,-3.0527,-3.0351,-3.0195,-2.9755,-2.9336,-2.9015,-2.9004,-2.7903,-2.709,-2.709,-2.7025,-2.6875,-2.6504,-2.6465,-2.6289,-2.5835,0.0,0.0,-2.5102,-2.4707,-2.4277,-2.3828,-2.346,-2.2736,-2.1522,-2.1483,-2.1055,-2.0074,-2.0385,-1.9583,-1.768,-1.7934,-1.7272,-1.5676,-1.3366,-1.2839,0.0,0.0,0.0,0.0,0.0,0.0,0.0,0.0,0.0,0.0,0.0,0.0,0.0,0.0,0.0,-3.1973,-3.4101,-3.6113,-3.7832,-3.8008,-3.8047,-3.8337,-3.9101,-3.9668,-3.9746,-3.9844,-3.9902,-3.9902,-3.9902,-4.0039,-4.0391,-4.0372,-4.0566,-4.0957,-4.0996,-4.1055,-4.1055,-4.1133,-4.1211,-4.1211,0.0,0.0,-4.1035,-4.0605,-4.0372,-4.0333,-3.9941,-3.9551,-3.9199,-3.9121,-3.8887,-3.8552,-3.8008,-3.7598,-3.7285,-3.7207,-3.6914,-3.6543,-3.648,-3.6191,-3.582,-3.5391,-3.5195,-3.5059,-3.4687,-3.4277,0.0,-3.388,-3.3574,-3.3203,-3.2793,-3.2676,-3.2559,-3.2179,-3.2081,-3.1894,-3.1367,-3.1269,-3.1035,-3.0234,-3.0,-2.9844,-2.954,-2.8406,-2.7565,-2.7565,-2.7246,-2.6967,-2.6889,-2.6869,-2.6719,-2.6309,-2.6216,-2.5864,-2.516,-2.5024,-2.4633,-2.3851,-2.3733,-2.3555,-2.3301,-2.3301,-2.3193,-2.2995,-2.2681,-2.1911,-2.0659,-1.9668,-1.869,-1.7693,-1.568,-1.483,0.0,0.0,0.0,0.0,0.0,0.0,0.0,0.0,0.0,0.0,0.0,-2.692,-2.8633,0.0,-3.2207,-3.4407,-3.5996,-3.7422,-3.8711,-3.9277,-3.9473,-3.9258,-3.9805,-4.0215,-4.0215,-4.041,-4.0527,-4.0527,-4.0527,-4.0625,-4.084,-4.084,-4.0957,-4.1211,-4.1211,-4.1211,-4.1211,-4.1211,-4.1211,-4.1211,-4.1211,-4.1211,-4.1211,-4.0957,-4.084,-4.082,-4.0391,-4.0078,-3.9824,-3.9394,-3.9082,-3.8848,-3.8418,-3.7988,-3.7617,-3.7617,-3.7344,-3.6992,-3.6992,-3.6699,-3.6309,-3.6128,-3.5742,-3.5351,-3.5117,-3.4746,-3.4394,-3.4394,-3.4082,-3.3691,-3.3496,-3.3281,-3.3008,-3.2578,-3.2511,-3.2363,-3.1934,-3.168,-3.1357,-3.0937,-3.0508,-3.0137,-2.9922,-2.9207,-2.8582,-2.832,-2.793,-2.7578,-2.7363,-2.7344,-2.7168,-2.6758,-2.6699,-2.6523,-2.6074,-2.5644,-2.5117,-2.4496,-2.4219,-2.4102,-2.4102,-2.4102,-2.4102,-2.4102,-2.4102,-2.3488,-2.225,-2.1132,-2.0038,-1.892,-1.7252,-1.6444,0.0,0.0,0.0,0.0,0.0,0.0,0.0,-2.4898,-2.5957,-2.7441,-2.8406,-2.9618,-3.1855,-3.2969,-3.4297,-3.6577,-3.7617,-3.8476,-3.9336,-4.0078,-4.0391,-4.0059,-4.0391,-4.0644,-4.0644,-4.0976,-4.1211,-4.1211,-4.1211,-4.1211,-4.1211,-4.1211,-4.1211,-4.1211,-4.1211,-4.1211,-4.1211,-4.1211,-4.1211,-4.1211,-4.1211,-4.1211,-4.1211,-4.1211,-4.1211,-4.1191,-4.0703,-4.0489,-4.043,-3.9668,-3.9277,-3.916,-3.8828,-3.8437,-3.8047,-3.8047,-3.7773,-3.7422,-3.7422,-3.7148,-3.6812,-3.6734,-3.6211,-3.5625,-3.5547,-3.5195,-3.4824,-3.4824,-3.4531,-3.4231,-3.4231,-3.3867,-3.3457,-3.3125,-3.2988,-3.2793,-3.2413,-3.2012,-3.1719,-3.1513,-3.0937,-3.043,-3.0351,-3.0009,-2.9579,-2.9101,-2.8691,-2.8301,-2.7976,-2.7858,-2.7643,-2.7187,-2.7148,-2.7109,-2.7031,-2.6362,-2.5796,-2.5493,-2.5117,-2.4922,-2.4922,-2.4922,-2.4922,-2.4922,-2.5273,-2.4923,-2.3767,-2.2812,-2.1755,-2.0612,-1.8972,-1.7871,-2.3984,-2.291,-2.2869,-2.4684,-2.5,-2.5864,0.0,-3.0019,-3.0137,-3.2177,-3.3027,-3.3723,-3.4766,-3.5698,-3.6582,-3.7617,-3.8496,-3.9375,-4.0216,-4.043,-4.0469,-4.043,-4.084,-4.1094,-4.1094,-4.1191,-4.1211,-4.1211,-4.1211,-4.1211,-4.1211,-4.1211,-4.1211,-4.1211,-4.1211,-4.1211,-4.1211,-4.1211,-4.1211,-4.1211,-4.1211,-4.1211,-4.1211,-4.1211,-4.1211,-4.1191,-4.0703,-4.0489,-4.045,-4.0019,-3.957,-3.9199,-3.9141,-3.8867,-3.8496,-3.8496,-3.8223,-3.7816,-3.7816,-3.7578,-3.7168,-3.6832,-3.6636,-3.6499,-3.6074,-3.5664,-3.5312,-3.5312,-3.498,-3.4629,-3.4629,-3.4316,-3.4016,-3.3977,-3.3633,-3.3242,-3.2812,-3.2676,-3.2422,-3.166,-3.1416,-3.125,-3.0879,-3.043,-2.998,-2.9598,-2.9121,-2.8801,-2.8789,-2.8457,-2.8093,-2.7663,-2.7624,-2.7467,-2.7051,-2.6908,-2.683,-2.6797,-2.6758,-2.6693,-2.6693,-2.6693,-2.6693,-2.6693,-2.6752,-2.6721,-2.6549,-2.5271,-2.4547,-2.4339,-2.1607,-1.9354,-2.6719,-2.6152,-2.6152,-2.7279,-2.8398,-2.9755,-3.1797,-3.2168,-3.2539,-3.4219,-3.4902,-3.5469,-3.6348,-3.6992,-3.7676,-3.8535,-3.9199,-3.9824,-4.043,-4.0489,-4.0391,-4.0195,-4.0312,-4.0527,-4.0781,-4.0801,-4.0898,-4.1191,-4.1211,-4.1211,-4.1211,-4.1211,-4.1211,-4.1211,-4.1211,-4.1211,-4.1211,-4.1211,-4.1211,-4.1211,-4.1211,-4.1211,-4.1211,-4.1211,-4.1211,-4.1211,-4.0976,-4.0898,-4.0859,-4.043,-4.0137,-3.9941,-3.9707,-3.9336,-3.8906,-3.8708,-3.8493,-3.8301,-3.8301,-3.8027,-3.7637,-3.7461,-3.707,-3.6675,-3.6445,-3.6094,-3.5762,-3.5762,-3.5449,-3.5098,-3.5098,-3.4766,-3.4375,-3.4173,-3.3958,-3.3691,-3.3242,-3.2969,-3.2695,-3.2324,-3.207,-3.1758,-3.1328,-3.1094,-3.082,-3.0439,-2.9774,-2.9297,-2.9297,-2.8926,-2.8496,-2.8093,-2.8054,-2.7878,-2.7422,-2.7428,-2.7285,-2.7006,-2.6986,-2.6986,-2.6986,-2.6986,-2.6986,-2.6986,-2.6986,-2.6986,-2.6986,-2.5644,-2.5003,-2.4951,-2.2039,-2.0222,-2.791,-2.8105,-2.8691,-2.959,-3.1269,-3.2941,-3.3691,-3.4101,-3.4648,-3.584,-3.6328,-3.6777,-3.7519,-3.7891,-3.8379,-3.9258,-3.9668,-4.0078,-4.0625,-4.0508,-4.0195,-3.9766,-3.9492,-3.9512,-3.9941,-4.0274,-4.0644,-4.0976,-4.1152,-4.1211,-4.1211,-4.1211,-4.1211,-4.1211,-4.1211,-4.1211,-4.1211,-4.1211,-4.1211,-4.1211,-4.1211,-4.1211,-4.1211,-4.1211,-4.1211,-4.1211,-4.1211,-4.1211,-4.1191,-4.084,-4.0625,-4.045,-4.0195,-3.9785,-3.9336,-3.8906,-3.8708,-3.8611,-3.8611,-3.8359,-3.8086,-3.7933,-3.7519,-3.6992,-3.691,-3.6543,-3.6191,-3.6191,-3.5898,-3.5566,-3.5566,-3.5234,-3.4824,-3.4544,-3.4368,-3.4121,-3.3691,-3.3359,-3.3086,-3.2851,-3.2559,-3.2237,-3.1777,-3.1699,-3.1543,-3.1133,-3.0508,-3.0048,-2.9813,-2.9375,-2.8984,-2.8699,-2.8652,-2.8542,-2.8249,-2.8112,-2.7871,-2.7559,-2.7441,-2.7363,-2.7363,-2.7363,-2.7363,-2.7363,-2.7363,-2.7363,-2.7363,-2.639,-2.5926,-2.5848,-2.3352,-2.1946,-2.6705,-2.7656,-2.9414,-3.1573,-3.3078,-3.4486,-3.6206,-3.6597,-3.6816,-3.764,-3.7816,-3.8008,-3.8493,-3.8591,-3.8848,-3.9726,-3.9883,-4.0195,-4.1074,-4.0449,-3.9746,-3.9277,-3.8496,-3.8144,-3.863,-3.9785,-4.0489,-4.0508,-4.0937,-4.1211,-4.1211,-4.1211,-4.1211,-4.1211,-4.1211,-4.1211,-4.1211,-4.1211,-4.1211,-4.1211,-4.1211,-4.1211,-4.1211,-4.1211,-4.1211,-4.1211,-4.1211,-4.1211,-4.1211,-4.1191,-4.0898,-4.0489,-4.0469,-4.0234,-3.9824,-3.9355,-3.8926,-3.8611,-3.8611,-3.8611,-3.8476,-3.8066,-3.7874,-3.7777,-3.7402,-3.6992,-3.6695,-3.6695,-3.6348,-3.5962,-3.5962,-3.5684,-3.5371,-3.5351,-3.5,-3.457,-3.4173,-3.4075,-3.3821,-3.2949,-3.2793,-3.2637,-3.2257,-3.2179,-3.2042,-3.1562,-3.1455,-3.1152,-3.0293,-2.9833,-2.9579,-2.9559,-2.9559,-2.9559,-2.954,-2.9121,-2.884,-2.884,-2.8476,-2.8262,-2.8262,-2.8262,-2.8262,-2.8262,-2.8262,-2.8262,-2.8262,-2.8215,-2.8189,-2.8162,-2.6653,-2.5116,-2.8613,-2.998,-3.1553,-3.3379,-3.4857,-3.6128,-3.7246,-3.75,-3.7578,-3.7835,-3.748,-3.7051,-3.6914,-3.6875,-3.7246,-3.8398,-3.9062,-3.9844,-4.1054,-4.0684,-3.9941,-3.8906,-3.8535,-3.8184,-3.7773,-3.8633,-3.959,-4.043,-4.0664,-4.0859,-4.1191,-4.1211,-4.1211,-4.1211,-4.1211,-4.1211,-4.1211,-4.1211,-4.1211,-4.1211,-4.1211,-4.1211,-4.1211,-4.1211,-4.1211,-4.1211,-4.1211,-4.1211,-4.1211,-4.1211,-4.1132,-4.0957,-4.0957,-4.0684,-4.0293,-4.0137,-3.9609,-3.8945,-3.8708,-3.8611,-3.8591,-3.8398,-3.8164,-3.7855,-3.7718,-3.7422,-3.7031,-3.6792,-3.6597,-3.6387,-3.6094,-3.5884,-3.5742,-3.5469,-3.5273,-3.5039,-3.459,-3.431,-3.4016,-3.3723,-3.3398,-3.3086,-3.2656,-3.2578,-3.2441,-3.2042,-3.1465,-3.0879,-3.0273,-3.0078,-2.9911,-2.9618,-2.9598,-2.9598,-2.9598,-2.9461,-2.9355,-2.9355,-2.9246,-2.9168,-2.9168,-2.9168,-2.9168,-2.9168,-2.9168,-2.9168,-2.9168,-2.9168,-2.9168,-2.9113,-2.6511,-2.5018,-3.0351,-3.1885,-3.3332,-3.5156,-3.6387,-3.7305,-3.8008,-3.8027,-3.7796,-3.7539,-3.6797,-3.6069,-3.543,-3.5195,-3.5591,-3.7207,-3.8066,-3.9082,-4.0703,-4.043,-3.9746,-3.8906,-3.8535,-3.8125,-3.7578,-3.8164,-3.9062,-4.0215,-4.043,-4.0703,-4.1191,-4.1211,-4.1211,-4.1211,-4.1211,-4.1211,-4.1211,-4.1211,-4.1211,-4.1211,-4.1211,-4.1094,-4.0937,-4.0937,-4.0859,-4.0761,-4.0761,-4.0761,-4.0761,-4.0879,-4.0859,-4.0781,-4.1093,-4.0898,-4.0489,-4.0489,-4.0156,-3.959,-3.9004,-3.8728,-3.8611,-3.8611,-3.8379,-3.8164,-3.8164,-3.7851,-3.7461,-3.7187,-3.7012,-3.6797,-3.6367,-3.625,-3.6152,-3.5723,-3.5605,-3.5488,-3.5039,-3.4746,-3.4492,-3.4368,-3.3945,-3.3574,-3.3301,-3.3008,-3.2695,-3.2452,-3.1827,-3.1172,-3.0723,-3.0527,-3.0351,-3.0106,-3.0067,-3.0067,-3.0067,-2.9911,-2.9813,-2.9813,-2.9676,-2.9598,-2.9598,-2.9598,-2.9598,-2.9598,-2.9598,-2.9598,-2.9598,-2.9598,-2.9598,-2.9542,-2.7521,-2.5984,-3.1866,-3.3274,-3.4759,-3.6816,-3.7656,-3.8066,-3.8493,-3.8203,-3.7637,-3.6758,-3.584,-3.4922,-3.4036,-3.3535,-3.4004,-3.6186,-3.6973,-3.8066,-4.0177,-3.9824,-3.9297,-3.9238,-3.8516,-3.7972,-3.7952,-3.8359,-3.8984,-3.9863,-4.0273,-4.0684,-4.1191,-4.1211,-4.1211,-4.1211,-4.1211,-4.1211,-4.1211,-4.1211,-4.1211,-4.1172,-4.1172,-4.0918,-4.0488,-4.0488,-4.0273,-3.9902,-3.9902,-3.9902,-3.9922,-4.0332,-4.0254,-3.998,-4.082,-4.0859,-4.0489,-4.0489,-4.0489,-4.0372,-3.9531,-3.8965,-3.865,-3.8611,-3.8611,-3.8611,-3.8611,-3.8281,-3.7913,-3.7894,-3.7637,-3.7226,-3.6851,-3.6714,-3.6597,-3.6152,-3.6001,-3.5918,-3.5508,-3.541,-3.5254,-3.4824,-3.4427,-3.4134,-3.4114,-3.3398,-3.2851,-3.2832,-3.2511,-3.2081,-3.1601,-3.1211,-3.0957,-3.0918,-3.0918,-3.0918,-3.0898,-3.0488,-3.0234,-3.0234,-2.9891,-2.9676,-2.9676,-2.9676,-2.9676,-2.9676,-2.9676,-2.9676,-2.9676,-2.9676,-2.9676,-2.9657,-2.9573,-2.7936,-3.3594,-3.5234,-3.668,-3.7539,-3.8086,-3.8359,-3.8144,-3.7754,-3.7031,-3.5508,-3.3769,-3.2148,-3.0967,-3.1201,-3.2129,-3.3945,-3.623,-3.8382,-4.0216,-4.0605,-4.043,-3.9785,-3.9531,-3.9258,-3.8906,-3.8984,-3.9414,-4.0293,-4.0176,-4.0391,-4.1172,-4.1211,-4.1211,-4.1211,-4.1211,-4.1211,-4.1211,-4.1211,-4.1016,-4.0684,-4.0684,-4.0469,-4.0059,-4.0059,-4.0,-3.9902,-3.9902,-3.9902,-3.9902,-4.0019,-4.0,-3.9922,-4.0137,-4.0351,-4.0489,-4.0489,-4.0489,-4.0449,-3.9902,-3.9414,-3.8984,-3.8708,-3.8611,-3.8611,-3.8611,-3.8532,-3.834,-3.8008,-3.7851,-3.7676,-3.7246,-3.6894,-3.6675,-3.6558,-3.625,-3.5962,-3.5879,-3.5605,-3.5351,-3.5234,-3.4844,-3.4434,-3.4153,-3.3919,-3.3633,-3.3301,-3.291,-3.2511,-3.2081,-3.1944,-3.1719,-3.1387,-3.1367,-3.123,-3.0918,-3.0781,-3.0703,-3.0703,-3.0625,-3.0576,-3.0576,-3.0576,-3.0576,-3.0576,-3.0576,-3.0576,-3.0576,-3.0576,-3.0576,-3.0547,-2.93,-2.8267,-3.5605,-3.6973,-3.7949,-3.8379,-3.8535,-3.8262,-3.709,-3.6328,-3.5234,-3.293,-3.1191,-2.9707,-2.8445,-2.9043,-3.043,-3.2519,-3.5234,-3.7832,-3.9941,-4.0625,-4.0703,-4.0234,-4.0176,-4.0,-3.9551,-3.9668,-3.998,-4.045,-4.0312,-4.0469,-4.1172,-4.1211,-4.1211,-4.1211,-4.1211,-4.1211,-4.1211,-4.1211,-4.1093,-4.0801,-4.0801,-4.0488,-3.9902,-3.9902,-3.9687,-3.9316,0.0,-3.9316,-3.9336,-3.9512,-3.9473,-3.9355,-3.9746,-3.9922,-3.998,-4.0333,-4.0489,-4.0488,-4.0254,-4.0,-3.9648,-3.8884,-3.8611,-3.8611,-3.8611,-3.8611,-3.8552,-3.8281,-3.8203,-3.8105,-3.7676,-3.7402,-3.7129,-3.6792,-3.6519,-3.625,-3.6021,-3.584,-3.5605,-3.543,-3.5176,-3.4863,-3.4446,-3.4231,-3.4016,-3.375,-3.334,-3.2988,-3.2754,-3.2433,-3.2101,-3.1836,-3.1797,-3.1719,-3.1494,-3.1475,-3.1475,-3.1475,-3.1475,-3.1475,-3.1475,-3.1475,-3.1475,-3.1475,-3.1475,-3.1475,-3.1475,-3.1475,-3.1475,-3.1445,-3.0512,-2.9252,-3.7461,-3.832,-3.875,-3.9101,-3.8848,-3.793,-3.5781,-3.4564,-3.3,-2.997,-2.8594,-2.7578,-2.6348,-2.7291,-2.9062,-3.169,-3.4297,-3.6934,-3.9531,-4.0254,-4.0508,-4.0605,-4.0567,-4.0469,-4.0098,-4.0391,-4.0567,-4.0567,-4.0567,-4.0781,-4.1191,-4.1211,-4.1211,-4.1211,-4.1211,-4.1211,-4.1211,-4.1211,-4.1191,-4.1132,-4.1132,-4.0664,-3.9902,-3.9824,-3.9375,-3.8689,-3.863,-3.8611,-3.865,-3.8965,-3.8906,-3.8689,-3.9414,-3.9512,-3.9297,-4.0137,-4.043,-4.0489,-4.0489,-4.0489,-4.0332,-3.9141,-3.8747,-3.8689,-3.8689,-3.865,-3.8611,-3.8611,-3.8611,-3.8532,-3.8105,-3.7969,-3.7699,-3.7012,-3.6832,-3.6641,-3.6211,-3.6021,-3.5918,-3.5547,-3.5488,-3.5332,-3.4863,-3.4492,-3.4251,-3.4192,-3.3789,-3.3484,-3.3484,-3.2812,-3.2335,-3.2296,-3.2276,-3.2257,-3.2198,-3.2198,-3.2198,-3.2198,-3.2198,-3.2198,-3.2198,-3.2198,-3.2198,-3.2198,-3.2198,-3.2198,-3.2198,-3.2198,-3.2198,-3.2198,-3.2198,-3.0612,-3.8066,-3.8769,-3.9101,-3.918,-3.8613,-3.748,-3.5312,-3.3645,-3.167,-2.864,-2.7031,-2.5874,-2.4918,-2.6406,-2.864,-3.1211,-3.4069,-3.6934,-3.9531,-4.0254,-4.0664,-4.1016,-4.1055,-4.1035,-4.0996,-4.1054,-4.1055,-4.1055,-4.1055,-4.1094,-4.1211,-4.1211,-4.1211,-4.1211,-4.1211,-4.1211,-4.1211,-4.1211,-4.0996,-4.0644,-4.0644,-4.0371,-3.9883,-3.9492,-3.9238,-3.9082,-3.873,0.0,-3.8611,-3.8689,-3.8633,-3.863,-3.8787,-3.8965,-3.9258,-3.9805,-4.0234,-4.0489,-4.0489,-4.0489,-4.043,-3.9844,-3.9414,-3.9101,-3.9101,-3.8848,-3.8611,-3.8611,-3.8611,-3.8591,-3.8513,-3.8203,-3.7855,-3.7734,-3.7441,-3.707,-3.6695,-3.6269,-3.5962,-3.5918,-3.5918,-3.5781,-3.5351,-3.5215,-3.5039,-3.4648,-3.4238,-3.3997,-3.3997,-3.3516,-3.3066,-3.2715,-3.2695,-3.257,-3.2237,-3.2198,-3.2198,-3.2198,-3.2198,-3.2198,-3.2198,-3.2198,-3.2198,-3.2198,-3.2198,-3.2198,-3.2198,-3.2198,-3.2198,-3.2198,-3.2198,-3.1875,-3.8848,-3.9414,-3.9551,-3.9551,-3.873,-3.707,-3.3789,-3.1719,-2.952,-2.606,-2.4648,-2.3903,-2.3474,-2.5,-2.7115,-2.9453,-3.1816,-3.4492,-3.7754,-3.8574,-3.9336,-4.0684,-4.1035,-4.1211,-4.1211,-4.1211,-4.1211,-4.1211,-4.1211,-4.1211,-4.1211,-4.1211,-4.1211,-4.1211,-4.1211,-4.1211,-4.1211,-4.1211,-4.1113,-4.0859,-4.0859,-4.0644,-4.0215,-3.998,-3.9766,-3.9531,-3.9101,-3.8906,-3.8887,-3.8708,-3.8611,-3.8611,-3.8611,-3.8728,-3.8965,-3.9648,-4.0019,-4.0254,-4.0703,-4.0859,-4.082,-4.0625,-4.0098,-3.9512,-3.9277,-3.9062,-3.8848,-3.8669,-3.8611,-3.8611,-3.8611,-3.8418,-3.8203,-3.7969,-3.7598,-3.7246,-3.7031,-3.666,-3.6348,-3.6348,-3.6172,-3.5923,-3.5762,-3.5527,-3.5312,-3.5098,-3.4687,-3.4394,-3.4394,-3.4219,-3.3848,-3.3184,-3.3125,-3.3047,-3.2832,-3.2812,-3.2812,-3.2812,-3.2812,-3.2812,-3.2812,-3.2812,-3.2812,-3.2812,-3.2812,-3.2812,-3.2812,-3.2812,-3.2812,-3.2812,-3.2812,-3.2327,-3.9141,-3.9668,-3.9746,-3.9746,-3.8691,-3.6582,-3.2461,-3.0039,-2.7578,-2.3831,-2.2676,-2.2402,-2.2479,-2.3828,-2.5688,-2.793,-2.9746,-3.2207,-3.603,-3.7051,-3.8203,-4.0273,-4.0898,-4.1211,-4.1211,-4.1211,-4.1211,-4.1211,-4.1211,-4.1211,-4.1211,-4.1211,-4.1211,-4.1211,-4.1211,-4.1211,-4.1211,-4.1211,-4.1211,-4.1211,-4.1211,-4.0996,-4.0664,-4.0566,-4.0332,-4.0,-3.9551,-3.9297,-3.918,-3.8848,-3.8689,-3.8611,-3.8611,-3.8611,-3.8728,-3.957,-3.9902,-4.0019,-4.0917,-4.1211,-4.1211,-4.1211,-4.0664,-3.9961,-3.959,-3.9414,-3.9258,-3.8828,-3.8747,-3.8728,-3.863,-3.8611,-3.8532,-3.8144,-3.7734,-3.7441,-3.7441,-3.7109,-3.6851,-3.6851,-3.6465,-3.6152,-3.6152,-3.5801,-3.5527,-3.5527,-3.5137,-3.4844,-3.4844,-3.4766,-3.4453,-3.3738,-3.3691,-3.3691,-3.3691,-3.3691,-3.3652,-3.3574,-3.3555,-3.3516,-3.3386,-3.3386,-3.3386,-3.3386,-3.3386,-3.3386,-3.3386,-3.3386,-3.3386,-3.3386,-3.3386,-3.267,-3.8223,-3.8984,-3.9258,-3.9258,-3.8008,-3.5893,-3.2324,-2.959,-2.6822,-2.3301,-2.2227,-2.207,-2.242,-2.3594,-2.5312,-2.7871,-2.9746,-3.2109,-3.5586,-3.7074,-3.8535,-4.0274,-4.0898,-4.1211,-4.1211,-4.1211,-4.1211,-4.1211,-4.1211,-4.1211,-4.1211,-4.1211,-4.1211,-4.1211,-4.1211,-4.1211,-4.1211,-4.1211,-4.1211,-4.1211,-4.1211,-4.1191,-4.1094,-4.0703,-4.0469,-4.0411,-4.0019,-3.959,0.0,-3.916,-3.8926,-3.8611,-3.8611,-3.8611,-3.8728,-3.957,-3.9902,-4.0019,-4.0917,-4.1211,-4.1211,-4.1211,-4.0859,-4.043,-4.0372,-4.0137,-3.9726,-3.9277,-3.9141,-3.9062,-3.8708,-3.8611,-3.8591,-3.8571,-3.8184,-3.7835,-3.7835,-3.7539,-3.7246,-3.7246,-3.6929,-3.6656,-3.6656,-3.625,-3.5923,-3.5923,-3.5605,-3.5332,-3.5332,-3.4961,-3.4668,-3.459,-3.459,-3.459,-3.459,-3.459,-3.4414,-3.4075,-3.4055,-3.3828,-3.3406,-3.3386,-3.3386,-3.3386,-3.3386,-3.3386,-3.3386,-3.3386,-3.3386,-3.3386,-3.3386,-3.3323,-3.7715,-3.8691,-3.9141,-3.8887,-3.7539,-3.5312,-3.1572,-2.875,-2.6021,-2.2793,-2.1602,-2.1329,-2.2012,-2.2559,-2.3574,-2.5625,-2.6328,-2.7812,-3.1269,-3.2586,-3.4492,-3.7812,-3.9043,-4.0057,-4.1113,-4.1211,-4.1211,-4.1211,-4.1211,-4.1211,-4.1211,-4.1211,-4.1211,-4.1211,-4.1211,-4.1211,-4.1211,-4.1211,-4.1211,-4.1211,-4.1211,-4.1211,-4.1211,-4.0996,-4.0918,-4.0879,-4.0195,-3.9941,0.0,-3.9414,-3.9258,-3.9336,-3.9062,-3.9121,-3.9414,-3.9766,-4.0059,-4.0351,-4.0957,-4.1211,-4.1211,-4.1211,-4.1055,-4.0859,-4.0605,-4.041,-4.0176,-3.9746,-3.9609,-3.9512,-3.9062,-3.8769,-3.8611,-3.8611,-3.8437,-3.832,-3.832,-3.7969,-3.7676,-3.7676,-3.7344,-3.7051,-3.7051,-3.6699,-3.6406,-3.6406,-3.6035,-3.5762,-3.5762,-3.5605,-3.5488,-3.5488,-3.5019,-3.4707,-3.4707,-3.4707,-3.4629,-3.4453,-3.4453,-3.4375,-3.4199,-3.418,-3.418,-3.418,-3.418,-3.418,-3.418,-3.418,-3.418,-3.418,-3.418,-3.418,-3.6801,-3.7988,-3.8574,-3.8281,-3.6816,-3.4531,-3.0986,-2.8125,-2.5395,-2.248,-2.1192,-2.0879,-2.1739,-2.1915,-2.2423,-2.3984,-2.4297,-2.5469,-2.8672,-2.9961,-3.1953,-3.5678,-3.7144,-3.8457,-4.0059,-4.0839,-4.1211,-4.1211,-4.1211,-4.1211,-4.1211,-4.1211,-4.1211,-4.1211,-4.1211,-4.1211,-4.1211,-4.1211,-4.1211,-4.1211,-4.1211,-4.1211,-4.1211,-4.1211,-4.1211,-4.1172,-4.0527,-4.0371,0.0,-3.9844,-3.9707,-3.9844,-3.9375,-3.9394,-3.9707,-3.9844,-4.0078,-4.041,-4.0976,-4.1211,-4.1211,-4.1211,-4.1211,-4.1152,-4.0801,-4.0723,-4.0625,-4.0195,-4.0,-3.9785,-3.9316,-3.8984,-3.8767,-3.865,-3.8611,-3.8611,-3.8611,-3.834,-3.8125,-3.8125,-3.7773,-3.748,-3.748,-3.7129,-3.689,-3.689,-3.6601,-3.6348,-3.623,-3.6211,-3.6152,-3.6001,-3.5469,-3.5098,-3.5098,-3.5098,-3.5039,-3.4902,-3.4902,-3.4844,-3.4707,-3.4707,-3.4707,-3.4707,-3.4707,-3.4707,-3.4707,-3.4707,-3.4707,-3.4707,-3.4707,-3.4187,-3.5332,-3.666,-3.7324,-3.7305,-3.5684,-3.343,-3.0801,-2.7871,-2.498,-2.2443,-2.1192,-2.0879,-2.1739,-2.1915,-2.2326,-2.3616,-2.4859,-2.6596,-2.9227,-3.0684,-3.2305,-3.4453,-3.5508,-3.6508,-3.7796,-3.9902,-4.1211,-4.1211,-4.1211,-4.1211,-4.1211,-4.1211,-4.1211,-4.1211,-4.1211,-4.1211,-4.1211,-4.1211,-4.1211,-4.1211,-4.1211,-4.1211,-4.1211,-4.1211,-4.1211,-4.1211,-4.1211,-4.0918,0.0,-4.0469,-4.0273,-3.9844,-3.9375,-3.9199,-3.9258,-3.9726,-3.9902,-4.0019,-4.0917,-4.1211,-4.1211,-4.1211,-4.1211,-4.1211,-4.1211,-4.1211,-4.1113,-4.0644,-4.0215,-3.9785,-3.9316,-3.9199,-3.9082,-3.8708,-3.8611,-3.8611,-3.8611,-3.8611,-3.8611,-3.8611,-3.8223,-3.7874,-3.7874,-3.7578,-3.7285,-3.7285,-3.7285,-3.7129,-3.6753,-3.6695,-3.6504,-3.604,-3.5982,-3.5982,-3.5982,-3.5982,-3.582,-3.541,-3.5391,-3.5176,-3.4726,-3.4707,-3.4707,-3.4707,-3.4707,-3.4707,-3.4707,-3.4707,-3.4707,-3.4707,-3.4707,-3.2936,-3.1816,-3.332,-3.4375,-3.3203,-3.2168,-3.082,-2.8535,-2.6342,-2.4258,-2.2306,-2.1192,-2.0762,-2.1308,-2.168,-2.2423,-2.3965,-2.4824,-2.5879,-2.7578,-2.9434,-3.1406,-3.3574,-3.6953,-3.9375,-4.0078,-4.08,-4.1211,-4.1211,-4.1211,-4.1211,-4.1211,-4.1211,-4.1211,-4.1211,-4.1211,-4.1211,-4.1211,-4.1211,-4.1211,-4.1211,-4.1211,-4.1211,-4.1211,-4.1211,-4.1211,-4.1191,-4.0859,-4.0644,-4.0469,-4.0215,-4.0019,-3.9844,-3.9375,-3.957,-4.0078,-3.9941,-4.0273,-4.0839,-4.1113,-4.1211,-4.1211,-4.1211,-4.1211,-4.1211,-4.1211,-4.0976,-4.0703,-4.0528,-4.0215,-3.9922,-4.0078,-3.9648,-3.916,-3.9043,-3.8789,-3.8611,-3.8611,-3.8611,-3.8611,-3.8611,-3.8457,-3.8359,-3.8359,-3.8008,-3.7734,-3.7734,-3.748,-3.7246,-3.7109,-3.709,-3.7051,-3.6914,-3.6641,-3.6348,-3.6035,-3.5982,-3.5957,-3.584,-3.582,-3.5762,-3.5605,-3.5605,-3.5605,-3.5605,-3.5605,-3.5605,-3.5605,-3.5605,-3.5605,-3.5605,-3.5605,-3.3619,-2.9637,-3.1055,-3.1953,-3.0898,-3.0039,-2.9004,-2.7187,-2.5312,-2.3555,-2.2189,-2.1192,-2.0723,-2.1132,-2.1445,-2.209,-2.3454,-2.4199,-2.518,-2.6752,-2.8547,-3.0762,-3.3574,-3.7109,-3.9609,-4.0351,-4.0879,-4.1211,-4.1211,-4.1211,-4.1211,-4.1211,-4.1211,-4.1211,-4.1211,-4.1211,-4.1211,-4.1211,-4.1211,-4.1211,-4.1211,-4.1211,-4.1211,-4.1211,-4.1211,-4.1074,-4.0918,-4.0644,-4.0391,0.0,-4.0,-3.9902,-3.9863,-3.957,-3.9805,-4.0273,-4.0176,-4.0469,-4.0957,-4.1152,-4.1211,-4.1211,-4.1211,-4.1211,-4.1152,-4.082,-4.0605,-4.0489,-4.0489,-4.0332,-4.0195,-4.0411,-4.0117,-3.9668,-3.9492,-3.9121,-3.8809,-3.8809,-3.8728,-3.8611,-3.8611,-3.8611,-3.8611,-3.8611,-3.8359,-3.8164,-3.8164,-3.7949,-3.7715,-3.7559,-3.7539,-3.748,-3.7324,-3.707,-3.6797,-3.6523,-3.6211,-3.5982,-3.5982,-3.5982,-3.5982,-3.5982,-3.5982,-3.5982,-3.5982,-3.5982,-3.5982,-3.5982,-3.5982,-3.5982,-3.5982,-3.528,-3.3274,0.0,-2.9473,-2.9863,-2.9766,-2.8867,-2.7695,-2.6445,-2.4593,0.0,-2.2032,-2.1172,-2.0723,-2.1171,-2.1249,-2.1562,-2.2518,-2.3418,-2.4707,-2.6816,-2.8352,-3.0713,-3.457,-3.6504,-3.8008,-3.9219,-4.0449,-4.1211,-4.1211,-4.1211,-4.1211,-4.1211,-4.1211,-4.1211,-4.1211,-4.1211,-4.1211,-4.1211,-4.1211,-4.1211,-4.1211,-4.1211,-4.1191,-4.1172,-4.1172,-4.0898,0.0,-4.0469,-4.0234,-3.9844,-3.9844,-3.9844,-3.9844,-3.9844,-3.9883,-3.998,-4.0333,-4.0508,-4.0625,-4.1035,-4.1211,-4.1211,-4.1211,-4.1211,-4.1054,-4.0195,-4.0195,-4.0469,-4.0469,-4.0469,-4.045,-4.0508,-4.0547,-4.043,-4.0039,-3.959,-3.9258,-3.9258,-3.8945,-3.8689,-3.8669,-3.865,-3.865,-3.8611,-3.8611,-3.8611,-3.8611,-3.8611,-3.8418,-3.8027,-3.7933,-3.7832,-3.7422,-3.7363,-3.7344,-3.7344,-3.6582,-3.6079,-3.6079,-3.6079,-3.6094,-3.604,-3.604,-3.6021,-3.5982,-3.5982,-3.5982,-3.5982,-3.5982,-3.5933,-3.5782,-3.4022,-3.2123,-2.3867,0.0,-2.6518,-2.5547,-2.5312,-2.5054,0.0,-2.324,-2.2422,-2.1542,-2.0977,-2.082,-2.1582,-2.1738,-2.2324,-2.4183,-2.5239,-2.6314,-2.7793,-3.1074,-3.4531,-3.7754,-3.9101,-4.0019,-4.0644,-4.1035,-4.1211,-4.1211,-4.1211,-4.1211,-4.1211,-4.1211,-4.1211,-4.1211,-4.1211,-4.1211,-4.1211,-4.1211,-4.1211,-4.1211,-4.1211,-4.0996,-4.0684,-4.0684,-4.0449,-4.0039,-4.0039,-3.9785,-3.9355,-3.9355,-3.9355,-3.9355,-3.9355,-3.9785,-4.0391,-4.0488,-4.0742,-4.1035,-4.1172,-4.1211,-4.1211,-4.1211,-4.1211,-4.1074,-4.0547,-4.0215,-4.0039,-4.0039,-4.0039,-4.0195,-4.0859,-4.0781,-4.0469,-4.0391,-4.0039,-3.9726,-3.9726,-3.9648,-3.9473,-3.9121,-3.9062,-3.8945,-3.8669,-3.8611,-3.8611,-3.8611,-3.8611,-3.8571,-3.8437,-3.8418,-3.8379,-3.8281,-3.7969,-3.7773,-3.7773,-3.7305,-3.6992,-3.6992,-3.6992,-3.6855,-3.6558,-3.6558,-3.6367,-3.6035,-3.5982,-3.5982,-3.5982,-3.5982,-3.5364,-3.4148,-3.3727,-3.1824,-2.0505,-2.259,-2.4645,-2.3965,-2.3582,-2.3355,-2.3191,-2.1733,-2.0597,-2.1106,-2.0067,-1.9595,-2.1263,-2.1328,-2.1869,-2.4131,-2.5391,-2.7148,-3.0215,-3.3164,-3.6133,-3.916,-4.0117,-4.0684,-4.1133,-4.1211,-4.1211,-4.1211,-4.1211,-4.1211,-4.1211,-4.1211,-4.1211,-4.1211,-4.1211,-4.1211,-4.1211,-4.1211,-4.1211,-4.1211,-4.0976,-4.0762,-4.0469,-4.0332,-4.0,-3.957,-3.957,-3.9434,-3.9199,-3.9199,-3.9336,-3.9531,-3.9726,-4.006,-4.0489,-4.0489,-4.0664,-4.0879,-4.0879,-4.1016,-4.1172,-4.0937,-4.1016,-4.1094,-4.0644,-4.0371,-4.0176,-4.0176,-4.0176,-4.0332,-4.1035,-4.0996,-4.082,-4.082,-4.0488,-4.0176,-4.0176,-4.0039,-3.9824,-3.957,-3.9512,-3.9453,-3.9219,-3.918,-3.9101,-3.8887,-3.8867,-3.8789,-3.863,-3.8611,-3.8611,-3.8611,-3.8359,-3.8223,-3.8223,-3.8008,-3.7715,-3.7324,-3.7305,-3.7187,-3.6973,-3.6988,-3.6855,-3.6621,-3.6601,-3.6601,-3.6601,-3.6601,-3.6143,-3.5261,-3.3429,-3.1582,-1.8288,-2.06,-2.3168,-2.3098,-2.2636,-2.2235,-2.2463,-2.0239,-1.8616,-2.0376,-1.8985,-1.8162,-2.0565,-2.0766,-2.1233,-2.3248,-2.5033,-2.796,-3.3082,-3.4941,-3.6836,-3.9668,-4.0371,-4.0762,-4.1172,-4.1211,-4.1211,-4.1211,-4.1211,-4.1211,-4.1211,-4.1211,-4.1211,-4.1211,-4.1211,-4.1211,-4.1211,-4.1211,-4.1211,-4.1211,-4.0723,-4.0488,-4.0372,-3.998,-3.957,-3.9199,0.0,0.0,-3.9316,-3.9316,-3.957,-4.0019,-4.0391,-4.0489,-4.0489,-4.0489,-4.045,-4.043,-4.043,-4.0664,-4.0976,-4.0625,-4.0781,-4.1016,-4.0723,-4.0625,-4.0625,-4.0625,-4.0586,-4.0625,-4.1055,-4.1211,-4.1211,-4.1211,-4.0898,-4.0625,-4.0625,-4.0351,-4.0078,-4.0,-4.0,-3.9961,-3.9902,-3.9902,-3.9766,-3.9375,-3.9316,-3.918,-3.8865,-3.8747,-3.8708,-3.8708,-3.865,-3.8611,-3.8611,-3.8611,-3.8262,-3.7539,-3.75,-3.7461,-3.7402,-3.7324,-3.7305,-3.7305,-3.7305,-3.7305,-3.7305,-3.7305,-3.7183,-3.6833,-3.3165,-3.1314,-1.8344,-1.9488,-2.0386,-1.9934,-2.0937,-2.1575,-1.9853,-1.9057,-1.8682,-1.8648,-1.8334,-1.849,-1.9855,-2.1263,-2.2304,-2.2492,-2.5835,-3.0106,-3.4904,-3.6719,-3.8262,-4.0195,-4.0801,-4.1094,-4.1211,-4.1211,-4.1211,-4.1211,-4.1211,-4.1211,-4.1211,-4.1211,-4.1211,-4.1211,-4.1211,-4.1211,-4.1211,-4.1211,-4.1211,-4.1211,-4.0723,-4.0332,-3.998,-3.9512,-3.9277,-3.9199,0.0,-3.9434,-3.9785,-3.9785,-4.0039,-4.0391,-4.0469,-4.0489,-4.0489,-4.0489,-4.0293,-4.0,-4.0,-4.0039,-4.0137,-4.043,-4.0528,-4.0684,-4.0976,-4.1074,-4.1074,-4.1074,-4.0801,-4.0625,-4.1055,-4.1211,-4.1211,-4.1211,-4.1152,-4.1074,-4.1074,-4.1016,-4.0859,-4.0508,-4.043,-4.0312,-3.9961,-3.9902,-3.9883,-3.9805,-3.9785,-3.9766,-3.9707,-3.9355,-3.9101,-3.9101,-3.8789,-3.8611,-3.8611,-3.8611,-3.8552,-3.8435,-3.8415,-3.8203,-3.7816,-3.748,-3.7305,-3.7305,-3.7305,-3.7305,-3.7305,-3.7305,-3.6589,-3.5212,-3.2827,-3.1012,-1.6221,-1.7783,-1.9167,-1.7909,-1.9051,-2.0343,-1.9779,-1.838,-1.7469,-1.8476,-1.7725,-1.7552,-1.966,-2.0704,-2.1967,-2.4217,-2.7534,-3.1146,-3.4892,-3.6844,-3.8616,-4.0644,-4.1093,-4.1211,-4.1211,-4.1211,-4.1211,-4.1211,-4.1211,-4.1211,-4.1211,-4.1211,-4.1211,-4.1211,-4.1211,-4.1211,-4.1211,-4.0937,-4.082,-4.082,-4.0391,-4.0078,-3.9883,-3.9414,-3.9336,-3.957,0.0,-3.9824,-4.0234,-4.0234,-4.0488,-4.0879,-4.0879,-4.0723,-4.043,-3.998,-3.9687,-3.9492,-3.9258,-3.9648,-4.0234,-4.0195,-4.0488,-4.0918,-4.1113,-4.1211,-4.1211,-4.1211,-4.1035,-4.0918,-4.1152,-4.1211,-4.1211,-4.1211,-4.1211,-4.1211,-4.1211,-4.1211,-4.1152,-4.0918,-4.0879,-4.082,-4.0625,-4.0586,-4.0508,-4.0273,-4.0234,-4.0156,-3.9922,-3.9707,-3.957,-3.957,-3.918,-3.8906,-3.8906,-3.8711,-3.8611,-3.8611,-3.8611,-3.8476,-3.8281,-3.8086,-3.7465,-3.636,-3.6324,-3.5796,-3.4698,-3.4698,-3.4327,-3.3555,-3.1485,-3.0092,-1.4667,-1.6374,-1.8018,-1.6729,-1.77,-1.9169,-1.9893,-1.8065,-1.6787,-1.8765,-1.7767,-1.725,-1.9578,-2.0244,-2.1885,-2.6295,-2.9084,-3.1609,-3.4061,-3.6697,-3.8878,-4.0259,-4.088,-4.1211,-4.1211,-4.1211,-4.1211,-4.1211,-4.1211,-4.1211,-4.1211,-4.1211,-4.1211,-4.1211,-4.1211,-4.1211,-4.1211,-4.084,-4.0625,-4.0527,-4.0098,-3.9902,-3.9883,-3.9531,-3.9609,-4.0039,-4.0039,-4.0293,-4.0684,-4.0684,-4.0879,-4.1211,-4.1211,-4.084,-4.0235,-3.9375,-3.9062,-3.9023,-3.8789,-3.9316,-4.0059,-4.0039,-4.041,-4.0918,-4.1152,-4.1211,-4.1211,-4.1211,-4.1211,-4.1211,-4.1211,-4.1211,-4.1211,-4.1211,-4.1211,-4.1211,-4.1211,-4.1211,-4.1211,-4.1211,-4.1211,-4.1211,-4.1211,-4.1211,-4.1055,-4.0723,-4.0684,-4.0566,-4.0234,-4.0098,-4.0039,-4.0039,-3.9629,-3.9355,-3.9355,-3.8965,-3.873,-3.873,-3.8669,-3.8611,-3.8611,-3.8611,-3.7602,-3.5534,-3.5497,-3.4526,-3.2505,-3.2505,-3.2505,-3.2467,-3.0361,-2.941,-1.5484,-1.5833,-1.6153,-1.6576,-1.752,-1.8469,-1.8906,-1.8212,-1.7822,-1.9104,-1.9004,-1.8854,-1.9362,-2.0578,-2.301,-2.7698,-2.9957,-3.1602,-3.2889,-3.6913,-3.9337,-3.828,-3.9943,-4.1211,-4.1211,-4.1211,-4.1211,-4.1211,-4.1211,-4.1211,-4.1211,-4.1211,-4.1211,-4.1211,-4.1211,-4.1211,-4.1211,-4.1191,-4.0918,-4.0527,-4.0098,-3.9902,-3.9902,-3.9863,-4.0078,-4.0469,-4.0469,-4.0723,-4.1172,-4.1172,-4.1191,-4.1211,-4.1211,-4.0702,-3.9824,-3.8945,-3.865,-3.8708,-3.9023,-3.8965,-3.8943,-4.0098,-4.0254,-4.0137,-4.0976,-4.1211,-4.1211,-4.1211,-4.1211,-4.1211,-4.1211,-4.1211,-4.1211,-4.1211,-4.1211,-4.1211,-4.1211,-4.1211,-4.1211,-4.1211,-4.1211,-4.1211,-4.1211,-4.1211,-4.1211,-4.1133,-4.1172,-4.1152,-4.1132,-4.0723,-4.0469,-4.0469,-4.0098,-3.9844,-3.9844,-3.9414,-3.916,-3.916,-3.8789,-3.8611,-3.8611,-3.8611,-3.7602,-3.5534,-3.5497,-3.4526,-3.2505,-3.2505,-3.2505,-3.2467,-3.0361,-2.941,-1.4901,-1.5394,-1.5995,-1.6819,-1.7579,-1.8242,-1.8775,-1.8945,-1.9239,-2.0241,-2.0361,-2.0374,-2.0699,-2.1502,-2.2909,-2.5452,-2.8094,-3.0209,-3.1245,-3.4189,-3.6656,-3.7762,-3.8627,-3.9688,-4.1055,-4.1211,-4.1211,-4.1211,-4.1211,-4.1211,-4.1211,-4.1211,-4.1211,-4.1211,-4.1211,-4.1211,-4.1211,-4.0898,-4.0684,-4.0489,-4.0371,-4.0273,-4.0273,-4.0273,-4.0527,-4.0918,-4.0918,-4.1016,-4.1211,-4.1211,-4.1211,-4.1152,-4.0586,-4.0176,-3.9824,-3.9199,-3.8965,-3.9023,-3.9473,-3.9707,-3.9863,-4.0313,-4.0605,-4.0781,-4.1113,-4.1211,-4.1211,-4.1211,-4.1211,-4.1211,-4.1211,-4.1211,-4.1211,-4.1211,-4.1211,-4.1211,-4.1211,-4.1211,-4.1211,-4.1211,-4.1211,-4.1211,-4.1211,-4.1211,-4.1211,-4.1211,-4.1211,-4.1211,-4.1211,-4.1035,-4.0918,-4.0918,-4.0547,-4.0176,-3.9922,-3.9726,-3.9629,-3.9629,-3.8965,-3.8611,-3.8611,-3.7345,-3.5701,-3.3662,-3.2375,-3.0731,-2.8725,-2.8725,-2.8725,-2.8686,-2.788,-2.7541,-1.4683,-1.5164,-1.5861,-1.6698,-1.7462,-1.8289,-1.9343,-2.0,-2.0681,-2.1844,-2.1857,-2.1724,-2.197,-2.2365,-2.3033,-2.4035,-2.6992,-2.9225,-2.9475,-3.2098,-3.4718,-3.667,-3.7498,-3.8745,-4.1016,-4.1211,-4.1211,-4.1211,-4.1211,-4.1211,-4.1211,-4.1211,-4.1211,-4.1211,-4.1211,-4.1211,-4.1211,-4.0879,-4.0723,-4.0723,-4.0723,-4.0664,-4.0489,-4.0664,-4.0898,-4.1211,-4.1211,-4.1211,-4.1211,-4.1211,-4.1094,-4.0898,-4.0176,-3.9805,-3.9629,-3.9316,-3.9199,-3.9297,-3.9883,-4.0195,-4.0371,-4.0644,-4.084,-4.0996,-4.1172,-4.1211,-4.1211,-4.1211,-4.1211,-4.1211,-4.1211,-4.1211,-4.1211,-4.1211,-4.1211,-4.1211,-4.1211,-4.1211,-4.1211,-4.1211,-4.1211,-4.1211,-4.1211,-4.1211,-4.1211,-4.1211,-4.1211,-4.1211,-4.1211,-4.1211,-4.1211,-4.1211,-4.0898,-4.0337,-3.9357,-3.9128,-3.8784,-3.8058,-3.7369,-3.7222,-3.7831,-3.6478,-3.4386,-3.159,-3.013,-2.8413,-2.6386,-2.6386,-2.644,-2.6533,-2.6533,-2.6573,-1.5066,-1.52,-1.5551,-1.6163,-1.7194,-1.8583,-2.0624,-2.1381,-2.2104,-2.3848,-2.35,-2.2907,-2.2907,-2.3126,-2.3492,-2.4115,-2.7088,-2.8904,-2.75,-3.1148,-3.4118,-3.4618,-3.6522,-3.8706,-4.0919,-4.1172,-4.1172,-4.1172,-4.1172,-4.1211,-4.1211,-4.1211,-4.1211,-4.1211,-4.1211,-4.1211,-4.1211,-4.1211,-4.1211,-4.1211,-4.1211,-4.0957,-4.0508,-4.0976,-4.1211,-4.1211,-4.1211,-4.1211,-4.1211,-4.1211,-4.0918,-4.045,-4.0059,-3.9609,-3.9199,-3.9199,-3.9199,-3.9336,-4.0215,-4.0254,-4.0039,-4.0937,-4.0879,-4.0567,-4.1035,-4.1211,-4.1211,-4.1211,-4.1211,-4.1211,-4.1211,-4.1211,-4.1211,-4.1211,-4.1211,-4.1211,-4.1211,-4.1211,-4.1211,-4.1211,-4.1211,-4.1211,-4.1211,-4.1211,-4.1211,-4.1211,-4.1211,-4.1211,-4.1211,-4.1211,-4.1172,-4.1172,-4.1172,-4.0275,-3.8054,-3.7496,-3.632,-3.4163,-3.3635,-3.4249,-3.6088,-3.6146,-3.4034,-2.9502,-2.9371,-2.8388,-2.64,-2.64,-2.6547,-2.6787,-2.6787,-2.6987,-1.479,-1.5347,-1.6284,-1.7235,-1.8718,-2.0321,-2.1997,-2.2439,-2.3014,-2.4756,-2.4583,-2.4048,-2.3848,-2.4012,-2.4266,-2.4439,-2.6042,-2.7289,-2.7297,-2.8591,-3.027,-3.213,-3.294,-3.4205,-3.6402,-3.7975,-3.8882,-3.8882,-4.0314,-4.1211,-4.1211,-4.1211,-4.1211,-4.1211,-4.1211,-4.1211,-4.1211,-4.1211,-4.1211,-4.1211,-4.1211,-4.1152,-4.0976,-4.1152,-4.1211,-4.1211,-4.1211,-4.1211,-4.1211,-4.1211,-4.0918,-4.045,-4.0059,-3.9609,-3.9199,-3.9199,-3.9414,-3.9766,-4.0332,-4.0644,-4.0878,-4.1132,-4.1132,-4.0996,-4.1172,-4.1211,-4.1211,-4.1211,-4.1211,-4.1211,-4.1211,-4.1211,-4.1211,-4.1211,-4.1211,-4.1211,-4.1211,-4.1211,-4.1211,-4.1211,-4.1211,-4.1211,-4.1211,-4.1211,-4.1211,-4.1211,-4.1211,-4.1211,-4.1211,-4.1211,-4.0588,-3.904,-3.8882,-3.7975,-3.5822,-3.5519,-3.5187,-3.4527,-3.4404,-3.4296,-3.4227,-3.2826,-3.14,-3.0057,-2.865,-2.7633,-2.7041,-2.7041,-2.7095,-2.7134,-2.7134,-2.7175,-1.5244,-1.6016,-1.71,-1.8277,-1.9639,-2.1189,-2.3126,-2.3741,-2.4289,-2.5585,-2.5304,-2.4796,-2.473,-2.477,-2.4813,-2.4933,-2.5879,-2.668,-2.7041,-2.7348,-2.8483,-3.0962,-3.1239,-3.2145,-3.4473,-3.6642,-3.7896,-3.7896,-3.9943,-4.1211,-4.1211,-4.1211,-4.1211,-4.1211,-4.1211,-4.1211,-4.1211,-4.1211,-4.1211,-4.1211,-4.1211,-4.1211,-4.1211,-4.1211,-4.1211,-4.1211,-4.1211,-4.1211,-4.1211,-4.1211,-4.082,-4.0254,-4.0,-3.9512,-3.8965,-3.9141,-3.9375,-3.9707,-4.0312,-4.0703,-4.0937,-4.1152,-4.1211,-4.1211,-4.1211,-4.1211,-4.1211,-4.1211,-4.1211,-4.1211,-4.1211,-4.1211,-4.1211,-4.1211,-4.1211,-4.1211,-4.1211,-4.1211,-4.1211,-4.1211,-4.1211,-4.1211,-4.1211,-4.1211,-4.1211,-4.1211,-4.1211,-4.088,-3.9982,-3.9903,-3.904,-3.6842,-3.6642,-3.5742,-3.3553,-3.339,-3.3038,-3.2176,-3.2134,-3.1869,-3.1351,-3.0851,-3.0126,-2.9122,-2.7934,-2.7309,-2.7309,-2.7309,-2.7362,-2.7483,-2.7483,-2.7536,-1.611,-1.6939,-1.7956,-1.9241,-2.0298,-2.1657,-2.4106,-2.5093,-2.5678,-2.6266,-2.5758,-2.5277,-2.5504,-2.5358,-2.5277,-2.5518,-2.6239,-2.6747,-2.6814,-2.7054,-2.8084,-3.0392,-3.0665,-3.1559,-3.3791,-3.6138,-3.751,-3.7564,-3.9768,-4.1133,-4.1211,-4.1211,-4.1211,-4.1211,-4.1211,-4.1211,-4.1211,-4.1211,-4.1211,-4.1211,-4.1211,-4.1211,-4.1211,-4.1211,-4.1211,-4.1211,-4.1211,-4.1211,-4.1211,-4.1133,-4.0625,-3.9883,-3.9844,-3.9316,-3.865,-3.9004,-3.916,-3.9316,-4.0176,-4.0488,-4.0586,-4.1035,-4.1211,-4.1211,-4.1211,-4.1211,-4.1211,-4.1211,-4.1211,-4.1211,-4.1211,-4.1211,-4.1211,-4.1211,-4.1211,-4.1211,-4.1211,-4.1211,-4.1211,-4.1211,-4.1211,-4.1211,-4.1211,-4.1211,-4.1211,-4.1211,-4.1055,-4.0197,-3.8134,-3.7737,-3.6762,-3.4611,-3.4408,-3.3512,-3.1324,-3.1117,-3.026,-2.8305,-2.8179,-2.8179,-2.8179,-2.9835,-2.9657,-2.743,-2.7389,-2.7389,-2.7389,-2.7389,-2.7523,-2.7736,-2.7736,-2.7924,-1.5832,-1.6901,-1.837,-2.0267,-2.2098,-2.3768,-2.5037,-2.5424,-2.5678,-2.6266,-2.6239,-2.6052,-2.5931,-2.6038,-2.6052,-2.5931,-2.6213,-2.656,-2.6787,-2.6881,-2.7189,-2.8003,-2.8125,-2.8302,-2.8848,-3.23,-3.4677,-3.4964,-3.8519,-4.082,-4.1191,-4.1211,-4.1211,-4.1211,-4.1211,-4.1211,-4.1211,-4.1211,-4.1211,-4.1211,-4.1211,-4.1211,-4.1211,-4.1211,-4.1211,-4.1211,-4.1211,-4.1211,-4.1191,-4.0801,-4.0351,-3.9863,-3.9492,-3.9023,-3.863,-3.8708,-3.8926,-3.9277,-3.9844,-4.0254,-4.0586,-4.1035,-4.1211,-4.1211,-4.1211,-4.1211,-4.1211,-4.1211,-4.1211,-4.1211,-4.1211,-4.1211,-4.1211,-4.1211,-4.1211,-4.1211,-4.1211,-4.1211,-4.1211,-4.1211,-4.1211,-4.1211,-4.1211,-4.1211,-4.1211,-4.1211,-3.9728,-3.8429,-3.7975,-3.6442,-3.453,-3.234,-3.2093,-3.1241,-2.9076,-2.888,-2.867,-2.8221,-2.8179,-2.8179,-2.8179,-2.8574,-2.8548,-2.8033,-2.7991,-2.7991,-2.7991,-2.7991,-2.8031,-2.8085,-2.8085,-2.8125,-1.6192,-1.7542,-1.9225,-2.1577,-2.3265,-2.4569,-2.517,-2.5411,-2.5598,-2.5905,-2.6186,-2.6346,-2.6225,-2.6332,-2.6333,-2.6225,-2.6293,-2.644,-2.66,-2.6613,-2.672,-2.7014,-2.7054,-2.7108,-2.7296,-3.0235,-3.2618,-3.3803,-3.6,-3.8242,-4.047,-3.9624,-3.9547,-4.0566,-4.0762,-4.0859,-4.0859,-4.1113,-4.1211,-4.1211,-4.1211,-4.1211,-4.1211,-4.1211,-4.1211,-4.1211,-4.1211,-4.1211,-4.1172,-4.0703,-4.0273,-3.9844,-3.9375,-3.8945,-3.8611,-3.8611,-3.8747,-3.9004,-3.9668,-4.0039,-4.0332,-4.0976,-4.1211,-4.1211,-4.1211,-4.1211,-4.1211,-4.1211,-4.1211,-4.1211,-4.1211,-4.1211,-4.1211,-4.1211,-4.1211,-4.1211,-4.1211,-4.1211,-4.1211,-4.1211,-4.0353,-3.961,-3.961,-3.961,-3.9295,-3.8231,-3.7975,-3.7162,-3.5056,-3.3798,-3.2299,-3.0093,-2.9857,-2.9411,-2.8305,-2.8179,-2.8179,-2.8179,-2.8179,-2.8179,-2.8179,-2.8179,-2.8179,-2.8179,-2.8179,-2.8179,-2.8179,-2.8179,-2.8179,-2.8179,-2.8179,-2.8179,-1.6402,-1.8143,-2.0134,-2.2652,-2.3919,-2.4613,-2.4997,-2.5264,-2.5451,-2.5504,-2.5945,-2.6319,-2.6319,-2.636,-2.6386,-2.6386,-2.6386,-2.6386,-2.6386,-2.6386,-2.648,-2.672,-2.6747,-2.6841,-2.7135,-2.9071,-3.1225,-3.3362,-3.3636,-3.5516,-3.9694,-3.7948,-3.7757,-3.9807,-4.0234,-4.041,-4.041,-4.084,-4.1055,-4.1055,-4.1172,-4.1211,-4.1211,-4.1211,-4.1211,-4.1211,-4.1211,-4.1133,-4.1035,-4.0586,-4.0156,-3.9726,-3.9277,-3.8887,-3.8611,-3.8611,-3.8611,-3.8728,-3.959,-3.9902,-4.0039,-4.0937,-4.1211,-4.1211,-4.1211,-4.1211,-4.1211,-4.1211,-4.0919,-4.0646,-4.0646,-4.0353,-4.0079,-4.0079,-4.0079,-4.0275,-4.1055,-4.1211,-4.1094,-4.0685,-3.8843,-3.7339,-3.7339,-3.7339,-3.6762,-3.4975,-3.5863,-3.546,-3.1846,-3.1076,-3.0176,-2.8389,-2.8179,-2.8179,-2.8179,-2.8179,-2.8179,-2.8179,-2.8179,-2.8179,-2.8179,-2.8179,-2.8179,-2.8179,-2.8179,-2.8179,-2.8179,-2.8179,-2.8179,-2.8179,-2.8179,-2.8179,-1.5102,-1.7635,-2.0597,-2.2758,-2.3794,-2.4409,-2.4957,-2.5141,-2.5211,-2.5464,-2.5785,-2.6051,-2.6051,-2.6265,-2.6386,-2.6386,-2.6386,-2.6386,-2.6386,-2.6386,-2.64,-2.644,-2.6453,-2.6466,-2.6507,-2.8347,-3.053,-3.2967,-3.3177,-3.5159,-3.9675,-3.7948,-3.7757,-3.9807,-3.9961,-3.998,-3.998,-4.0391,-4.0567,-4.0605,-4.0996,-4.1211,-4.1211,-4.1211,-4.1211,-4.1211,-4.1211,-4.0957,-4.0586,-4.0156,-3.9707,-3.9258,-3.8828,-3.8669,-3.8611,-3.8611,-3.8611,-3.8728,-3.959,-3.9902,-4.0039,-4.0937,-4.1211,-4.1211,-4.1211,-4.1211,-4.1211,-4.1211,-3.9825,-3.835,-3.835,-3.6962,-3.5557,-3.5557,-3.5557,-3.6602,-4.0392,-4.1211,-4.0646,-3.8706,-3.6602,-3.5137,-3.5137,-3.5137,-3.5016,-3.4732,-3.3308,-3.2052,-3.1475,-2.9774,-2.8516,-2.8221,-2.8179,-2.8179,-2.8179,-2.8179,-2.8179,-2.8179,-2.8179,-2.8179,-2.8179,-2.8179,-2.8179,-2.8179,-2.8179,-2.8179,-2.8179,-2.8179,-2.8179,-2.8179,-2.8179,-2.8179,-1.6126,-1.8396,-2.065,-2.2592,-2.3514,-2.4075,-2.4489,-2.4716,-2.4863,-2.4959,-2.5264,-2.5556,-2.5678,-2.5812,-2.5905,-2.5905,-2.6039,-2.6185,-2.6185,-2.6332,-2.6386,-2.6386,-2.6386,-2.6386,-2.6386,-2.7187,-2.8627,-3.0872,-2.997,-3.1724,-3.7147,-3.5508,-3.5867,-3.9086,-3.9375,-3.9512,-3.9512,-3.9941,-4.0293,-4.0489,-4.0723,-4.0937,-4.1211,-4.1211,-4.1211,-4.1211,-4.1211,-4.0918,-4.0488,-4.0078,-3.9629,-3.916,-3.8787,-3.8611,-3.8611,-3.8611,-3.8611,-3.8728,-3.959,-3.9902,-4.0039,-4.0937,-4.1211,-4.1211,-4.1211,-4.1211,-4.1211,-4.1211,-3.961,-3.7896,-3.7896,-3.6322,-3.4692,-3.4692,-3.4692,-3.5218,-3.7139,-3.7538,-3.6882,-3.4692,-3.3512,-3.2463,-3.1283,-3.2163,-3.2639,-3.1271,-3.139,-3.1158,-2.9802,-2.8796,-2.8179,-2.8179,-2.8179,-2.8179,-2.8179,-2.8179,-2.8179,-2.8179,-2.8179,-2.8179,-2.8179,-2.8179,-2.8179,-2.8179,-2.8179,-2.8179,-2.8179,-2.8179,-2.8179,-2.8179,-2.8179,-2.8179,-1.6435,-1.8196,-1.9706,-2.1697,-2.2786,-2.3434,-2.3875,-2.4226,-2.4492,-2.4492,-2.4756,-2.5037,-2.5213,-2.5411,-2.5518,-2.5518,-2.5692,-2.5877,-2.5877,-2.6131,-2.6279,-2.6279,-2.6346,-2.6386,-2.6386,-2.6386,-2.7227,-2.9255,-2.7541,-2.8827,-3.4451,-3.3322,-3.4131,-3.7695,-3.861,-3.9043,-3.9043,-3.9492,-3.9941,-4.0371,-4.043,-4.0684,-4.1016,-4.1152,-4.1211,-4.1211,-4.1055,-4.0762,-4.0332,-3.9902,-3.9453,-3.9004,-3.8728,-3.8611,-3.8611,-3.8611,-3.8611,-3.8728,-3.959,-3.9902,-4.0039,-4.0937,-4.0802,-4.047,-4.1055,-4.0802,-4.047,-4.1055,-3.961,-3.7777,-3.7241,-3.546,-3.3716,-3.3186,-3.3038,-3.3349,-3.4449,-3.4246,-3.3349,-3.1722,-3.0951,-3.0093,-2.8473,-2.9677,-3.031,-2.8566,-2.9776,-3.0267,-2.8524,-2.8232,-2.8179,-2.8179,-2.8179,-2.8179,-2.8179,-2.8179,-2.8179,-2.8179,-2.8179,-2.8179,-2.8179,-2.8179,-2.8179,-2.8179,-2.8179,-2.8179,-2.8179,-2.8179,-2.8179,-2.8179,-2.8179,-2.8179,-1.4593,-1.5815,-1.7127,-1.969,-2.1229,-2.2298,-2.318,-2.3821,-2.4222,-2.4222,-2.4462,-2.4626,-2.4639,-2.5093,-2.5518,-2.5518,-2.5531,-2.5531,-2.5531,-2.5798,-2.6011,-2.6011,-2.6265,-2.6386,-2.6386,-2.6386,-2.7227,-2.9255,-2.7541,-2.8232,-3.2429,-3.2581,-3.3473,-3.5571,-3.7585,-3.865,-3.865,-3.9023,-3.9473,-3.9941,-4.0332,-4.0489,-4.0528,-4.0976,-4.1211,-4.1191,-4.0742,-4.0312,-3.9902,-3.9434,-3.8984,-3.865,-3.8611,-3.8611,-3.8611,-3.8611,-3.8611,-3.8728,-3.959,-3.9902,-4.0039,-4.0937,-3.9767,-3.8469,-4.0548,-3.9746,-3.8508,-4.0607,-3.961,-3.7419,-3.5379,-3.3227,-3.1076,-2.9006,-2.8558,-2.9648,-3.3798,-3.3063,-3.1516,-3.1433,-2.9774,-2.8347,-2.8221,-2.8318,-2.8426,-2.8537,-2.8464,-2.8426,-2.8551,-2.8366,-2.8179,-2.8179,-2.8179,-2.8179,-2.8179,-2.8179,-2.8179,-2.8179,-2.8179,-2.8179,-2.8179,-2.8179,-2.8179,-2.8179,-2.8179,-2.8179,-2.8179,-2.8179,-2.8179,-2.8179,-2.8179,-2.8179,-1.4063,-1.5177,-1.6422,-1.8329,-1.9823,-2.1042,-2.175,-2.2806,-2.3599,-2.3599,-2.4022,-2.4356,-2.4356,-2.4639,-2.4906,-2.4906,-2.5104,-2.5237,-2.5237,-2.5491,-2.5745,-2.5971,-2.6091,-2.6225,-2.6373,-2.6386,-2.6689,-2.7423,-2.6807,-2.7619,-3.0361,-3.1781,-3.3398,-3.5422,-3.7529,-3.8611,-3.8611,-3.873,-3.9023,-3.9453,-3.9902,-4.0254,-4.0508,-4.0976,-4.1211,-4.1172,-4.043,-4.0039,-3.9883,-3.9726,-3.9219,-3.8611,-3.8611,-3.8611,-3.8611,-3.8611,-3.875,-3.9062,-3.9687,-4.0078,-4.0161,-3.9343,-3.8548,-3.7777,-3.7219,-3.6482,-3.6,-3.6802,-3.6442,-3.5678,-3.4894,-3.3063,-3.0868,-2.8712,-2.8179,-2.8628,-3.0191,-3.0993,-3.0993,-2.9607,-2.8712,-2.8179,-2.8179,-2.8353,-2.8417,-2.8366,-2.8433,-2.8417,-2.8366,-2.8259,-2.8179,-2.8179,-2.8366,-2.8444,-2.8444,-2.8617,-2.8711,-2.8711,-2.8711,-2.8711,-2.8711,-2.8711,-2.8631,-2.8444,-2.8444,-2.8379,-2.8179,-2.8179,-2.8179,-2.8179,-2.8179,-2.8179,-1.3193,-1.4282,-1.5621,-1.7302,-1.8477,-1.9559,-2.0949,-2.1951,-2.2699,-2.3086,-2.3567,-2.3968,-2.4168,-2.4369,-2.4492,-2.4586,-2.4796,-2.493,-2.493,-2.5184,-2.5438,-2.5677,-2.5784,-2.5957,-2.6252,-2.6279,-2.6279,-2.6386,-2.6386,-2.6965,-2.8335,-3.1015,-3.3737,-3.646,-3.7878,-3.8611,-3.8611,-3.8611,-3.8711,-3.9004,-3.9609,-4.0039,-4.0332,-4.0918,-4.1211,-4.1191,-4.0566,-4.0156,-3.9883,-3.957,-3.9101,-3.8611,-3.8611,-3.8611,-3.8611,-3.8611,-3.8848,-3.9277,-3.9726,-4.0176,-4.0356,-3.9321,-3.8015,-3.6682,-3.6,-3.4732,-3.3757,-3.4489,-3.4692,-3.453,-3.3798,-3.197,-2.9982,-2.8558,-2.8179,-2.8179,-2.8179,-2.9328,-2.9899,-2.8473,-2.8179,-2.8179,-2.8179,-2.8353,-2.846,-2.8353,-2.8433,-2.8417,-2.8353,-2.8245,-2.8179,-2.8179,-2.8366,-2.8497,-2.8604,-2.8735,-2.8895,-2.8988,-2.9001,-2.9001,-2.9001,-2.9001,-2.8908,-2.8751,-2.8751,-2.8604,-2.8339,-2.8232,-2.8179,-2.8179,-2.8179,-2.8179,0.0,0.0,0.0,-1.6603,-1.7112,-1.7889,-2.0766,-2.1221,-2.1336,-2.2572,-2.3033,-2.3412,-2.4048,-2.4182,-2.4289,-2.4532,-2.4586,-2.4599,-2.4599,-2.489,-2.5101,-2.5115,-2.5331,-2.5611,-2.5957,-2.5984,-2.6105,-2.636,-2.6373,-2.6373,-2.6386,-3.0284,-3.4356,-3.8465,-3.8611,-3.8611,-3.8611,-3.8611,-3.8611,-3.863,-3.9453,-3.9883,-3.9922,-4.08,-4.1211,-4.1211,-4.1211,-4.0684,-3.9844,-3.9002,-3.865,-3.863,-3.8611,-3.8611,-3.8611,-3.863,-3.8867,-3.9297,-3.9746,-4.0195,-4.0567,-4.0996,-3.8231,-3.5137,-3.7122,-3.4773,-3.1846,-3.392,-3.453,-3.4124,-3.197,-2.9857,-2.8263,-2.8221,-2.8179,-2.8179,-2.8179,-2.8179,-2.8179,-2.8179,-2.8179,-2.8179,-2.8179,-2.8179,-2.8286,-2.8551,-2.8379,-2.8299,-2.8551,-2.8366,-2.8179,-2.8179,-2.8192,-2.8326,-2.8577,-2.8617,-2.8751,-2.8988,-2.9015,-2.9015,-2.9028,-2.9028,-2.9015,-2.9015,-2.9015,-2.8868,-2.8617,-2.8353,-2.8192,-2.8179,-2.8179,-2.8192,-1.2256,0.0,0.0,0.0,0.0,0.0,-1.7434,-1.8184,-1.9011,-2.0628,-2.1331,-2.2031,-2.3081,-2.3629,-2.3981,-2.4275,-2.4466,-2.4599,-2.4599,-2.4666,-2.4836,-2.505,-2.5157,-2.5317,-2.5611,-2.5638,-2.5758,0.0,-2.6118,-2.6212,-2.6373,-3.0284,-3.4356,-3.8465,-3.8611,-3.8611,-3.8611,-3.8611,-3.8611,-3.8611,-3.9121,-3.957,-3.9922,-4.0449,-4.0879,-4.1191,-4.084,-4.0566,-4.0312,-3.9766,-3.9336,-3.9004,-3.8691,-3.8611,-3.865,-3.8926,-3.9316,-3.9766,-4.0195,-4.0625,-4.0763,-3.9297,-3.7975,-3.6562,-3.3961,-3.2381,-3.12,-3.026,-3.1117,-3.2176,-3.1557,-3.0951,-3.0135,-2.8558,-2.8179,-2.8179,-2.8179,-2.8179,-2.8179,-2.8179,-2.8179,-2.8179,-2.8179,-2.8179,-2.8219,-2.8299,-2.8232,-2.8219,-2.8299,-2.8232,-2.8179,-2.8179,-2.8379,-2.8511,-2.8604,-2.8804,-2.9001,-2.9339,-2.9366,-2.9459,-2.9615,-2.9628,-2.9579,-2.9366,-2.9366,-2.9219,-2.8881,-2.8617,-2.8406,-2.8179,-2.8179,-2.8312,-1.2799,-1.3313,-1.4053,-1.4426,0.0,0.0,-1.6819,-1.7327,-1.797,-1.981,-2.0601,-2.1256,-2.2331,-2.2827,-2.3207,-2.3754,-2.3945,-2.4186,-2.4546,-2.4599,-2.4666,-2.4877,-2.489,-2.501,-2.5304,-2.5331,-2.5451,-2.5784,-2.5931,-2.6456,-2.7591,-2.9898,-3.3095,-3.7198,-3.7309,-3.7731,-3.8574,-3.8611,-3.8611,-3.8611,-3.9004,-3.9453,-3.9902,-4.0332,-4.0762,-4.1191,-4.0898,-4.0684,-4.0488,-4.0078,-3.9629,-3.9086,-3.7811,-3.7309,-3.7236,-3.6736,-3.6875,-3.7334,-3.7659,-3.81,-3.8271,-3.6962,-3.6562,-3.5903,-3.2463,-3.1392,-3.0951,-2.8796,-2.9076,-3.0051,-3.0051,-3.0051,-2.9732,-2.8516,-2.8179,-2.8179,-2.8179,-2.8179,-2.8179,-2.8179,-2.8179,-2.8179,-2.8179,-2.8179,-2.8179,-2.8179,-2.8179,-2.8179,-2.8179,-2.8179,-2.8179,-2.8179,-2.8353,-2.8511,-2.8764,-2.8831,-2.9085,-2.9633,-2.9553,-2.9619,-2.99,-2.9913,-2.9833,-2.9673,-2.9659,-2.9513,-2.9219,-2.8925,-2.8698,-2.8511,-2.8511,-2.8617,-1.3507,-1.3948,0.0,0.0,-1.4923,0.0,-1.7382,-1.7461,-1.7515,-1.937,-2.0054,-2.0592,-2.147,-2.1697,-2.2004,-2.2806,-2.3038,-2.3465,-2.4372,-2.4532,-2.4559,-2.4559,-2.4586,-2.4706,-2.501,-2.5037,-2.5157,-2.5438,-2.5784,-2.6945,-2.9219,-2.935,-3.122,-3.5385,-3.5497,-3.6497,-3.8574,-3.8611,-3.8501,-3.8263,-3.8835,-3.9283,-3.9581,-4.0159,-4.0723,-4.1211,-4.1152,-4.0879,-4.045,-4.0019,-3.957,-3.8956,-3.646,-3.5497,-3.529,-3.3588,-3.322,-3.3644,-3.3944,-3.4347,-3.4692,-3.4692,-3.4692,-3.4286,-3.2052,-3.1392,-3.0951,-2.8796,-2.8179,-2.8179,-2.8179,-2.8179,-2.8179,-2.8179,-2.8179,-2.8179,-2.8179,-2.8179,-2.8179,-2.8179,-2.8179,-2.8179,-2.8179,-2.8179,-2.8179,-2.8179,-2.8179,-2.8179,-2.8179,-2.8179,-2.8179,-2.8179,-2.8179,-2.8406,-2.8855,-2.8711,-2.8911,-2.9766,-2.9579,-2.9579,-2.99,-2.9913,-2.9913,-2.9913,-2.9913,-2.9793,-2.9526,-2.9161,-2.9001,-2.9001,-2.9001,-2.9015,-1.4341,-1.4563,-1.4825,-1.4496,0.0,0.0,-1.4647,-1.519,-1.6016,-1.6886,-1.7488,-1.821,-1.9305,-1.9907,-2.0281,-2.0454,-2.1483,-2.2645,-2.3817,-2.4142,-2.4289,-2.4289,-2.4452,-2.4626,-2.4679,-2.4679,-2.485,-2.5144,-2.5438,-2.6627,-2.8969,-2.9098,-3.1058,-3.5385,-3.5497,-3.6497,-3.8574,-3.8611,-3.7768,-3.6109,-3.7881,-3.8267,-3.7471,-3.9222,-4.0449,-4.1191,-4.0801,-4.0605,-4.043,-3.9668,-3.9277,-3.8956,-3.646,-3.5515,-3.5324,-3.3968,-3.3512,-3.3677,-3.4321,-3.4642,-3.4692,-3.4692,-3.4692,-3.4286,-3.2052,-3.1392,-3.0951,-2.8796,-2.8179,-2.8179,-2.8179,-2.8179,-2.8179,-2.8179,-2.8179,-2.8179,-2.8179,-2.8179,-2.8179,-2.8179,-2.8179,-2.8179,-2.8179,-2.8179,-2.8179,-2.8179,-2.8179,-2.8179,-2.8179,-2.8179,-2.8179,-2.8179,-2.8179,-2.8232,-2.8353,-2.8312,-2.8511,-2.9121,-2.9108,-2.9322,-2.99,-2.9913,-2.9913,-2.9913,-2.9913,-2.9887,-2.9833,-2.9255,-2.9001,-2.9001,-2.9001,-2.9121,-1.515,-1.5164,-1.5364,-1.524,0.0,0.0,0.0,-1.5284,-1.5668,-1.6551,-1.6846,-1.722,-1.809,-1.849,-1.8891,-1.9492,-2.0441,-2.1416,-2.2311,-2.334,-2.3981,-2.3981,-2.4115,-2.4262,-2.4409,-2.4386,-2.4596,-2.505,-2.5211,-2.5867,-2.7173,-2.7419,-2.8954,-3.217,-3.3409,-3.4993,-3.7032,-3.7032,-3.6534,-3.5497,-3.6571,-3.6979,-3.6877,-3.8937,-4.0234,-4.084,-4.0625,-4.0235,-3.9824,-3.9394,-3.9082,-3.8664,-3.6386,-3.5641,-3.5535,-3.2911,-3.211,-3.221,-3.1638,-3.1448,-3.1448,-3.1448,-3.2176,-3.2669,-3.0468,-2.9815,-2.9565,-2.8516,-2.8179,-2.8179,-2.8179,-2.8179,-2.8179,-2.8179,-2.8179,-2.8179,-2.8179,-2.8179,-2.8179,-2.8179,-2.8179,-2.8179,-2.8179,-2.8179,-2.8179,-2.8179,-2.8179,-2.8179,-2.8179,-2.8179,-2.8179,-2.8179,-2.8179,-2.8245,-2.8406,-2.8419,-2.8631,-2.9219,-2.9259,-2.9459,-2.99,-2.9913,-2.9913,-2.9913,-2.9913,-2.9913,-2.9913,-2.9619,-2.9428,-2.9428,-2.9428,-2.9553,0.0,-1.6182,-1.6382,0.0,0.0,-1.5762,0.0,0.0,0.0,-1.6524,-1.6565,-1.662,-1.7141,-1.7248,-1.7555,-1.8558,-1.9265,-1.9877,-2.041,-2.1911,-2.3067,-2.3348,-2.3536,-2.3723,-2.3915,-2.3888,-2.4155,-2.4863,-2.4756,-2.4877,-2.5398,-2.6128,-2.7294,-2.8955,-3.1663,-3.385,-3.546,-3.5497,-3.5311,-3.49,-3.4971,-3.5435,-3.6282,-3.8348,-3.9718,-4.0469,-4.0313,-3.9863,-3.9199,-3.9121,-3.8647,-3.7805,-3.5738,-3.5186,-3.5099,-3.1161,-2.9998,-3.0156,-2.8687,-2.8179,-2.8179,-2.8179,-2.937,-3.0468,-2.8712,-2.8179,-2.8179,-2.8179,-2.8179,-2.8179,-2.8179,-2.8179,-2.8179,-2.8179,-2.8179,-2.8179,-2.8179,-2.8179,-2.8179,-2.8179,-2.8179,-2.8179,-2.8179,-2.8179,-2.8179,-2.8179,-2.8179,-2.8179,-2.8179,-2.8179,-2.8179,-2.8179,-2.8179,-2.8286,-2.8497,-2.8524,-2.8764,-2.9366,-2.9392,-2.9553,-2.99,-2.9913,-2.9913,-2.9913,-2.9913,-2.9913,-2.9913,-2.9913,-2.9913,-2.9913,-2.9913,-2.9913,0.0,0.0,0.0,0.0,-1.7382,0.0,0.0,0.0,-1.5936,-1.5003,0.0,-1.5645,-1.5941,0.0,0.0,-1.6182,-1.7154,-1.7996,-1.8316,-1.9239,-2.0378,-2.1689,-2.2519,-2.3014,-2.3041,-2.2779,-2.3086,-2.4222,-2.3603,-2.3736,-2.5064,-2.7135,-2.852,-2.8993,-3.3006,-3.5274,-3.5497,-3.5497,-3.4601,-3.2847,-3.3087,-3.3531,-3.4205,-3.6089,-3.8248,-4.0469,-3.9687,-3.9297,-3.918,-3.8845,-3.7549,-3.5664,-3.3624,-3.3026,-3.2812,-2.9048,-2.7811,-2.8109,-2.8156,-2.8179,-2.8179,-2.8179,-2.8347,-2.8516,-2.8263,-2.8179,-2.8179,-2.8179,-2.8179,-2.8179,-2.8179,-2.8179,-2.8179,-2.8179,-2.8179,-2.8179,-2.8179,-2.8179,-2.8179,-2.8179,-2.8179,-2.8179,-2.8179,-2.8179,-2.8179,-2.8179,-2.8179,-2.8179,-2.8179,-2.8179,-2.8179,-2.8179,-2.8179,-2.8205,-2.8232,-2.8232,-2.85,-2.9001,-2.9041,-2.9295,-2.99,-2.9913,-2.9913,-2.9913,-2.9913,-2.9913,-2.9913,-2.9913,-2.9913,-2.9913,-2.9913,-2.9913,0.0,0.0,0.0,0.0,0.0,0.0,-1.5965,0.0,-1.5671,0.0,0.0,0.0,0.0,0.0,0.0,0.0,-1.6526,-1.7114,-1.7222,-1.7889,-1.8906,-2.0391,-2.0739,-2.1127,-2.1777,-2.2044,-2.2512,-2.3402,-2.2913,-2.3113,-2.4298,-2.6632,-2.768,-2.6992,-3.113,-3.2914,-3.1978,-3.194,-3.1536,-3.0708,-3.1012,-3.195,-3.342,-3.4416,-3.6015,-3.7912,-3.6348,-3.5531,-3.5299,-3.5139,-3.4544,-3.3566,-3.1738,-3.1948,-3.2973,-3.0095,-2.9396,-2.9673,-2.8587,-2.8179,-2.8179,-2.8179,-2.8179,-2.8179,-2.8179,-2.8179,-2.8179,-2.8179,-2.8179,-2.8179,-2.8179,-2.8179,-2.8179,-2.8179,-2.8179,-2.8179,-2.8179,-2.8179,-2.8179,-2.8179,-2.8179,-2.8179,-2.8179,-2.8179,-2.8179,-2.8179,-2.8179,-2.8179,-2.8179,-2.8179,-2.8179,-2.8179,-2.8179,-2.8179,-2.8179,-2.8353,-2.8524,-2.8735,-2.9112,-2.9486,-2.99,-2.9913,-2.9913,-2.9913,-2.9913,-2.9913,-2.9913,-2.9913,-2.9913,-2.9913,-2.9913,-2.9913,-1.9156,0.0,0.0,0.0,0.0,0.0,0.0,0.0,0.0,0.0,0.0,0.0,0.0,0.0,0.0,0.0,0.0,-1.6435,-1.6435,-1.662,-1.7328,-1.8891,-1.9172,-1.9639,-2.0655,-2.0922,-2.1475,-2.2465,-2.2004,-2.2311,-2.3736,-2.6106,-2.6836,-2.5529,-2.9645,-3.1334,-3.0246,-2.9666,-2.9711,-3.0345,-2.9557,-3.066,-3.337,-3.302,-3.4166,-3.6376,-3.406,-3.2934,-3.2748,-3.2649,-3.232,-3.1779,-3.0484,-3.0828,-3.1782,-3.0192,-2.9989,-3.0301,-2.8754,-2.8179,-2.8179,-2.8179,-2.8179,-2.8179,-2.8179,-2.8179,-2.8179,-2.8179,-2.8179,-2.8179,-2.8179,-2.8179,-2.8179,-2.8179,-2.8179,-2.8179,-2.8179,-2.8179,-2.8179,-2.8179,-2.8179,-2.8179,-2.8179,-2.8179,-2.8179,-2.8179,-2.8179,-2.8179,-2.8179,-2.8179,-2.8179,-2.8179,-2.8179,-2.8179,-2.8179,-2.8393,-2.8524,-2.8604,-2.9165,-2.9579,-2.9793,-2.9873,-2.9913,-2.9913,-2.9913,-2.9913,-2.9913,-2.9913,-2.9913,-2.9913,-2.9913,-2.9913,0.0,0.0,0.0,-1.8583,0.0,0.0,0.0,0.0,-1.658,0.0,0.0,0.0,0.0,0.0,0.0,0.0,0.0,0.0,0.0,-1.5114,-1.5271,-1.7072,-1.8237,-1.9143,-1.9786,-1.9092,-1.9468,-2.1475,-2.0565,-2.1015,-2.3669,-2.5982,-2.6699,-2.5554,-2.972,-3.2126,-3.2391,-3.04,-3.0554,-3.2746,-2.9111,-2.9737,-3.4074,-3.1897,-3.321,-3.7111,-3.4203,-3.3076,-3.3355,-3.301,-3.1904,-3.035,-3.0325,-2.9294,-2.789,-2.7807,-2.7994,-2.8305,-2.8221,-2.8179,-2.8179,-2.8179,-2.8179,-2.8179,-2.8179,-2.8179,-2.8179,-2.8179,-2.8179,-2.8179,-2.8179,-2.8179,-2.8179,-2.8179,-2.8179,-2.8179,-2.8179,-2.8179,-2.8179,-2.8179,-2.8179,-2.8179,-2.8179,-2.8179,-2.8179,-2.8179,-2.8179,-2.8179,-2.8179,-2.8179,-2.8179,-2.8179,-2.8179,-2.8179,-2.8179,-2.8192,-2.8326,-2.8591,-2.9165,-2.9486,-2.9499,-2.9766,-2.9913,-2.9913,-2.9913,-2.9913,-2.9913,-2.9913,-2.9913,-2.9913,-2.9913,-2.9913,0.0,0.0,-2.193,-1.9746,0.0,0.0,0.0,0.0,0.0,0.0,0.0,0.0,0.0,0.0,0.0,0.0,0.0,0.0,0.0,0.0,-1.4287,-1.5284,-1.662,-1.7609,-1.8036,-1.8317,-1.9025,-2.0294,-2.0027,-2.0695,-2.2766,-2.5195,-2.6126,-2.5259,-2.8102,-2.9238,-2.8491,-2.7762,-2.7878,-2.8849,-2.7797,-2.8829,-3.1549,-2.9617,-3.0199,-3.2555,-3.02,-2.9263,-2.9336,-2.9018,-2.8523,-2.8008,-2.8217,-2.7962,-2.7483,-2.7629,-2.7924,-2.8179,-2.8179,-2.8179,-2.8179,-2.8179,-2.8179,-2.8179,-2.8179,-2.8179,-2.8179,-2.8179,-2.8179,-2.8179,-2.8179,-2.8179,-2.8179,-2.8179,-2.8179,-2.8179,-2.8179,-2.8179,-2.8179,-2.8179,-2.8179,-2.8179,-2.8179,-2.8179,-2.8179,-2.8179,-2.8179,-2.8179,-2.8179,-2.8179,-2.8179,-2.8179,-2.8179,-2.8179,-2.8179,-2.8179,-2.8312,-2.8591,-2.8978,-2.9272,-2.9472,-2.9766,-2.9913,-2.9913,-2.9913,-2.9913,-2.9913,-2.9913,-2.9913,-2.9913,-2.9913,-2.9913,-2.2913,-2.3033,0.0,-2.094,-2.0311,0.0,-1.7903,0.0,0.0,0.0,0.0,0.0,0.0,0.0,0.0,0.0,0.0,0.0,0.0,-1.3788,0.0,-1.4301,-1.5471,-1.6526,-1.726,-1.7287,-1.7862,-1.9372,-1.9092,-1.976,0.0,-2.3905,-2.5003,-2.4914,-2.6523,-2.7411,-2.7449,-2.6768,-2.6931,-2.8035,-2.7527,-2.8492,-3.0617,-2.8731,-2.8923,-3.0561,-2.8385,-2.7523,-2.759,-2.7148,-2.7094,-2.7295,-2.7388,-2.7523,-2.7643,-2.7831,-2.8018,-2.8179,-2.8179,-2.8179,-2.8179,-2.8179,-2.8179,-2.8179,-2.8179,-2.8179,-2.8179,-2.8179,-2.8259,-2.8353,-2.8353,-2.8419,-2.8457,-2.8457,-2.8457,-2.8457,-2.8457,-2.8419,-2.8353,-2.8353,-2.8259,-2.8179,-2.8179,-2.8179,-2.8179,-2.8179,-2.8179,-2.8179,-2.8179,-2.8179,-2.8179,-2.8179,-2.8179,-2.8179,-2.8179,-2.8179,-2.8272,-2.843,-2.8724,-2.9018,-2.9312,-2.9606,-2.9806,-2.9913,-2.9913,-2.9913,-2.9913,-2.9913,-2.9913,-2.9913,-2.9913,-2.9913]},{"header":{"parameterUnit":"m.s-1","parameterCategory":1,"la1":30.6,"la2":29.2853,"lo1":-89.7004,"lo2":-87.6739,"dy":0.0162,"dx":0.0183,"nx":112,"ny":82,"refTime":"2026-03-28T00:00:00:Z","depth":0,"parameterNumber":3,"parameterNumberName":"V-component_of_WINDS"},"data":[0.0,0.0,0.0,0.0,0.0,0.0,0.0,0.0,0.0,0.0,0.0,0.0,0.0,0.0,0.0,0.0,0.0,0.0,0.0,0.0,0.0,0.0,0.0,0.0,0.0,0.0,0.0,0.0,0.0,0.0,0.0,0.0,0.0,0.0,0.0,0.0,0.0,0.0,0.0,0.0,0.0,0.0,0.0,0.0,0.0,0.0,0.0,0.0,0.0,0.0,0.0,0.0,0.0,0.0,0.0,0.0,0.0,0.0,0.0,0.0,0.0,0.0,0.0,0.0,0.0,0.0,0.0,0.0,0.0,0.0,0.0,0.0,0.0,0.0,0.0,0.0,0.0,0.0,0.0,0.0,0.0,0.0,0.0,0.0,0.0,0.0,0.0,0.0,0.0,0.0,2.2902,2.4982,2.8413,3.0791,3.1326,3.0033,2.7849,2.4777,0.0,0.0,0.0,0.0,0.0,0.0,0.0,0.0,0.0,0.0,0.0,0.0,0.0,0.0,0.0,0.0,0.0,0.0,0.0,0.0,0.0,0.0,0.0,0.0,0.0,0.0,0.0,0.0,0.0,0.0,0.0,0.0,0.0,0.0,0.0,0.0,0.0,0.0,0.0,0.0,0.0,0.0,0.0,0.0,0.0,0.0,0.0,0.0,0.0,0.0,0.0,0.0,0.0,0.0,0.0,0.0,0.0,0.0,0.0,0.0,0.0,0.0,0.0,0.0,0.0,0.0,0.0,0.0,0.0,0.0,0.0,0.0,0.0,0.0,0.0,0.0,0.0,0.0,0.0,0.0,0.0,0.0,0.0,0.0,0.0,0.0,0.0,0.0,0.0,0.0,0.0,0.0,0.0,0.0,0.0,0.0,0.0,0.0,0.0,0.0,0.0,0.0,0.0,0.0,2.3154,2.7825,3.0619,3.193,3.1367,3.0506,2.8956,2.6387,0.0,0.0,0.0,0.0,0.0,0.0,0.0,0.0,0.0,0.0,0.0,0.0,0.0,0.0,0.0,0.0,0.0,0.0,0.0,0.0,0.0,0.0,0.0,0.0,0.0,0.0,0.0,0.0,0.0,0.0,0.0,0.0,0.0,0.0,0.0,0.0,0.0,0.0,0.0,0.0,0.0,0.0,0.0,0.0,0.0,0.0,0.0,0.0,0.0,0.0,0.0,0.0,0.0,0.0,0.0,0.0,0.0,0.0,0.0,0.0,0.0,0.0,0.0,0.0,0.0,0.0,0.0,0.0,0.0,0.0,0.0,0.0,0.0,0.0,0.0,0.0,0.0,0.0,0.0,0.0,0.0,0.0,0.0,0.0,0.0,0.0,0.0,0.0,0.0,0.0,0.0,0.0,0.0,0.0,0.0,0.0,0.0,0.0,0.0,0.0,0.0,0.0,0.0,2.3139,2.532,2.9822,3.1605,3.2386,3.2032,3.0895,2.9176,2.6754,2.2749,0.0,0.0,0.0,0.0,0.0,0.0,0.0,0.0,0.0,0.0,0.0,0.0,0.0,0.0,0.0,0.0,0.0,0.0,0.0,0.0,0.0,0.0,0.0,0.0,0.0,0.0,0.0,0.0,0.0,0.0,0.0,0.0,0.0,0.0,0.0,0.0,0.0,0.0,0.0,0.0,0.0,0.0,0.0,0.0,0.0,0.0,0.0,0.0,0.0,0.0,0.0,0.0,0.0,0.0,0.0,0.0,0.0,0.0,0.0,0.0,0.0,0.0,0.0,0.0,0.0,0.0,0.0,0.0,0.0,0.0,0.0,0.0,0.0,0.0,0.0,0.0,0.0,0.0,0.0,0.0,0.0,0.0,0.0,0.0,0.0,0.0,0.0,0.0,0.0,0.0,0.0,0.0,0.0,0.0,0.0,0.0,0.0,0.0,0.0,0.0,0.0,0.0,2.6209,2.7911,3.1173,3.2265,3.2747,3.2732,3.1187,2.9323,2.7304,2.2969,0.0,0.0,0.0,0.0,0.0,0.0,0.0,0.0,0.0,0.0,0.0,0.0,0.0,0.0,0.0,0.0,0.0,0.0,0.0,0.0,0.0,0.0,0.0,0.0,0.0,0.0,0.0,0.0,0.0,0.0,0.0,0.0,0.0,0.0,0.0,0.0,0.0,0.0,0.0,0.0,0.0,0.0,0.0,0.0,0.0,0.0,0.0,0.0,0.0,0.0,0.0,0.0,0.0,0.0,0.0,0.0,0.0,0.0,0.0,0.0,0.0,0.0,0.0,0.0,0.0,0.0,0.0,0.0,0.0,0.0,0.0,0.0,0.0,0.0,0.0,0.0,0.0,0.0,0.0,0.0,0.0,0.0,0.0,0.0,0.0,0.0,0.0,0.0,0.0,0.0,0.0,0.0,0.0,0.0,0.0,0.0,0.0,0.0,0.0,0.0,0.0,0.0,2.8035,3.0314,3.1704,3.2853,3.3402,3.3181,3.1339,2.98,2.8871,2.3588,0.0,0.0,0.0,0.0,0.0,0.0,0.0,0.0,0.0,0.0,0.0,0.0,0.0,0.0,0.0,0.0,0.0,0.0,0.0,0.0,0.0,0.0,0.0,0.0,0.0,0.0,0.0,0.0,0.0,0.0,0.0,0.0,0.0,0.0,0.0,0.0,0.0,0.0,0.0,0.0,0.0,0.0,0.0,0.0,0.0,0.0,0.0,0.0,0.0,0.0,0.0,0.0,0.0,0.0,0.0,0.0,0.0,0.0,0.0,0.0,0.0,0.0,0.0,0.0,0.0,0.0,0.0,0.0,0.0,0.0,0.0,0.0,0.0,0.0,0.0,0.0,0.0,0.0,0.0,0.0,0.0,0.0,0.0,0.0,0.0,0.0,0.0,0.0,0.0,0.0,0.0,0.0,0.0,0.0,0.0,0.0,0.0,0.0,0.0,0.0,0.0,0.0,2.8121,3.0521,3.3388,3.3644,3.3786,3.4273,3.2261,3.0393,2.9091,0.0,0.0,0.0,0.0,0.0,0.0,0.0,0.0,0.0,0.0,0.0,0.0,0.0,0.0,0.0,0.0,0.0,0.0,0.0,0.0,0.0,0.0,0.0,0.0,0.0,0.0,0.0,0.0,0.0,0.0,0.0,0.0,0.0,0.0,0.0,0.0,0.0,0.0,0.0,0.0,0.0,0.0,0.0,0.0,0.0,0.0,0.0,0.0,0.0,0.0,0.0,0.0,0.0,0.0,0.0,0.0,0.0,0.0,0.0,0.0,0.0,0.0,0.0,0.0,0.0,0.0,0.0,0.0,0.0,0.0,0.0,0.0,0.0,0.0,0.0,0.0,0.0,0.0,0.0,0.0,0.0,0.0,0.0,0.0,0.0,0.0,0.0,0.0,0.0,0.0,0.0,0.0,0.0,0.0,0.0,0.0,0.0,0.0,0.0,0.0,0.0,0.0,2.659,2.8798,3.1215,3.4239,3.442,3.4455,3.4746,3.27,3.0613,2.8736,0.0,0.0,0.0,0.0,0.0,0.0,0.0,0.0,0.0,0.0,0.0,0.0,0.0,0.0,0.0,0.0,0.0,0.0,0.0,0.0,0.0,0.0,0.0,0.0,0.0,0.0,0.0,0.0,0.0,0.0,0.0,0.0,0.0,0.0,0.0,0.0,0.0,0.0,0.0,0.0,0.0,0.0,0.0,0.0,0.0,0.0,0.0,0.0,0.0,0.0,0.0,0.0,0.0,0.0,0.0,0.0,0.0,0.0,0.0,0.0,0.0,0.0,0.0,0.0,0.0,0.0,0.0,0.0,0.0,0.0,0.0,0.0,0.0,0.0,0.0,0.0,0.0,0.0,0.0,0.0,0.0,0.0,0.0,0.0,0.0,0.0,0.0,0.0,0.0,0.0,0.0,0.0,0.0,0.0,0.0,0.0,0.0,0.0,0.0,0.0,0.0,0.0,2.7418,3.0446,3.2791,3.3987,3.5184,3.5448,3.4391,3.2538,3.0393,0.0,0.0,0.0,0.0,0.0,0.0,0.0,0.0,0.0,0.0,0.0,0.0,0.0,0.0,0.0,0.0,0.0,0.0,0.0,0.0,0.0,0.0,0.0,0.0,0.0,0.0,0.0,0.0,0.0,0.0,0.0,0.0,0.0,0.0,0.0,0.0,0.0,0.0,0.0,0.0,0.0,0.0,0.0,0.0,0.0,0.0,0.0,0.0,0.0,0.0,0.0,0.0,0.0,0.0,0.0,0.0,0.0,0.0,0.0,0.0,0.0,0.0,0.0,0.0,0.0,0.0,0.0,0.0,0.0,0.0,0.0,0.0,0.0,0.0,0.0,0.0,0.0,0.0,0.0,0.0,0.0,0.0,0.0,0.0,0.0,0.0,0.0,0.0,0.0,0.0,0.0,0.0,0.0,0.0,0.0,0.0,0.0,0.0,0.0,0.0,0.0,0.0,0.0,2.8256,3.1224,3.3778,3.5527,3.5526,3.5331,3.5146,3.3059,3.0843,2.8786,0.0,0.0,0.0,0.0,0.0,0.0,0.0,0.0,0.0,0.0,0.0,0.0,0.0,0.0,0.0,0.0,0.0,0.0,0.0,0.0,0.0,0.0,0.0,0.0,0.0,0.0,0.0,0.0,0.0,0.0,0.0,0.0,0.0,0.0,0.0,0.0,0.0,0.0,0.0,0.0,0.0,0.0,0.0,0.0,0.0,0.0,0.0,0.0,0.0,0.0,0.0,0.0,0.0,0.0,0.0,0.0,0.0,0.0,0.0,0.0,0.0,0.0,0.0,0.0,0.0,0.0,0.0,0.0,0.0,0.0,0.0,0.0,0.0,0.0,0.0,0.0,0.0,0.0,0.0,0.0,0.0,0.0,0.0,0.0,0.0,0.0,0.0,0.0,0.0,0.0,0.0,0.0,0.0,0.0,0.0,0.0,0.0,0.0,0.0,0.0,0.0,0.0,2.9034,3.2273,3.4964,3.6803,3.6469,3.6107,3.6131,3.4104,3.1764,2.9178,0.0,0.0,0.0,0.0,0.0,0.0,0.0,0.0,0.0,0.0,0.0,0.0,0.0,0.0,0.0,0.0,0.0,0.0,0.0,0.0,0.0,0.0,0.0,0.0,0.0,0.0,0.0,0.0,0.0,0.0,0.0,0.0,0.0,0.0,0.0,0.0,0.0,0.0,0.0,0.0,0.0,0.0,0.0,0.0,0.0,0.0,0.0,0.0,0.0,0.0,0.0,0.0,0.0,0.0,0.0,0.0,0.0,0.0,0.0,0.0,0.0,0.0,0.0,0.0,0.0,0.0,0.0,0.0,0.0,0.0,0.0,0.0,0.0,0.0,0.0,0.0,0.0,0.0,0.0,0.0,0.0,0.0,0.0,0.0,0.0,0.0,0.0,0.0,0.0,0.0,0.0,0.0,0.0,0.0,0.0,0.0,0.0,0.0,0.0,0.0,0.0,0.0,2.9726,3.3311,3.6186,3.7741,3.7683,3.7412,3.7052,3.5384,3.2862,2.9375,0.0,0.0,0.0,0.0,0.0,0.0,0.0,0.0,0.0,0.0,0.0,0.0,0.0,0.0,0.0,0.0,0.0,0.0,0.0,0.0,0.0,0.0,0.0,0.0,0.0,0.0,0.0,0.0,0.0,0.0,0.0,0.0,0.0,0.0,0.0,0.0,0.0,0.0,0.0,0.0,0.0,0.0,0.0,0.0,0.0,0.0,0.0,0.0,0.0,0.0,0.0,0.0,0.0,0.0,0.0,0.0,0.0,0.0,0.0,0.0,3.2374,2.9837,0.0,0.0,0.0,0.0,0.0,0.0,0.0,0.0,0.0,0.0,0.0,0.0,0.0,0.0,0.0,0.0,0.0,0.0,0.0,0.0,0.0,0.0,0.0,0.0,0.0,0.0,0.0,0.0,0.0,0.0,0.0,0.0,0.0,0.0,0.0,0.0,0.0,0.0,0.0,0.0,2.9726,3.3311,3.6186,3.7741,3.786,3.7467,3.6541,3.5531,3.3609,3.0519,2.727,0.0,0.0,0.0,0.0,0.0,0.0,0.0,0.0,0.0,0.0,0.0,0.0,0.0,0.0,0.0,0.0,0.0,0.0,0.0,0.0,0.0,0.0,0.0,0.0,0.0,0.0,0.0,0.0,0.0,0.0,0.0,0.0,0.0,0.0,0.0,0.0,0.0,0.0,0.0,0.0,0.0,0.0,0.0,0.0,0.0,0.0,0.0,0.0,0.0,0.0,0.0,0.0,0.0,0.0,0.0,0.0,0.0,0.0,0.0,3.7922,3.5442,0.0,0.0,0.0,0.0,0.0,0.0,0.0,0.0,0.0,0.0,0.0,0.0,0.0,0.0,0.0,0.0,0.0,0.0,0.0,0.0,0.0,0.0,0.0,0.0,0.0,0.0,0.0,0.0,0.0,0.0,0.0,0.0,0.0,0.0,0.0,0.0,0.0,0.0,0.0,0.0,3.0784,3.4393,3.7268,3.8802,3.8633,3.8272,3.7961,3.6557,3.4795,3.2705,2.944,0.0,0.0,0.0,0.0,0.0,0.0,0.0,0.0,0.0,0.0,0.0,0.0,0.0,0.0,0.0,0.0,0.0,0.0,0.0,0.0,0.0,0.0,0.0,0.0,0.0,0.0,0.0,0.0,0.0,0.0,0.0,0.0,0.0,0.0,0.0,0.0,0.0,0.0,0.0,0.0,0.0,0.0,0.0,0.0,0.0,0.0,0.0,0.0,0.0,0.0,0.0,0.0,0.0,4.6312,4.7124,4.6563,4.7158,4.7868,4.8308,4.4471,4.2577,4.1948,3.9119,0.0,0.0,0.0,0.0,0.0,0.0,0.0,0.0,0.0,0.0,0.0,0.0,0.0,0.0,0.0,0.0,0.0,0.0,0.0,0.0,0.0,0.0,0.0,0.0,3.5949,3.516,3.0697,0.0,0.0,0.0,0.0,0.0,0.0,0.0,0.0,0.0,0.0,0.0,3.2114,3.5757,3.8599,3.9977,3.9559,3.9314,3.9571,3.7862,3.617,3.4789,3.1898,2.9155,0.0,0.0,0.0,0.0,0.0,0.0,0.0,0.0,0.0,0.0,0.0,0.0,0.0,0.0,0.0,0.0,0.0,0.0,0.0,0.0,0.0,0.0,0.0,0.0,0.0,0.0,0.0,0.0,0.0,0.0,0.0,0.0,3.2374,3.278,0.0,0.0,0.0,0.0,0.0,0.0,0.0,0.0,0.0,0.0,0.0,0.0,0.0,4.4059,4.4823,4.8259,5.0017,5.0051,5.2993,5.4312,5.4245,5.4346,5.4786,5.5412,5.4177,0.0,4.5887,4.349,0.0,0.0,0.0,0.0,0.0,0.0,0.0,0.0,0.0,0.0,0.0,0.0,0.0,0.0,0.0,0.0,0.0,0.0,0.0,0.0,0.0,0.0,3.9906,3.9466,3.9432,3.9162,0.0,3.4043,3.0176,2.7689,2.6793,0.0,0.0,0.0,0.0,0.0,0.0,0.0,3.2949,3.6535,3.9186,4.0011,4.0011,3.9731,3.9149,3.881,3.7604,3.5196,3.3972,3.215,2.955,2.7542,0.0,0.0,0.0,0.0,0.0,0.0,0.0,0.0,0.0,0.0,0.0,0.0,0.0,0.0,0.0,0.0,0.0,0.0,0.0,0.0,0.0,0.0,0.0,0.0,0.0,0.0,0.0,0.0,0.0,3.2983,3.6231,3.543,3.7043,3.7077,0.0,0.0,0.0,0.0,0.0,0.0,0.0,0.0,0.0,4.6737,4.8646,5.0338,5.1928,5.4346,5.5361,5.5006,5.7171,5.7746,5.6934,5.7356,5.7728,5.7999,5.7273,5.5683,5.3315,4.8951,4.5635,4.2983,0.0,0.0,0.0,0.0,3.8971,3.9276,4.2138,4.2388,4.1386,4.1217,0.0,0.0,0.0,0.0,0.0,0.0,0.0,0.0,0.0,0.0,4.2679,4.3639,4.3876,4.3538,4.2401,3.9986,3.6896,0.0,3.1925,3.0606,2.7139,0.0,0.0,0.0,0.0,3.278,3.5024,3.7449,3.9288,4.0011,4.0113,3.9977,3.966,3.9254,3.8526,3.7354,3.5578,3.4183,3.3345,3.0581,2.8285,0.0,0.0,0.0,0.0,0.0,0.0,0.0,0.0,0.0,0.0,0.0,0.0,0.0,0.0,0.0,0.0,0.0,0.0,0.0,0.0,0.0,0.0,0.0,0.0,0.0,0.0,0.0,0.0,3.6468,3.958,3.8103,4.0865,4.136,0.0,0.0,0.0,0.0,0.0,0.0,4.6462,4.8139,5.027,5.2841,5.4397,5.6089,5.7915,5.9235,5.9708,5.9336,6.0452,6.0486,5.9607,6.0182,6.0433,6.0366,5.9438,5.937,5.9419,5.3619,4.9965,4.7733,4.5263,4.3606,4.2848,4.4302,4.4621,4.479,4.8342,4.8849,4.7767,4.6868,4.5041,4.2557,3.9196,0.0,0.0,0.0,0.0,4.0616,4.3727,4.4559,4.4978,4.6684,4.6921,4.6496,4.5413,4.4553,4.2544,0.0,3.6591,3.5306,3.164,0.0,0.0,0.0,0.0,3.5148,3.6851,3.8374,3.9491,4.0045,4.0113,4.0113,4.0113,3.9592,3.9186,3.9005,3.716,3.6032,3.5834,3.3247,3.1121,2.9589,0.0,0.0,0.0,0.0,0.0,0.0,0.0,0.0,0.0,0.0,0.0,0.0,0.0,0.0,0.0,0.0,0.0,0.0,0.0,0.0,0.0,0.0,0.0,0.0,0.0,0.0,0.0,0.0,0.0,4.117,4.4877,0.0,0.0,0.0,0.0,4.5181,4.7361,4.956,5.1792,5.4042,5.5936,5.7527,5.8998,6.0182,6.1061,6.1839,6.255,6.3207,6.3274,6.3646,6.4275,6.4309,6.4309,6.4241,6.2787,6.2197,6.1806,5.6546,5.4313,5.3873,5.0861,4.9677,4.9541,4.8951,4.9154,4.983,5.0777,5.1032,5.1066,5.1725,4.9018,4.55,4.5249,4.3152,0.0,0.0,4.4133,4.5655,4.7278,4.7684,4.7718,4.7819,4.7327,4.68,4.6699,4.6109,4.4437,0.0,3.9297,3.8307,3.6694,0.0,3.6175,3.5374,3.6625,3.7719,3.7843,3.9119,4.0079,4.0113,4.0113,4.0113,4.0113,4.0079,3.9762,3.9051,3.886,3.7835,3.5712,3.5132,3.3698,3.1145,2.9048,0.0,0.0,0.0,0.0,0.0,0.0,0.0,0.0,0.0,0.0,0.0,0.0,0.0,0.0,0.0,0.0,0.0,0.0,0.0,0.0,0.0,0.0,0.0,0.0,0.0,0.0,0.0,0.0,4.6278,4.9763,0.0,4.7259,4.7819,4.907,5.0608,5.3213,5.548,5.7239,5.9032,6.0486,6.1467,6.1989,6.2651,6.3429,6.3666,6.3937,6.4208,6.4208,6.4343,6.4613,6.4613,6.4613,6.458,6.4038,6.3802,6.3599,6.0757,5.8475,5.658,5.5006,5.3822,5.3027,5.3247,5.3179,5.3078,5.3839,5.3771,5.3348,5.3145,5.1336,4.9138,4.868,4.7462,4.6346,4.6853,4.7733,4.8748,4.9747,5.0017,5.0017,5.0017,4.9458,4.8797,4.8308,4.7631,4.6568,4.4756,4.3017,4.1191,3.9276,3.9309,3.9208,3.799,3.9073,4.0189,4.0663,4.1183,4.1318,4.0865,4.0798,4.0608,4.0146,4.0113,4.0011,3.9728,3.8802,3.8054,3.7556,3.6021,3.4637,3.3485,3.2084,2.9604,0.0,0.0,0.0,0.0,0.0,0.0,0.0,0.0,0.0,0.0,0.0,0.0,0.0,0.0,0.0,0.0,0.0,0.0,0.0,0.0,0.0,0.0,0.0,0.0,0.0,4.6225,5.0135,5.0135,5.3653,5.5108,5.2604,5.3247,5.4481,5.6021,5.8152,5.9945,6.1197,6.2448,6.3463,6.4241,6.4458,6.4986,6.5696,6.5967,6.6136,6.6102,6.5831,6.5696,6.5696,6.5459,6.5358,6.5324,6.5087,6.4952,6.4884,6.3632,6.1941,6.0013,5.849,5.7306,5.6494,5.6984,5.69,5.6494,5.6713,5.6325,5.5599,5.4837,5.3585,5.2266,5.1775,5.1082,5.0541,5.0541,5.0879,5.1352,5.1844,5.1776,5.1573,5.1573,5.1014,5.027,4.9526,4.8984,4.8342,4.7361,4.5553,4.3727,4.2239,4.2185,4.1914,4.0663,4.1339,4.2049,4.2252,4.23,4.2117,4.161,4.1339,4.1001,4.0506,4.0235,4.0113,4.0113,3.8949,3.8304,3.8357,3.6423,3.5078,3.4501,3.3311,3.1203,2.8062,0.0,0.0,0.0,0.0,0.0,0.0,0.0,0.0,0.0,0.0,0.0,0.0,0.0,0.0,0.0,0.0,0.0,0.0,0.0,0.0,0.0,0.0,0.0,4.4818,4.9271,5.2553,5.2655,5.6494,5.8573,5.7137,5.8303,5.9757,6.1264,6.2076,6.2821,6.3545,6.4309,6.5019,6.5784,6.6508,6.7197,6.7929,6.8707,6.9113,6.9079,6.8301,6.7929,6.7895,6.7184,6.6825,6.6791,6.6034,6.5751,6.5683,6.4952,6.4647,6.4343,6.1366,6.0182,6.0182,6.0148,6.0114,6.0013,5.9284,5.8558,5.7866,5.7103,5.5886,5.4719,5.4685,5.416,5.3585,5.3585,5.3585,5.3551,5.3551,5.2976,5.2367,5.2334,5.1776,5.1032,5.0304,5.015,4.9695,4.8259,4.6805,4.5805,4.5737,4.5142,4.4364,4.3592,4.3457,0.0,4.2455,4.2367,4.2367,4.2333,4.1711,4.1271,4.1204,4.054,4.0113,4.0079,3.9356,3.8633,3.791,3.6445,3.5174,3.4234,3.2756,3.1451,3.0302,0.0,0.0,0.0,0.0,0.0,0.0,0.0,0.0,0.0,0.0,0.0,0.0,0.0,0.0,0.0,0.0,0.0,0.0,0.0,0.0,0.0,4.6481,4.939,4.939,5.2976,5.6393,5.8592,6.0892,6.2091,6.1685,6.2023,6.2429,6.2868,6.4072,6.5121,6.5844,6.6609,6.7354,6.8132,6.8368,6.8571,6.8774,6.8977,6.9113,6.9113,6.8876,6.8774,6.8741,6.7963,6.759,6.7557,6.6812,6.6508,6.644,6.5696,6.5392,6.5189,6.3328,6.2245,6.1704,6.1163,6.0588,6.008,5.9877,5.9674,5.937,5.8626,5.7746,5.6885,5.6359,5.5683,5.509,5.509,5.509,5.4955,5.4431,5.4126,5.3822,5.3315,5.257,5.1961,5.1725,5.1285,5.0642,4.9695,4.8748,4.7767,4.6684,4.5872,4.5331,4.508,4.4621,0.0,4.3992,4.3958,4.3755,4.3152,4.2916,4.2374,4.1305,4.1001,4.0426,3.9356,3.8599,3.8113,3.7922,3.6975,3.6502,3.6572,3.3951,3.2504,0.0,0.0,0.0,0.0,0.0,0.0,0.0,0.0,0.0,0.0,0.0,0.0,0.0,0.0,0.0,0.0,0.0,0.0,0.0,0.0,0.0,0.0,5.1285,5.4465,5.5716,5.7509,5.9674,6.2347,6.3984,6.4999,6.5324,6.5641,6.5865,6.5865,6.6643,6.732,6.776,6.8166,6.8605,6.9079,6.9383,6.9553,6.9553,6.9891,7.0026,7.0026,6.9722,6.9553,6.9519,6.8741,6.8402,6.8368,6.759,6.7252,6.7218,6.6474,6.617,0.0,0.0,0.0,0.0,0.0,6.1738,6.1028,6.0723,6.0588,6.0486,5.9708,5.8964,5.8287,5.7848,5.7205,5.6562,5.624,5.6139,5.5969,5.5243,5.5074,5.4871,5.4126,5.3585,5.3078,5.2435,5.1945,5.1438,5.071,4.9965,0.0,4.8323,4.7056,4.6143,4.6143,4.5819,4.5413,4.5108,4.5074,4.4756,4.3978,4.3592,4.3051,4.2205,4.1847,0.0,0.0,0.0,3.8418,3.7483,3.7021,0.0,0.0,0.0,0.0,0.0,0.0,0.0,0.0,3.2045,3.1672,0.0,0.0,0.0,0.0,0.0,0.0,0.0,0.0,0.0,0.0,0.0,0.0,0.0,0.0,0.0,0.0,5.5953,5.9456,6.2448,6.2347,6.2651,6.4613,6.617,6.732,6.7963,6.8673,6.9113,6.9113,6.9113,6.9147,6.9214,6.9214,0.0,0.0,0.0,7.0297,7.0297,7.0973,7.1289,7.1289,7.0635,7.0297,7.0297,6.9553,6.9214,6.918,6.8368,6.7996,6.7861,6.7184,6.6859,6.6656,6.5256,6.4681,6.4512,6.3849,6.3159,6.2415,6.1772,0.0,0.0,6.0486,5.981,5.925,5.9148,5.8626,5.79,5.7239,5.7002,5.6765,5.6003,5.5834,5.5631,5.4905,5.4702,5.4329,5.2875,5.257,5.23,5.1472,5.0811,5.032,5.0236,4.8391,4.6921,4.6921,4.6868,4.6549,4.5906,4.5838,4.5534,4.4804,0.0,0.0,4.3423,4.2794,4.2049,4.1271,4.0582,3.9331,3.7371,3.7303,3.7501,3.7903,3.849,3.9602,4.1339,4.2122,4.2482,4.2348,3.6413,3.5275,0.0,0.0,0.0,0.0,0.0,0.0,0.0,0.0,0.0,0.0,0.0,0.0,0.0,0.0,0.0,5.5378,5.9066,6.255,6.5527,6.5831,6.5899,6.6318,6.7726,6.8707,6.8842,6.9011,6.9113,6.9113,6.9113,6.935,6.9958,7.0014,7.0263,7.085,7.1007,7.1109,7.1109,7.1244,7.1289,7.1289,0.0,0.0,7.1075,7.0331,7.0014,6.9947,6.918,6.8504,6.7895,6.776,6.7354,6.669,6.5831,6.5121,6.458,6.4444,6.3937,6.3294,6.3105,6.2685,6.2042,6.1298,6.096,6.0723,6.008,5.937,0.0,5.8607,5.8152,5.7509,5.6799,5.6596,5.6393,5.5665,5.5496,5.5243,5.4329,5.416,5.3754,5.2367,5.1961,5.1691,5.11,4.9138,4.7684,4.7684,4.7192,4.6766,4.6631,4.6597,4.6278,4.5568,4.535,4.4742,4.3524,4.3288,4.2611,4.1258,4.1056,4.0798,4.0358,4.0358,4.0375,4.0488,4.0038,4.0197,4.0986,4.1644,4.2476,4.345,4.1387,4.0744,0.0,0.0,0.0,0.0,0.0,0.0,0.0,0.0,0.0,0.0,0.0,4.6568,4.9593,0.0,5.5784,5.952,6.2347,6.4816,6.7049,6.803,6.8368,6.7996,6.8944,6.9654,6.9654,6.9992,7.0195,7.0195,7.0195,7.0364,7.0737,7.0737,7.0939,7.1289,7.1289,7.1289,7.1289,7.1289,7.1289,7.1289,7.1289,7.1289,7.1289,7.0939,7.0737,7.0703,6.9958,6.9417,6.8977,6.8233,6.7692,6.7286,6.6542,6.5797,6.5155,6.5155,6.4681,6.4072,6.4072,6.3565,6.2888,6.2496,6.1907,6.1231,6.0825,6.0182,5.9573,5.9573,5.9032,5.8355,5.8017,5.7645,5.7171,5.6427,5.624,5.6055,5.531,5.4871,5.438,5.3585,5.2841,5.2198,5.1826,5.0525,4.9442,4.9052,4.8376,4.7767,4.7394,4.7361,4.7056,4.6346,4.6244,4.594,4.5162,4.4418,4.3504,4.2374,4.1948,4.1745,4.1745,4.1745,4.1745,4.1745,4.1745,4.2048,4.2628,4.3628,4.4613,4.5606,4.5386,4.5104,0.0,0.0,0.0,0.0,0.0,0.0,0.0,4.3179,4.4959,4.753,4.9138,5.1235,5.5175,5.7103,5.9404,6.3274,6.5155,6.6643,6.8132,6.9417,6.9958,6.9383,6.9958,7.0398,7.0398,7.0973,7.1289,7.1289,7.1289,7.1289,7.1289,7.1289,7.1289,7.1289,7.1289,7.1289,7.1289,7.1289,7.1289,7.1289,7.1289,7.1289,7.1289,7.1289,7.1289,7.1255,7.05,7.0217,7.0116,6.8707,6.803,6.7827,6.7252,6.6576,6.5899,6.5899,6.5425,6.4816,6.4816,6.4343,6.368,6.3545,6.2719,6.1704,6.1569,6.096,6.0317,6.0317,5.981,5.9216,5.9216,5.866,5.7949,5.7374,5.7137,5.6799,5.6071,5.5446,5.4938,5.4651,5.3585,5.2706,5.257,5.1911,5.1167,5.0405,4.9695,4.9018,4.8394,4.8191,4.7819,4.709,4.7022,4.6955,4.6819,4.5717,4.4736,4.4099,4.3504,4.3166,4.3166,4.3166,4.3166,4.3166,4.3775,4.4334,4.4876,4.6067,4.6921,4.7476,4.8239,4.8117,4.1542,3.9681,3.966,4.2807,4.3301,4.4742,0.0,5.1995,5.2198,5.5802,5.7205,5.8337,6.0216,6.1752,6.3362,6.5155,6.6677,6.8199,6.9744,7.0116,7.0184,7.0116,7.0737,7.1176,7.1176,7.1255,7.1289,7.1289,7.1289,7.1289,7.1289,7.1289,7.1289,7.1289,7.1289,7.1289,7.1289,7.1289,7.1289,7.1289,7.1289,7.1289,7.1289,7.1289,7.1289,7.1255,7.05,7.0217,7.015,6.9316,6.8538,6.7895,6.7793,6.732,6.6677,6.6677,6.6203,6.5581,6.5581,6.5087,6.4377,6.3714,6.3376,6.3139,6.2482,6.1772,6.1163,6.1163,6.0588,5.9979,5.9979,5.9438,5.8844,5.8776,5.8254,5.7577,5.6833,5.6596,5.6156,5.4837,5.4482,5.4126,5.3484,5.2706,5.1928,5.1201,5.0439,4.9947,4.9864,4.9289,4.8597,4.7853,4.7785,4.7515,4.6853,4.6665,4.653,4.6413,4.6346,4.6293,4.6293,4.6293,4.6293,4.6293,4.6394,4.6457,4.651,4.7217,4.7598,4.7704,4.896,4.9054,4.6278,4.5297,4.5297,4.7308,4.9187,5.1472,5.5074,5.5716,5.6359,5.9268,6.0452,6.1434,6.2956,6.4072,6.5256,6.6745,6.7895,6.8977,7.0026,7.0217,7.0048,6.962,6.9823,7.0195,7.0635,7.0669,7.0838,7.1255,7.1289,7.1289,7.1289,7.1289,7.1289,7.1289,7.1289,7.1289,7.1289,7.1289,7.1289,7.1289,7.1289,7.1289,7.1289,7.1289,7.1289,7.1289,7.0973,7.0838,7.077,7.0026,6.9519,6.918,6.8774,6.8132,6.7387,6.696,6.6588,6.6339,6.6339,6.5865,6.5189,6.4884,6.4208,6.3443,6.3125,6.2516,6.1941,6.1941,6.14,6.0791,6.0791,6.0216,5.9539,5.9115,5.8743,5.8355,5.7577,5.7103,5.663,5.5987,5.5547,5.5006,5.4262,5.3856,5.3382,5.2655,5.1505,5.0744,5.0744,5.0101,4.9357,4.8597,4.8529,4.8225,4.7496,4.7447,4.7259,4.6834,4.68,4.68,4.68,4.68,4.68,4.68,4.68,4.68,4.68,4.7416,4.7713,4.774,4.9067,4.9506,4.8342,4.868,4.9695,5.1251,5.416,5.6984,5.8355,5.9066,6.0013,6.2076,6.2922,6.37,6.4986,6.5628,6.6474,6.7996,6.8707,6.9417,7.0364,7.0161,6.962,6.8876,6.8402,6.8436,6.918,6.9845,7.0398,7.0973,7.1188,7.1289,7.1289,7.1289,7.1289,7.1289,7.1289,7.1289,7.1289,7.1289,7.1289,7.1289,7.1289,7.1289,7.1289,7.1289,7.1289,7.1289,7.1289,7.1289,7.1255,7.0737,7.0364,7.015,6.962,6.891,6.8132,6.7387,6.696,6.6791,6.6791,6.644,6.5967,6.5784,6.4986,6.4072,6.3849,6.3294,6.2685,6.2685,6.2178,6.1603,6.1603,6.1028,6.0317,5.9757,5.9453,5.9099,5.8355,5.778,5.7306,5.69,5.6393,5.5767,5.504,5.4905,5.4634,5.3923,5.2841,5.1979,5.1573,5.0879,5.0202,4.9645,4.9627,4.9375,4.8868,4.8631,4.8274,4.7733,4.753,4.7394,4.7394,4.7394,4.7394,4.7394,4.7394,4.7394,4.7394,4.7854,4.8062,4.8105,4.9235,4.9877,4.6196,4.7902,5.0947,5.4617,5.7221,5.9656,6.2632,6.3308,6.3768,6.5277,6.5581,6.5831,6.6588,6.6757,6.7286,6.8808,6.9079,6.962,7.1052,7.006,6.8842,6.803,6.6677,6.6068,6.6825,6.891,7.0217,7.0251,7.0906,7.1289,7.1289,7.1289,7.1289,7.1289,7.1289,7.1289,7.1289,7.1289,7.1289,7.1289,7.1289,7.1289,7.1289,7.1289,7.1289,7.1289,7.1289,7.1289,7.1289,7.1255,7.0838,7.0217,7.0184,6.9688,6.8977,6.8166,6.7421,6.6791,6.6791,6.6791,6.6643,6.5933,6.5683,6.5514,6.4783,6.4072,6.3477,6.3477,6.2956,6.2367,6.2367,6.1806,6.1264,6.1231,6.0622,5.9877,5.9115,5.8945,5.8506,5.707,5.6799,5.6528,5.58,5.5665,5.5428,5.4668,5.455,5.3957,5.2469,5.1607,5.1167,5.1133,5.1133,5.1133,5.11,5.0439,5.0015,5.0015,4.9323,4.8951,4.8951,4.8951,4.8951,4.8951,4.8951,4.8951,4.8951,4.8932,4.8948,4.8963,4.9668,5.0375,4.956,5.1928,5.4583,5.7814,6.0298,6.2496,6.4512,6.4952,6.5087,6.5615,6.4918,6.4174,6.3937,6.3869,6.4512,6.6508,6.7658,6.9011,7.1019,7.0466,6.918,6.7387,6.6745,6.6136,6.5425,6.6914,6.8571,7.0116,7.0432,7.077,7.1255,7.1289,7.1289,7.1289,7.1289,7.1289,7.1289,7.1289,7.1289,7.1289,7.1289,7.1289,7.1289,7.1289,7.1289,7.1289,7.1289,7.1289,7.1289,7.1289,7.1154,7.0939,7.0939,7.0466,6.9789,6.9519,6.8605,6.7455,6.696,6.6791,6.6757,6.6508,6.6102,6.5649,6.5412,6.4816,6.414,6.3646,6.3308,6.3024,6.2516,6.2231,6.1907,6.1434,6.1095,6.0689,5.9911,5.9351,5.8844,5.8337,5.7848,5.7306,5.6562,5.6427,5.619,5.5428,5.4499,5.3484,5.2435,5.2097,5.1742,5.1235,5.1201,5.1201,5.1201,5.0964,5.0845,5.0845,5.0592,5.0457,5.0457,5.0457,5.0457,5.0457,5.0457,5.0457,5.0457,5.0457,5.0457,5.0489,5.1683,5.2378,5.257,5.5158,5.766,6.0892,6.3024,6.4613,6.5831,6.5865,6.5547,6.5019,6.3734,6.2395,6.1366,6.096,6.1724,6.4444,6.5933,6.7692,7.05,7.0026,6.8842,6.7387,6.6745,6.6034,6.5087,6.6102,6.7658,6.9654,7.0026,7.05,7.1255,7.1289,7.1289,7.1289,7.1289,7.1289,7.1289,7.1289,7.1289,7.1289,7.1289,7.1176,7.0906,7.0906,7.077,7.0511,7.0511,7.0511,7.0511,7.0804,7.077,7.0545,7.1086,7.0838,7.0217,7.0217,6.9553,6.8571,6.7557,6.6994,6.6791,6.6791,6.6474,6.6102,6.6102,6.5561,6.4884,6.441,6.4106,6.3734,6.299,6.2787,6.2618,6.1873,6.167,6.1467,6.0689,6.0182,5.9742,5.9453,5.8795,5.8152,5.7679,5.7171,5.663,5.6139,5.5056,5.3991,5.3213,5.2875,5.257,5.208,5.2013,5.2013,5.2013,5.1742,5.1573,5.1573,5.1336,5.1201,5.1201,5.1201,5.1201,5.1201,5.1201,5.1201,5.1201,5.1201,5.1201,5.1233,5.217,5.2909,5.5124,5.7559,6.0129,6.3768,6.5222,6.5933,6.6588,6.617,6.5189,6.3666,6.2076,6.0486,5.8878,5.8084,5.8896,6.2598,6.4038,6.5933,6.9676,6.8977,6.8064,6.7963,6.6711,6.5852,6.5818,6.644,6.7523,6.9045,6.9755,7.0466,7.1255,7.1289,7.1289,7.1289,7.1289,7.1289,7.1289,7.1289,7.1289,7.1222,7.1222,7.0872,7.0128,7.0128,6.9755,6.9113,6.9113,6.9113,6.9147,6.9857,6.9722,6.9248,7.0613,7.077,7.0217,7.0217,7.0217,7.0014,6.847,6.7489,6.6859,6.6791,6.6791,6.6791,6.6791,6.6305,6.5751,6.5717,6.5189,6.4478,6.3748,6.3511,6.3308,6.2618,6.2434,6.2212,6.1501,6.1332,6.1061,6.0317,5.9554,5.9047,5.9013,5.7848,5.69,5.6867,5.624,5.5496,5.4735,5.4059,5.3619,5.3551,5.3551,5.3551,5.3518,5.2807,5.2367,5.2367,5.1708,5.1336,5.1336,5.1336,5.1336,5.1336,5.1336,5.1336,5.1336,5.1336,5.1336,5.1302,5.1351,5.2127,5.8186,6.1028,6.3531,6.5019,6.5967,6.644,6.6068,6.5392,6.414,6.1501,5.849,5.5683,5.3568,5.3974,5.5649,5.8795,6.2753,6.6563,6.9744,7.0331,7.0026,6.891,6.847,6.7996,6.7387,6.7523,6.8267,6.9789,6.9586,6.9958,7.1222,7.1289,7.1289,7.1289,7.1289,7.1289,7.1289,7.1289,7.1041,7.0466,7.0466,7.0094,6.9383,6.9383,6.9282,6.9113,6.9113,6.9113,6.9113,6.9316,6.9282,6.9147,6.9519,6.9891,7.0217,7.0217,7.0217,7.006,6.9113,6.8267,6.7523,6.696,6.6791,6.6791,6.6791,6.6656,6.6406,6.5831,6.5561,6.5256,6.4512,6.3903,6.3443,6.324,6.2787,6.2367,6.2144,6.167,6.1231,6.1028,6.0351,5.9641,5.9081,5.8675,5.8254,5.7679,5.7002,5.624,5.5496,5.5259,5.4938,5.4363,5.4329,5.4093,5.3551,5.3315,5.3179,5.3179,5.3044,5.2892,5.2892,5.2892,5.2892,5.2892,5.2892,5.2892,5.2892,5.2892,5.2892,5.2909,5.3476,5.3941,6.167,6.4038,6.573,6.6474,6.6745,6.6271,6.4241,6.2922,6.1028,5.7036,5.4025,5.1454,4.9206,5.0304,5.2706,5.6325,6.1028,6.5527,6.918,7.0364,7.05,6.9688,6.9586,6.9282,6.8504,6.8707,6.9248,7.015,6.9823,7.0094,7.1222,7.1289,7.1289,7.1289,7.1289,7.1289,7.1289,7.1289,7.1086,7.0669,7.0669,7.0128,6.9113,6.9113,6.8741,6.8098,0.0,6.8098,6.8132,6.8436,6.8368,6.8166,6.8842,6.9147,6.9248,6.9947,7.0217,7.0128,6.9722,6.9282,6.8673,6.7265,6.6791,6.6791,6.6791,6.6791,6.669,6.6305,6.617,6.6,6.5256,6.4783,6.4309,6.3646,6.3173,6.2787,6.2468,6.2076,6.167,6.1366,6.0926,6.0385,5.9588,5.9216,5.8844,5.8457,5.7746,5.7137,5.6731,5.6105,5.553,5.5141,5.5074,5.4938,5.4481,5.4448,5.4448,5.4448,5.4448,5.4448,5.4448,5.4448,5.4448,5.4448,5.4448,5.4448,5.4448,5.4448,5.4448,5.4465,5.4904,5.5453,6.4884,6.6373,6.7117,6.7726,6.7286,6.5696,6.1975,5.9791,5.7085,5.1844,4.9526,4.7767,4.5635,4.721,5.0338,5.482,5.9404,6.3971,6.847,6.9722,7.0251,7.0331,7.0353,7.0094,6.9451,6.9958,7.0353,7.0353,7.0353,7.0635,7.1255,7.1289,7.1289,7.1289,7.1289,7.1289,7.1289,7.1289,7.1255,7.1154,7.1154,7.0432,6.9113,6.8977,6.8199,6.6927,6.6825,6.6791,6.6859,6.7489,6.7387,6.6927,6.8267,6.8436,6.8064,6.9519,7.0116,7.0217,7.0217,7.0217,6.9857,6.7793,6.7028,6.6927,6.6927,6.6859,6.6791,6.6791,6.6791,6.6656,6.6,6.5764,6.5378,6.4106,6.3714,6.3463,6.2719,6.2468,6.2212,6.1569,6.1467,6.1197,6.0385,5.9742,5.925,5.9148,5.8524,5.8069,5.8069,5.6833,5.5936,5.5868,5.5834,5.58,5.5699,5.5699,5.5699,5.5699,5.5699,5.5699,5.5699,5.5699,5.5699,5.5699,5.5699,5.5699,5.5699,5.5699,5.5699,5.5699,5.5699,5.6453,6.5933,6.7151,6.7726,6.7861,6.688,6.4918,6.1163,5.8201,5.4786,4.9544,4.6819,4.4871,4.3213,4.5737,4.9544,5.4059,5.9084,6.3971,6.847,6.9722,7.0432,7.1041,7.1109,7.1075,7.0917,7.1019,7.1109,7.1109,7.1109,7.1176,7.1289,7.1289,7.1289,7.1289,7.1289,7.1289,7.1289,7.1289,7.1007,7.0398,7.0398,6.9925,6.9079,6.8402,6.7963,6.7692,6.7083,0.0,6.6791,6.6927,6.6914,6.6825,6.7096,6.7489,6.7996,6.8944,6.9688,7.0217,7.0217,7.0217,7.0026,6.9011,6.8267,6.7726,6.7726,6.7286,6.6791,6.6791,6.6791,6.6757,6.6622,6.617,6.5649,6.5358,6.485,6.4208,6.3477,6.2821,6.2367,6.2212,6.2212,6.1975,6.1231,6.0994,6.0689,6.0013,5.9302,5.881,5.881,5.8051,5.7273,5.6664,5.663,5.6341,5.5767,5.5699,5.5699,5.5699,5.5699,5.5699,5.5699,5.5699,5.5699,5.5699,5.5699,5.5699,5.5699,5.5699,5.5699,5.5699,5.5699,5.584,6.7286,6.8267,6.8504,6.8504,6.7083,6.4208,5.8524,5.4938,5.1066,4.508,4.2692,4.1454,4.0709,4.3301,4.6906,5.1014,5.5108,5.9742,6.5392,6.6812,6.8132,7.0466,7.1075,7.1289,7.1289,7.1289,7.1289,7.1289,7.1289,7.1289,7.1289,7.1289,7.1289,7.1289,7.1289,7.1289,7.1289,7.1289,7.112,7.077,7.077,7.0398,6.9654,6.9248,6.8876,6.847,6.7726,6.7387,6.7354,6.696,6.6791,6.6791,6.6791,6.6994,6.7489,6.8673,6.9316,6.9722,7.05,7.077,7.0703,7.0364,6.9451,6.8436,6.803,6.7658,6.7286,6.6893,6.6791,6.6791,6.6791,6.6542,6.617,6.5764,6.5121,6.4512,6.414,6.3497,6.2956,6.2956,6.2651,6.2299,6.1941,6.1535,6.1163,6.0791,6.008,5.9573,5.9573,5.9268,5.8626,5.7476,5.7374,5.7239,5.6867,5.6833,5.6833,5.6833,5.6833,5.6833,5.6833,5.6833,5.6833,5.6833,5.6833,5.6833,5.6833,5.6833,5.6833,5.6833,5.6833,5.7065,6.7793,6.8707,6.8842,6.8842,6.7015,6.3362,5.6224,5.2029,4.7767,4.1225,3.9276,3.8802,3.8983,4.1271,4.4437,4.8376,5.1522,5.5784,6.2327,6.4174,6.617,6.9755,7.0838,7.1289,7.1289,7.1289,7.1289,7.1289,7.1289,7.1289,7.1289,7.1289,7.1289,7.1289,7.1289,7.1289,7.1289,7.1289,7.1289,7.1289,7.1289,7.1007,7.0432,7.0263,6.9857,6.9282,6.8504,6.8064,6.7861,6.7286,6.6927,6.6791,6.6791,6.6791,6.6994,6.8538,6.9113,6.9316,7.0782,7.1289,7.1289,7.1289,7.0432,6.9214,6.8571,6.8267,6.7996,6.7252,6.7028,6.6994,6.6825,6.6791,6.6656,6.6068,6.5358,6.485,6.485,6.4275,6.3748,6.3748,6.3159,6.2618,6.2618,6.2009,6.1535,6.1535,6.0858,6.0351,6.0351,6.0216,5.9674,5.8509,5.8355,5.8355,5.8355,5.8355,5.8287,5.8152,5.8118,5.8051,5.79,5.79,5.79,5.79,5.79,5.79,5.79,5.79,5.79,5.79,5.79,5.8262,6.6203,6.7523,6.7996,6.7996,6.5831,6.2091,5.5987,5.1251,4.6399,4.0358,3.8497,3.8227,3.8882,4.0865,4.3842,4.8274,5.1522,5.5615,6.1637,6.4295,6.6745,6.9845,7.0838,7.1289,7.1289,7.1289,7.1289,7.1289,7.1289,7.1289,7.1289,7.1289,7.1289,7.1289,7.1289,7.1289,7.1289,7.1289,7.1289,7.1289,7.1289,7.1255,7.1176,7.05,7.0184,7.0082,6.9316,6.8571,0.0,6.7827,6.7421,6.6791,6.6791,6.6791,6.6994,6.8538,6.9113,6.9316,7.0782,7.1289,7.1289,7.1289,7.077,7.0116,7.0014,6.9519,6.8808,6.803,6.7793,6.7658,6.696,6.6791,6.6757,6.6724,6.6136,6.5615,6.5615,6.5019,6.4512,6.4512,6.3883,6.3409,6.3409,6.2787,6.2299,6.2299,6.167,6.1197,6.1197,6.0554,6.0047,5.9911,5.9911,5.9911,5.9911,5.9911,5.9607,5.8945,5.8912,5.8592,5.7934,5.79,5.79,5.79,5.79,5.79,5.79,5.79,5.79,5.79,5.79,5.7936,6.5324,6.7015,6.7793,6.7354,6.5019,6.1163,5.4753,4.9796,4.5012,3.9478,3.7369,3.6896,3.8125,3.9073,4.0832,4.4384,4.5602,4.8173,5.416,5.6512,5.9742,6.5493,6.7624,6.9294,7.112,7.1289,7.1289,7.1289,7.1289,7.1289,7.1289,7.1289,7.1289,7.1289,7.1289,7.1289,7.1289,7.1289,7.1289,7.1289,7.1289,7.1289,7.1289,7.1007,7.0872,7.0804,6.962,6.918,0.0,6.8267,6.7996,6.8132,6.7658,6.776,6.8267,6.8876,6.9383,6.9891,7.0939,7.1289,7.1289,7.1289,7.1109,7.077,7.0331,6.9992,6.9586,6.8842,6.8605,6.8436,6.7658,6.7151,6.6791,6.6791,6.6576,6.6373,6.6373,6.5764,6.5256,6.5256,6.4681,6.4174,6.4174,6.3565,6.3057,6.3057,6.2415,6.1941,6.1941,6.167,6.1467,6.1467,6.0655,6.0114,6.0114,6.0114,5.9979,5.9674,5.9674,5.9539,5.9235,5.9201,5.9201,5.9201,5.9201,5.9201,5.9201,5.9201,5.9201,5.9201,5.9201,5.9201,6.3822,6.5797,6.6812,6.6305,6.3768,5.981,5.3737,4.8714,4.393,3.8937,3.6659,3.6073,3.7606,3.791,3.879,4.1542,4.2083,4.4113,4.9661,5.1894,5.5344,6.1719,6.4255,6.6609,6.9383,7.0647,7.1289,7.1289,7.1289,7.1289,7.1289,7.1289,7.1289,7.1289,7.1289,7.1289,7.1289,7.1289,7.1289,7.1289,7.1289,7.1289,7.1289,7.1289,7.1289,7.1222,7.0195,6.9925,0.0,6.9011,6.8774,6.9011,6.8199,6.8233,6.8774,6.9011,6.9417,6.9992,7.0973,7.1289,7.1289,7.1289,7.1289,7.1188,7.0669,7.0534,7.0364,6.962,6.9282,6.891,6.8098,6.7523,6.7062,6.6859,6.6791,6.6791,6.6791,6.6406,6.6034,6.6034,6.5425,6.4918,6.4918,6.4309,6.3815,6.3815,6.3396,6.2956,6.2753,6.2719,6.2618,6.2434,6.1434,6.0791,6.0791,6.0791,6.0689,6.0452,6.0452,6.0351,6.0114,6.0114,6.0114,6.0114,6.0114,6.0114,6.0114,6.0114,6.0114,6.0114,6.0114,6.0501,6.1197,6.3497,6.4647,6.4613,6.1806,5.7829,5.3348,4.8274,4.3267,3.8824,3.6659,3.6073,3.7606,3.791,3.8621,4.0853,4.3112,4.6123,5.0558,5.3145,5.5953,5.9674,6.1501,6.3314,6.5547,6.9113,7.1289,7.1289,7.1289,7.1289,7.1289,7.1289,7.1289,7.1289,7.1289,7.1289,7.1289,7.1289,7.1289,7.1289,7.1289,7.1289,7.1289,7.1289,7.1289,7.1289,7.1289,7.0872,0.0,7.0184,6.9755,6.9011,6.8199,6.7895,6.7996,6.8808,6.9113,6.9316,7.0782,7.1289,7.1289,7.1289,7.1289,7.1289,7.1289,7.1289,7.112,7.0398,6.9654,6.891,6.8098,6.7895,6.7692,6.696,6.6791,6.6791,6.6791,6.6791,6.6791,6.6791,6.6203,6.5683,6.5683,6.5087,6.458,6.458,6.458,6.4309,6.3579,6.3477,6.3226,6.2502,6.24,6.24,6.24,6.24,6.2042,6.1332,6.1298,6.0926,6.0148,6.0114,6.0114,6.0114,6.0114,6.0114,6.0114,6.0114,6.0114,6.0114,6.0114,6.1457,5.5108,5.7712,5.9539,5.7509,5.5716,5.3382,4.9424,4.5684,4.2016,3.8587,3.6659,3.5915,3.6953,3.755,3.879,4.1508,4.2997,4.4823,4.7767,5.098,5.4397,5.8152,6.4005,6.8199,6.9417,7.0579,7.1289,7.1289,7.1289,7.1289,7.1289,7.1289,7.1289,7.1289,7.1289,7.1289,7.1289,7.1289,7.1289,7.1289,7.1289,7.1289,7.1289,7.1289,7.1289,7.1255,7.077,7.0398,7.0184,6.9654,6.9316,6.9011,6.8199,6.8538,6.9417,6.918,6.9755,7.0647,7.112,7.1289,7.1289,7.1289,7.1289,7.1289,7.1289,7.0973,7.05,7.0285,6.9654,6.9147,6.9417,6.8673,6.7827,6.7624,6.7184,6.6791,6.6791,6.6791,6.6791,6.6791,6.6609,6.644,6.644,6.5831,6.5358,6.5358,6.4918,6.4512,6.4275,6.4241,6.4174,6.3937,6.3463,6.2956,6.2415,6.24,6.2279,6.2076,6.2042,6.1941,6.167,6.167,6.167,6.167,6.167,6.167,6.167,6.167,6.167,6.167,6.167,6.2731,5.1269,5.3788,5.5344,5.3518,5.2029,5.0236,4.709,4.3842,4.0798,3.8384,3.6659,3.5847,3.6648,3.719,3.8261,4.0675,4.1914,4.3558,4.6394,4.9507,5.3281,5.8152,6.4275,6.8605,6.9891,7.0804,7.1289,7.1289,7.1289,7.1289,7.1289,7.1289,7.1289,7.1289,7.1289,7.1289,7.1289,7.1289,7.1289,7.1289,7.1289,7.1289,7.1289,7.1289,7.1142,7.0872,7.0398,7.0048,0.0,6.9282,6.9113,6.9045,6.8538,6.8944,6.9755,6.9586,7.0094,7.0939,7.1188,7.1289,7.1289,7.1289,7.1289,7.1188,7.0613,7.0331,7.0217,7.0217,6.9857,6.962,7.0082,6.9485,6.8707,6.8402,6.776,6.7218,6.7218,6.6994,6.6791,6.6791,6.6791,6.6791,6.6791,6.644,6.6102,6.6102,6.573,6.5324,6.5053,6.5019,6.4918,6.4647,6.4208,6.3734,6.326,6.2719,6.24,6.24,6.24,6.24,6.24,6.24,6.24,6.24,6.24,6.24,6.24,6.24,6.24,6.24,6.2755,6.3665,0.0,5.1048,5.1725,5.1555,4.9999,4.797,4.5805,4.2544,0.0,3.8113,3.6625,3.5847,3.6716,3.6897,3.7393,3.9051,4.0561,4.2794,4.6447,4.9169,5.3264,5.9877,6.3226,6.5831,6.7929,7.006,7.1289,7.1289,7.1289,7.1289,7.1289,7.1289,7.1289,7.1289,7.1289,7.1289,7.1289,7.1289,7.1289,7.1289,7.1289,7.1255,7.1222,7.1222,7.0838,0.0,7.0094,6.9688,6.9011,6.9011,6.9011,6.9011,6.9011,6.9079,6.9248,6.9947,7.0251,7.0364,7.1075,7.1289,7.1289,7.1289,7.1289,7.1019,6.962,6.962,7.0094,7.0094,7.0094,7.015,7.0251,7.0229,7.0026,6.935,6.8571,6.7996,6.7996,6.7455,6.6927,6.6893,6.6859,6.6859,6.6791,6.6791,6.6791,6.6791,6.6791,6.6542,6.5865,6.5784,6.5527,6.4816,6.4715,6.4681,6.4681,6.3362,6.257,6.257,6.257,6.2516,6.2502,6.2502,6.2468,6.24,6.24,6.24,6.24,6.24,6.2473,6.2605,6.3401,6.4341,4.1339,0.0,4.5988,4.4248,4.3842,4.345,0.0,4.0303,3.8836,3.7359,3.6287,3.6017,3.7381,3.7652,3.8667,4.1833,4.366,4.552,4.8139,5.3822,5.981,6.5392,6.7726,6.9316,7.0398,7.0985,7.1289,7.1289,7.1289,7.1289,7.1289,7.1289,7.1289,7.1289,7.1289,7.1289,7.1289,7.1289,7.1289,7.1289,7.1289,7.1007,7.0466,7.0466,7.006,6.935,6.935,6.891,6.8166,6.8166,6.8166,6.8166,6.8166,6.891,6.9958,7.0128,7.0567,7.1075,7.1222,7.1289,7.1289,7.1289,7.1289,7.1142,7.0229,6.9654,6.935,6.935,6.935,6.962,7.077,7.0635,7.0184,6.9958,6.935,6.8808,6.8808,6.8673,6.8368,6.776,6.7658,6.7455,6.6893,6.6791,6.6791,6.6791,6.6791,6.6724,6.6576,6.6542,6.6474,6.6305,6.5764,6.5425,6.5425,6.4613,6.4072,6.4072,6.4072,6.3835,6.324,6.324,6.299,6.2415,6.24,6.24,6.24,6.24,6.3066,6.4308,6.453,6.5794,3.8514,4.0805,4.274,4.1508,4.1682,4.181,4.0421,3.9359,3.8332,3.7069,3.6531,3.6565,3.7249,3.7841,3.915,4.1954,4.3978,4.7022,5.2334,5.7442,6.2584,6.7827,6.9485,7.0466,7.1244,7.1289,7.1289,7.1289,7.1289,7.1289,7.1289,7.1289,7.1289,7.1289,7.1289,7.1289,7.1289,7.1289,7.1289,7.1289,7.0973,7.0601,7.0184,6.9857,6.9282,6.8538,6.8538,6.8301,6.7895,6.7895,6.8132,6.847,6.8808,6.9473,7.0217,7.0217,7.0432,7.0804,7.0804,7.1041,7.1222,7.0906,7.1041,7.1176,7.0398,6.9925,6.9586,6.9586,6.9586,6.9857,7.0985,7.1007,7.0703,7.0703,7.0128,6.9586,6.9586,6.935,6.8977,6.8538,6.8436,6.8335,6.7929,6.7861,6.7726,6.7354,6.732,6.7184,6.6825,6.6791,6.6791,6.6791,6.644,6.6203,6.6203,6.5831,6.5324,6.4647,6.4613,6.441,6.4038,6.3984,6.3835,6.3429,6.3396,6.3396,6.3396,6.3396,6.3883,6.4774,6.5607,6.6775,3.845,4.0052,4.1422,4.1192,4.1582,4.1709,4.0473,3.9403,3.838,3.743,3.7412,3.7601,3.7728,3.8596,3.9986,4.2048,4.4586,4.9168,5.7444,6.052,6.3802,6.8707,6.9925,7.0601,7.1222,7.1289,7.1289,7.1289,7.1289,7.1289,7.1289,7.1289,7.1289,7.1289,7.1289,7.1289,7.1289,7.1289,7.1289,7.1289,7.0534,7.0128,7.0014,6.9248,6.8538,6.7895,0.0,0.0,6.8098,6.8098,6.8538,6.9316,6.9958,7.0217,7.0217,7.0217,7.015,7.0026,7.0026,7.0432,7.0883,7.0364,7.0635,7.1041,7.0534,7.0364,7.0364,7.0364,7.0297,7.0364,7.1109,7.1289,7.1289,7.1289,7.0838,7.0364,7.0364,6.9891,6.9417,6.9282,6.9282,6.9214,6.9113,6.9113,6.8876,6.8199,6.8098,6.7861,6.7231,6.7028,6.696,6.696,6.6859,6.6791,6.6791,6.6791,6.6271,6.5019,6.4952,6.4884,6.4783,6.4647,6.4613,6.4613,6.4613,6.4613,6.4613,6.4613,6.4729,6.5018,6.6702,6.7634,3.9848,4.1556,4.2383,4.104,4.1371,4.1834,4.0818,4.0463,4.0121,3.9317,3.9206,3.9823,4.1685,4.23,4.3656,4.7222,5.1325,5.5883,6.0992,6.3599,6.6271,6.962,7.0669,7.1176,7.1289,7.1289,7.1289,7.1289,7.1289,7.1289,7.1289,7.1289,7.1289,7.1289,7.1289,7.1289,7.1289,7.1289,7.1289,7.1289,7.0534,6.9857,6.9248,6.8436,6.803,6.7895,0.0,6.8301,6.891,6.891,6.935,7.0048,7.0184,7.0217,7.0217,7.0217,6.9789,6.9282,6.9282,6.935,6.9519,7.0026,7.0285,7.0466,7.0973,7.1142,7.1142,7.1142,7.0669,7.0364,7.1109,7.1289,7.1289,7.1289,7.1188,7.1142,7.1142,7.1041,7.077,7.0161,7.0026,6.9823,6.9214,6.9113,6.9079,6.8944,6.891,6.8876,6.8774,6.8166,6.7726,6.7726,6.7184,6.6791,6.6791,6.6791,6.669,6.6487,6.6453,6.617,6.5581,6.4918,6.4613,6.4613,6.4613,6.4613,6.4613,6.4613,6.5335,6.675,6.7868,6.9145,3.9283,4.0656,4.1877,4.2642,4.3555,4.4001,4.2842,4.2398,4.1979,4.1075,4.1319,4.2114,4.3455,4.5039,4.7855,5.314,5.6065,5.9356,6.4263,6.5371,6.6969,7.0398,7.1086,7.1289,7.1289,7.1289,7.1289,7.1289,7.1289,7.1289,7.1289,7.1289,7.1289,7.1289,7.1289,7.1289,7.1289,7.0906,7.0703,7.0703,6.9958,6.9417,6.9079,6.8267,6.8132,6.8538,0.0,6.8977,6.9688,6.9688,7.0128,7.0804,7.0804,7.0534,7.0116,6.9248,6.8741,6.8402,6.7996,6.8673,6.9688,6.962,7.0128,7.0872,7.121,7.1289,7.1289,7.1289,7.1075,7.0872,7.1188,7.1289,7.1289,7.1289,7.1289,7.1289,7.1289,7.1289,7.1188,7.0872,7.0804,7.0703,7.0364,7.0297,7.0161,6.9755,6.9688,6.9553,6.9147,6.8774,6.8538,6.8538,6.7861,6.7387,6.7387,6.7049,6.6791,6.6791,6.6791,6.6643,6.6305,6.5967,6.6052,6.6533,6.6553,6.6794,6.7371,6.7371,6.7736,6.8513,6.9489,7.0358,3.9556,4.0528,4.1874,4.4373,4.5297,4.5714,4.5957,4.5279,4.4602,4.4613,4.5103,4.568,4.6262,4.8948,5.2834,5.8203,6.0046,6.2457,6.7301,6.715,6.7764,7.1248,7.1434,7.1289,7.1289,7.1289,7.1289,7.1289,7.1289,7.1289,7.1289,7.1289,7.1289,7.1289,7.1289,7.1289,7.1289,7.0737,7.0364,7.0195,6.9451,6.9113,6.9079,6.847,6.8605,6.935,6.935,6.9789,7.0466,7.0466,7.0804,7.1289,7.1289,7.0737,6.9777,6.8199,6.7658,6.759,6.7184,6.8098,6.9383,6.935,6.9992,7.0872,7.1188,7.1289,7.1289,7.1289,7.1289,7.1289,7.1289,7.1289,7.1289,7.1289,7.1289,7.1289,7.1289,7.1289,7.1289,7.1289,7.1289,7.1289,7.1289,7.1289,7.1109,7.0534,7.0466,7.0263,6.9688,6.9451,6.935,6.935,6.8639,6.8166,6.8166,6.7489,6.7083,6.7083,6.6893,6.6791,6.6791,6.6791,6.723,6.8169,6.8189,6.8685,6.9708,6.9708,6.9708,6.9725,7.0668,7.1111,4.2543,4.3206,4.3712,4.5388,4.4907,4.5285,5.0315,4.9615,4.88,5.1784,5.1862,5.1626,5.2396,5.5778,5.9075,6.1041,6.3698,6.6722,7.0132,6.9607,6.9795,7.2375,7.1873,7.1289,7.1289,7.1289,7.1289,7.1289,7.1289,7.1289,7.1289,7.1289,7.1289,7.1289,7.1289,7.1289,7.1289,7.1255,7.0872,7.0195,6.9451,6.9113,6.9113,6.9045,6.9417,7.0094,7.0094,7.0534,7.1222,7.1222,7.1255,7.1289,7.1289,7.041,6.8977,6.7455,6.6859,6.696,6.759,6.7489,6.7366,6.9451,6.9722,6.9519,7.0883,7.1289,7.1289,7.1289,7.1289,7.1289,7.1289,7.1289,7.1289,7.1289,7.1289,7.1289,7.1289,7.1289,7.1289,7.1289,7.1289,7.1289,7.1289,7.1289,7.1289,7.1244,7.1222,7.1188,7.1154,7.0534,7.0094,7.0094,6.9451,6.9011,6.9011,6.8267,6.7827,6.7827,6.7184,6.6791,6.6791,6.6791,6.723,6.8169,6.8189,6.8685,6.9708,6.9708,6.9708,6.9725,7.0668,7.1111,4.1009,4.2368,4.402,4.6131,4.7016,4.8228,5.1322,5.205,5.2858,5.5611,5.5941,5.5978,5.6774,5.8976,6.158,6.4201,6.6793,6.9372,7.2073,7.1981,7.1942,7.2734,7.2456,7.1969,7.1379,7.1289,7.1289,7.1289,7.1289,7.1289,7.1289,7.1289,7.1289,7.1289,7.1289,7.1289,7.1289,7.0838,7.0466,7.0217,6.9925,6.9755,6.9755,6.9755,7.0195,7.0872,7.0872,7.1041,7.1289,7.1289,7.1289,7.1188,7.0297,6.9586,6.8977,6.7895,6.7489,6.759,6.8368,6.8774,6.9045,6.9913,7.0331,7.0545,7.112,7.1289,7.1289,7.1289,7.1289,7.1289,7.1289,7.1289,7.1289,7.1289,7.1289,7.1289,7.1289,7.1289,7.1289,7.1289,7.1289,7.1289,7.1289,7.1289,7.1289,7.1289,7.1289,7.1289,7.1289,7.1075,7.0872,7.0872,7.0229,6.9586,6.9147,6.8808,6.8639,6.8639,6.7489,6.6791,6.6791,6.7373,6.8126,6.9113,6.9725,7.0465,7.1433,7.1433,7.1433,7.1448,7.1809,7.1981,4.0341,4.1662,4.3653,4.5801,4.7976,5.0335,5.3235,5.495,5.6822,6.0015,6.0052,5.9685,6.026,6.1447,6.3282,6.6035,6.8633,7.1103,7.3531,7.3491,7.3199,7.3248,7.3003,7.2393,7.1401,7.1289,7.1289,7.1289,7.1289,7.1289,7.1289,7.1289,7.1289,7.1289,7.1289,7.1289,7.1289,7.0804,7.0534,7.0534,7.0534,7.0432,7.0217,7.0432,7.0838,7.1289,7.1289,7.1289,7.1289,7.1289,7.1176,7.0838,6.9586,6.8944,6.8639,6.8098,6.7895,6.8064,6.9079,6.962,6.9925,7.0398,7.0737,7.1007,7.1222,7.1289,7.1289,7.1289,7.1289,7.1289,7.1289,7.1289,7.1289,7.1289,7.1289,7.1289,7.1289,7.1289,7.1289,7.1289,7.1289,7.1289,7.1289,7.1289,7.1289,7.1289,7.1289,7.1289,7.1289,7.1289,7.1289,7.1289,7.0838,7.0485,7.0277,7.0047,7.0059,7.0368,6.9185,6.8199,6.7639,6.8245,6.9061,7.0127,7.0767,7.1557,7.2496,7.2496,7.2642,7.2899,7.2899,7.301,4.1323,4.169,4.2727,4.4333,4.7241,5.1143,5.676,5.8646,6.0627,6.5521,6.4567,6.2829,6.2829,6.3539,6.4653,6.6256,6.9099,7.1992,7.4542,7.3941,7.3481,7.4239,7.3452,7.2414,7.1412,7.1312,7.1312,7.1312,7.1312,7.1289,7.1289,7.1289,7.1289,7.1289,7.1289,7.1289,7.1289,7.1289,7.1289,7.1289,7.1289,7.0939,7.0251,7.0973,7.1289,7.1289,7.1289,7.1289,7.1289,7.1289,7.0872,7.015,6.9383,6.8605,6.7895,6.7895,6.7895,6.8132,6.9654,6.9722,6.935,7.0816,7.0804,7.0353,7.1075,7.1289,7.1289,7.1289,7.1289,7.1289,7.1289,7.1289,7.1289,7.1289,7.1289,7.1289,7.1289,7.1289,7.1289,7.1289,7.1289,7.1289,7.1289,7.1289,7.1289,7.1289,7.1289,7.1289,7.1289,7.1289,7.1312,7.1312,7.1312,7.1732,7.2714,7.2125,7.2156,7.3158,7.2543,7.1303,6.951,6.9436,6.9974,7.1115,7.1127,7.1609,7.2532,7.2532,7.2936,7.3722,7.3722,7.4147,4.0634,4.2094,4.4663,4.7434,5.1426,5.5831,6.0334,6.1545,6.3123,6.8017,6.754,6.6072,6.5521,6.6085,6.6783,6.726,7.0,7.2745,7.4617,7.5093,7.5274,7.535,7.5084,7.4517,7.3512,7.2756,7.2364,7.2364,7.171,7.1289,7.1289,7.1289,7.1289,7.1289,7.1289,7.1289,7.1289,7.1289,7.1289,7.1289,7.1289,7.1188,7.0973,7.1188,7.1289,7.1289,7.1289,7.1289,7.1289,7.1289,7.0872,7.015,6.9383,6.8605,6.7895,6.7895,6.8267,6.8876,6.9857,7.0398,7.0714,7.1154,7.1154,7.1007,7.1222,7.1289,7.1289,7.1289,7.1289,7.1289,7.1289,7.1289,7.1289,7.1289,7.1289,7.1289,7.1289,7.1289,7.1289,7.1289,7.1289,7.1289,7.1289,7.1289,7.1289,7.1289,7.1289,7.1289,7.1289,7.1289,7.1556,7.2279,7.2364,7.2756,7.3753,7.3639,7.3668,7.3937,7.3779,7.2924,7.1356,7.1926,7.2432,7.2788,7.3437,7.3909,7.4169,7.4169,7.4316,7.4551,7.4551,7.4661,4.1882,4.3929,4.6902,5.0215,5.3959,5.8217,6.3539,6.5228,6.6733,7.0293,6.9522,6.8128,6.7944,6.8054,6.8288,6.8618,7.1101,7.3303,7.4294,7.5139,7.5551,7.533,7.5301,7.5046,7.435,7.3392,7.2797,7.2797,7.1873,7.1289,7.1289,7.1289,7.1289,7.1289,7.1289,7.1289,7.1289,7.1289,7.1289,7.1289,7.1289,7.1289,7.1289,7.1289,7.1289,7.1289,7.1289,7.1289,7.1289,7.1289,7.0703,6.9722,6.9282,6.8436,6.7489,6.7793,6.8199,6.8774,6.9823,7.05,7.0906,7.1188,7.1289,7.1289,7.1289,7.1289,7.1289,7.1289,7.1289,7.1289,7.1289,7.1289,7.1289,7.1289,7.1289,7.1289,7.1289,7.1289,7.1289,7.1289,7.1289,7.1289,7.1289,7.1289,7.1289,7.1289,7.1289,7.1434,7.1851,7.1895,7.2279,7.3292,7.3392,7.3792,7.4812,7.4885,7.5084,7.5457,7.5475,7.5079,7.4195,7.4024,7.3984,7.4049,7.4589,7.4903,7.4903,7.4903,7.505,7.538,7.538,7.5527,4.4186,4.6461,4.9251,5.2774,5.5673,5.9501,6.6342,6.9059,7.055,7.2165,7.077,6.9449,7.0073,6.9669,6.9449,7.011,7.2092,7.3611,7.367,7.4331,7.4741,7.4635,7.4608,7.4574,7.4362,7.3381,7.2733,7.2837,7.1836,7.1244,7.1289,7.1289,7.1289,7.1289,7.1289,7.1289,7.1289,7.1289,7.1289,7.1289,7.1289,7.1289,7.1289,7.1289,7.1289,7.1289,7.1289,7.1289,7.1289,7.1244,7.0364,6.9079,6.9011,6.8098,6.6859,6.7557,6.7827,6.8098,6.9586,7.0128,7.0297,7.1075,7.1289,7.1289,7.1289,7.1289,7.1289,7.1289,7.1289,7.1289,7.1289,7.1289,7.1289,7.1289,7.1289,7.1289,7.1289,7.1289,7.1289,7.1289,7.1289,7.1289,7.1289,7.1289,7.1289,7.1289,7.1379,7.1776,7.2673,7.288,7.3332,7.4329,7.4423,7.483,7.5857,7.5942,7.633,7.7243,7.7289,7.7289,7.7289,7.5742,7.493,7.5109,7.5124,7.5124,7.5124,7.5124,7.5491,7.6203,7.6203,7.6592,4.3497,4.6434,5.0472,5.5684,6.0713,6.5301,6.8788,6.9853,7.055,7.2165,7.2092,7.1578,7.1123,7.1417,7.1578,7.1123,7.2018,7.2973,7.3597,7.3854,7.4198,7.4772,7.4851,7.4826,7.4785,7.319,7.2397,7.2996,7.1406,7.0703,7.1255,7.1289,7.1289,7.1289,7.1289,7.1289,7.1289,7.1289,7.1289,7.1289,7.1289,7.1289,7.1289,7.1289,7.1289,7.1289,7.1289,7.1289,7.1255,7.0669,6.9891,6.9045,6.8402,6.759,6.6825,6.696,6.7421,6.803,6.9011,6.9722,7.0297,7.1075,7.1289,7.1289,7.1289,7.1289,7.1289,7.1289,7.1289,7.1289,7.1289,7.1289,7.1289,7.1289,7.1289,7.1289,7.1289,7.1289,7.1289,7.1289,7.1289,7.1289,7.1289,7.1289,7.1289,7.1289,7.1948,7.2561,7.2756,7.3492,7.4367,7.5387,7.5492,7.5891,7.6872,7.6988,7.7066,7.7273,7.7289,7.7289,7.7289,7.6935,7.6737,7.676,7.6775,7.6775,7.6775,7.6775,7.6885,7.7032,7.7032,7.7142,4.4488,4.8196,5.2821,5.9281,6.4029,6.7504,6.9155,6.9816,7.033,7.1174,7.1945,7.2386,7.1931,7.2224,7.2349,7.1931,7.2239,7.2642,7.3083,7.312,7.3413,7.4221,7.4331,7.4478,7.4867,7.356,7.262,7.2594,7.1617,7.0801,7.0273,7.0664,7.0707,7.0263,7.0601,7.077,7.077,7.112,7.1289,7.1289,7.1289,7.1289,7.1289,7.1289,7.1289,7.1289,7.1289,7.1289,7.1222,7.05,6.9755,6.9011,6.8199,6.7455,6.6791,6.6791,6.7028,6.7557,6.8707,6.935,6.9857,7.0973,7.1289,7.1289,7.1289,7.1289,7.1289,7.1289,7.1289,7.1289,7.1289,7.1289,7.1289,7.1289,7.1289,7.1289,7.1289,7.1289,7.1289,7.1289,7.1688,7.2013,7.2013,7.2013,7.2185,7.2666,7.2756,7.3131,7.412,7.4702,7.5405,7.6396,7.653,7.6745,7.7243,7.7289,7.7289,7.7289,7.7289,7.7289,7.7289,7.7289,7.7289,7.7289,7.7289,7.7289,7.7289,7.7289,7.7289,7.7289,7.7289,7.7289,4.4911,4.9764,5.5317,6.234,6.5828,6.7737,6.8678,6.9412,6.9926,7.0073,7.1284,7.2312,7.2312,7.2422,7.2496,7.2496,7.2496,7.2496,7.2496,7.2496,7.2753,7.3413,7.3487,7.3744,7.4426,7.3566,7.2678,7.1851,7.1723,7.0942,6.9187,6.9983,7.0086,6.9122,6.9688,6.9992,6.9992,7.0737,7.1109,7.1109,7.1222,7.1289,7.1289,7.1289,7.1289,7.1289,7.1289,7.1244,7.1075,7.0297,6.9553,6.8808,6.803,6.7354,6.6791,6.6791,6.6791,6.6994,6.8571,6.9113,6.935,7.0816,7.1289,7.1289,7.1289,7.1289,7.1289,7.1289,7.1412,7.1568,7.1568,7.1688,7.1842,7.1842,7.1842,7.1732,7.1379,7.1289,7.1356,7.1546,7.2385,7.3084,7.3084,7.3084,7.3332,7.4158,7.3733,7.3928,7.5597,7.5959,7.6363,7.7212,7.7289,7.7289,7.7289,7.7289,7.7289,7.7289,7.7289,7.7289,7.7289,7.7289,7.7289,7.7289,7.7289,7.7289,7.7289,7.7289,7.7289,7.7289,7.7289,7.7289,4.1352,4.8453,5.6686,6.2634,6.5375,6.7063,6.8568,6.8958,6.9265,6.9963,7.0844,7.1454,7.1454,7.2041,7.2496,7.2496,7.2496,7.2496,7.2496,7.2496,7.2532,7.2642,7.2679,7.2716,7.2826,7.1962,7.1275,7.1001,7.0946,7.0422,6.9154,6.9983,7.0086,6.9122,6.9214,6.9248,6.9248,6.9958,7.0353,7.0331,7.1007,7.1289,7.1289,7.1289,7.1289,7.1289,7.1289,7.0939,7.0297,6.9553,6.8774,6.7996,6.7252,6.6893,6.6791,6.6791,6.6791,6.6994,6.8571,6.9113,6.935,7.0816,7.1289,7.1289,7.1289,7.1289,7.1289,7.1289,7.1939,7.2603,7.2603,7.3232,7.3924,7.3924,7.3924,7.3412,7.1666,7.1289,7.1568,7.2414,7.3412,7.4082,7.4082,7.4082,7.4139,7.4272,7.4922,7.551,7.5753,7.6563,7.7165,7.7273,7.7289,7.7289,7.7289,7.7289,7.7289,7.7289,7.7289,7.7289,7.7289,7.7289,7.7289,7.7289,7.7289,7.7289,7.7289,7.7289,7.7289,7.7289,7.7289,7.7289,4.4305,5.0629,5.6833,6.2071,6.4604,6.6145,6.7283,6.7907,6.8311,6.8692,6.9412,7.0096,7.055,7.0917,7.1174,7.1174,7.1541,7.1821,7.1821,7.2224,7.2496,7.2496,7.2496,7.2496,7.2496,7.2116,7.164,7.1,7.147,7.0838,6.8684,6.9501,6.9361,6.787,6.8199,6.8436,6.8436,6.918,6.9789,7.0217,7.0534,7.0906,7.1289,7.1289,7.1289,7.1289,7.1289,7.0872,7.0128,6.9417,6.8639,6.7827,6.7096,6.6791,6.6791,6.6791,6.6791,6.6994,6.8571,6.9113,6.935,7.0816,7.1289,7.1289,7.1289,7.1289,7.1289,7.1289,7.2013,7.2797,7.2797,7.3552,7.4291,7.4291,7.4291,7.4043,7.3186,7.2982,7.3272,7.4291,7.483,7.5334,7.5874,7.5887,7.5854,7.5963,7.6252,7.6516,7.6636,7.7019,7.7289,7.7289,7.7289,7.7289,7.7289,7.7289,7.7289,7.7289,7.7289,7.7289,7.7289,7.7289,7.7289,7.7289,7.7289,7.7289,7.7289,7.7289,7.7289,7.7289,7.7289,7.7289,4.5232,5.0078,5.4142,5.9612,6.2499,6.4383,6.5595,6.6673,6.7407,6.7407,6.8017,6.8788,6.9389,6.9816,7.011,7.011,7.0587,7.0977,7.0977,7.1674,7.2202,7.2202,7.2386,7.2496,7.2496,7.2496,7.2101,7.1175,7.1981,7.135,6.8723,6.9277,6.8926,6.7223,6.7468,6.7624,6.7624,6.8402,6.918,6.9925,7.0116,7.0466,7.1041,7.1188,7.1289,7.1289,7.1109,7.0601,6.9857,6.9113,6.8335,6.7557,6.6994,6.6791,6.6791,6.6791,6.6791,6.6994,6.8571,6.9113,6.935,7.0816,7.1479,7.1622,7.1379,7.1479,7.1622,7.1379,7.2013,7.2859,7.309,7.3928,7.4739,7.4976,7.5084,7.4903,7.4404,7.4498,7.4903,7.5649,7.601,7.6396,7.7181,7.7186,7.7192,7.7563,7.7316,7.7209,7.7578,7.7436,7.7289,7.7289,7.7289,7.7289,7.7289,7.7289,7.7289,7.7289,7.7289,7.7289,7.7289,7.7289,7.7289,7.7289,7.7289,7.7289,7.7289,7.7289,7.7289,7.7289,7.7289,7.7289,3.9958,4.3379,4.6975,5.419,5.8327,6.1263,6.3686,6.5448,6.6549,6.6549,6.721,6.7774,6.7811,6.9059,7.011,7.011,7.0146,7.0146,7.0146,7.0881,7.1344,7.1344,7.2041,7.2496,7.2496,7.2496,7.2101,7.1175,7.1981,7.1671,6.9743,6.9672,6.9205,6.815,6.7284,6.6859,6.6859,6.759,6.8368,6.918,6.9857,7.0217,7.0285,7.0973,7.1289,7.1255,7.0567,6.9823,6.9113,6.8301,6.7523,6.6859,6.6791,6.6791,6.6791,6.6791,6.6791,6.6994,6.8571,6.9113,6.935,7.0816,7.1926,7.254,7.1578,7.1982,7.2519,7.159,7.2013,7.3044,7.3966,7.4958,7.5959,7.694,7.715,7.6611,7.4702,7.503,7.5735,7.577,7.6563,7.7227,7.7273,7.7279,7.7573,7.8405,7.7808,7.7573,7.8442,7.7803,7.7289,7.7289,7.7289,7.7289,7.7289,7.7289,7.7289,7.7289,7.7289,7.7289,7.7289,7.7289,7.7289,7.7289,7.7289,7.7289,7.7289,7.7289,7.7289,7.7289,7.7289,7.7289,3.8571,4.1699,4.5195,5.0445,5.4557,5.7813,5.9758,6.2658,6.4947,6.4947,6.5999,6.6916,6.6916,6.7811,6.8545,6.8545,6.8972,6.9339,6.9339,7.0036,7.0734,7.1233,7.1564,7.1931,7.2459,7.2496,7.2343,7.2026,7.2299,7.1951,7.0668,7.0041,6.9241,6.8227,6.7271,6.6791,6.6791,6.7083,6.759,6.8335,6.9113,6.9722,7.0251,7.0973,7.1289,7.1222,7.0026,6.935,6.9079,6.8808,6.7929,6.6791,6.6791,6.6791,6.6791,6.6791,6.7117,6.7658,6.8741,6.9417,7.009,7.1713,7.2498,7.2859,7.3145,7.3472,7.3709,7.3312,7.3492,7.3866,7.4196,7.503,7.6044,7.7051,7.7289,7.7082,7.6399,7.5993,7.5993,7.6628,7.7051,7.7289,7.7289,7.7766,7.8075,7.7803,7.7986,7.8075,7.7803,7.7509,7.7289,7.7289,7.7803,7.8148,7.8148,7.8626,7.8883,7.8883,7.8883,7.8883,7.8883,7.8883,7.8662,7.8148,7.8148,7.7839,7.7289,7.7289,7.7289,7.7289,7.7289,7.7289,3.6186,3.9239,4.2992,4.7618,5.0765,5.3739,5.7556,6.0309,6.2365,6.3429,6.4751,6.5852,6.6402,6.6953,6.7407,6.7664,6.8128,6.8495,6.8495,6.9192,6.9889,7.0426,7.072,7.1197,7.2004,7.2078,7.2202,7.2496,7.2496,7.2241,7.1588,7.0383,6.9076,6.7767,6.712,6.6791,6.6791,6.6791,6.7049,6.7557,6.8605,6.935,6.9857,7.0872,7.1289,7.1255,7.0263,6.9553,6.9079,6.8538,6.7726,6.6791,6.6791,6.6791,6.6791,6.6791,6.7286,6.803,6.8808,6.9586,7.0429,7.1859,7.2735,7.3372,7.3709,7.4272,7.472,7.4385,7.4291,7.4367,7.4702,7.5545,7.6481,7.715,7.7289,7.7289,7.7289,7.6777,7.6514,7.7181,7.7289,7.7289,7.7289,7.7766,7.806,7.7766,7.7986,7.8075,7.7766,7.7472,7.7289,7.7289,7.7803,7.8295,7.8589,7.9082,7.9522,7.9779,7.9816,7.9816,7.9816,7.9816,7.9559,7.8993,7.8993,7.8589,7.7729,7.7436,7.7289,7.7289,7.7289,7.7289,0.0,0.0,0.0,4.5461,4.6856,4.8984,5.6957,5.8205,5.8621,6.1912,6.3282,6.4433,6.6072,6.6439,6.6733,6.7517,6.7664,6.77,6.77,6.8385,6.8848,6.8885,6.9596,7.0367,7.1197,7.127,7.16,7.2422,7.2459,7.2459,7.2496,7.0701,6.8814,6.6875,6.6791,6.6791,6.6791,6.6791,6.6791,6.6825,6.8335,6.9079,6.9147,7.0579,7.1289,7.1289,7.1289,7.0466,6.9011,6.7468,6.6859,6.6825,6.6791,6.6791,6.6791,6.6825,6.732,6.8064,6.8842,6.962,7.0353,7.1097,7.2666,7.4082,7.3151,7.4253,7.5597,7.4647,7.4367,7.4554,7.5545,7.653,7.7258,7.7273,7.7289,7.7289,7.7289,7.7289,7.7289,7.7289,7.7289,7.7289,7.7289,7.7289,7.7582,7.8442,7.7839,7.7619,7.8442,7.7803,7.7289,7.7289,7.7326,7.7693,7.8516,7.8626,7.8993,7.9779,7.9853,7.9853,7.989,7.989,7.9853,7.9853,7.9853,7.9449,7.8626,7.7766,7.7326,7.7289,7.7289,7.7326,3.3617,0.0,0.0,0.0,0.0,0.0,4.7819,4.9874,5.2234,5.6675,5.8706,6.0529,6.3306,6.4811,6.5888,6.6696,6.7333,6.77,6.77,6.7884,6.8238,6.8825,6.9119,6.9559,7.0367,7.044,7.077,0.0,7.1637,7.1894,7.2459,7.0701,6.8814,6.6875,6.6791,6.6791,6.6791,6.6791,6.6791,6.6791,6.776,6.8538,6.9147,7.006,7.0804,7.1255,7.0737,7.0263,6.9823,6.8876,6.8132,6.7557,6.7015,6.6791,6.6859,6.7421,6.8098,6.8876,6.962,7.0364,7.1141,7.2095,7.2756,7.3432,7.4628,7.5369,7.5908,7.633,7.5942,7.5457,7.5718,7.601,7.6379,7.715,7.7289,7.7289,7.7289,7.7289,7.7289,7.7289,7.7289,7.7289,7.7289,7.7289,7.7399,7.7619,7.7436,7.7399,7.7619,7.7436,7.7289,7.7289,7.7839,7.8332,7.8589,7.914,7.9816,8.0608,8.0681,8.0938,8.1505,8.1542,8.1269,8.0681,8.0681,8.0277,7.9486,7.8626,7.7913,7.7289,7.7289,7.7656,3.5165,3.6641,3.8741,3.9769,0.0,0.0,4.6131,4.7526,4.9287,5.452,5.6602,5.84,6.1251,6.2609,6.3759,6.5264,6.5902,6.6562,6.7554,6.77,6.7884,6.8348,6.8385,6.8715,6.9522,6.9596,6.9926,7.072,7.1123,7.1471,7.1878,7.0865,6.9386,6.7454,6.7393,6.7202,6.6812,6.6791,6.6791,6.6791,6.7557,6.8335,6.9113,6.9857,7.0601,7.1255,7.0838,7.0466,7.0128,6.9417,6.8639,6.787,6.7516,6.7393,6.7523,6.8728,6.9627,7.04,7.1201,7.194,7.2645,7.3232,7.3432,7.3714,7.5334,7.5787,7.601,7.7019,7.6872,7.6412,7.6412,7.6412,7.6579,7.7165,7.7289,7.7289,7.7289,7.7289,7.7289,7.7289,7.7289,7.7289,7.7289,7.7289,7.7289,7.7289,7.7289,7.7289,7.7289,7.7289,7.7289,7.7289,7.7766,7.8332,7.9029,7.9213,7.991,8.1415,8.1195,8.1379,8.215,8.2186,8.1966,8.1525,8.1489,8.1085,8.0277,7.947,7.8846,7.8332,7.8332,7.8626,3.711,3.8322,0.0,0.0,4.1001,0.0,4.7755,4.7893,4.8039,5.3309,5.5097,5.648,5.8988,5.9612,6.0456,6.2658,6.3405,6.458,6.7076,6.7517,6.759,6.759,6.7664,6.7994,6.8715,6.8788,6.9119,6.9889,7.072,7.1121,7.0979,7.0967,7.0122,6.8247,6.8189,6.7747,6.6812,6.6791,6.6854,6.6946,6.7519,6.8298,6.9252,6.9821,7.0534,7.1289,7.1188,7.0804,7.015,6.9316,6.8538,6.79,6.8122,6.8189,6.8428,7.032,7.1443,7.215,7.3002,7.3762,7.4291,7.4291,7.4291,7.4479,7.551,7.5787,7.601,7.7019,7.7289,7.7289,7.7289,7.7289,7.7289,7.7289,7.7289,7.7289,7.7289,7.7289,7.7289,7.7289,7.7289,7.7289,7.7289,7.7289,7.7289,7.7289,7.7289,7.7289,7.7289,7.7289,7.7289,7.7289,7.7289,7.7913,7.9412,7.8883,7.9433,8.1782,8.1269,8.1269,8.215,8.2186,8.2186,8.2186,8.2186,8.1856,8.1122,8.0257,7.9816,7.9816,7.9816,7.9853,3.9467,4.001,4.0663,3.9827,0.0,0.0,4.0312,4.1735,4.3929,4.6315,4.7966,4.9948,5.3041,5.4693,5.5721,5.6198,5.9024,6.2218,6.5325,6.6329,6.6733,6.6733,6.7297,6.7774,6.7921,6.7921,6.8274,6.9082,6.9889,7.0281,7.0152,7.0141,6.9552,6.8247,6.8189,6.7747,6.6812,6.6791,6.7182,6.7911,6.7297,6.8156,7.0195,6.9591,7.006,7.1255,7.0669,7.0331,7.0116,6.8707,6.803,6.79,6.8122,6.8223,6.8586,7.0917,7.1867,7.2221,7.3602,7.4185,7.4291,7.4291,7.4291,7.4479,7.551,7.5787,7.601,7.7019,7.7289,7.7289,7.7289,7.7289,7.7289,7.7289,7.7289,7.7289,7.7289,7.7289,7.7289,7.7289,7.7289,7.7289,7.7289,7.7289,7.7289,7.7289,7.7289,7.7289,7.7289,7.7289,7.7289,7.7289,7.7289,7.7436,7.7766,7.7656,7.8332,8.0147,8.011,8.0697,8.215,8.2186,8.2186,8.2186,8.2186,8.2113,8.1966,8.0514,7.9816,7.9816,7.9816,8.0147,4.1625,4.1662,4.2213,4.1801,0.0,0.0,0.0,4.1992,4.2975,4.5397,4.6205,4.7232,4.9701,5.0802,5.1903,5.3555,5.6161,5.8841,6.13,6.4127,6.5888,6.5888,6.6256,6.6659,6.7063,6.7113,6.7577,6.8825,6.9265,6.9648,6.9988,7.0395,7.0116,6.9088,6.8975,6.8493,6.7501,6.7501,6.7727,6.8189,6.7708,6.8553,7.0465,6.9527,6.9688,7.0737,7.0364,6.9777,6.8977,6.8233,6.7692,6.7392,6.7984,6.8466,6.9181,7.1801,7.2974,7.3528,7.5218,7.5806,7.5806,7.5806,7.5457,7.5245,7.6247,7.6547,7.6644,7.7165,7.7289,7.7289,7.7289,7.7289,7.7289,7.7289,7.7289,7.7289,7.7289,7.7289,7.7289,7.7289,7.7289,7.7289,7.7289,7.7289,7.7289,7.7289,7.7289,7.7289,7.7289,7.7289,7.7289,7.7289,7.7289,7.7472,7.7913,7.7949,7.8662,8.0277,8.0388,8.0938,8.215,8.2186,8.2186,8.2186,8.2186,8.2186,8.2186,8.1379,8.0991,8.0991,8.0991,8.1195,0.0,4.4534,4.5085,0.0,0.0,4.3232,0.0,0.0,0.0,4.5324,4.5434,4.5663,4.7095,4.7388,4.8233,5.0902,5.2931,5.4704,5.6172,6.0199,6.327,6.404,6.4554,6.5068,6.5705,6.5632,6.6366,6.8311,6.8017,6.8348,6.9779,7.0468,7.0528,6.9904,6.9579,6.9021,6.8208,6.8189,6.8285,6.8496,6.8635,6.9451,7.0729,6.9809,6.9669,7.0184,6.9913,6.9045,6.7895,6.776,6.7447,6.7161,6.8107,6.8964,7.0015,7.2748,7.4247,7.511,7.6726,7.7289,7.7289,7.7289,7.6761,7.6247,7.7051,7.7289,7.7289,7.7289,7.7289,7.7289,7.7289,7.7289,7.7289,7.7289,7.7289,7.7289,7.7289,7.7289,7.7289,7.7289,7.7289,7.7289,7.7289,7.7289,7.7289,7.7289,7.7289,7.7289,7.7289,7.7289,7.7289,7.7289,7.7289,7.7582,7.8295,7.8369,7.9029,8.0681,8.0755,8.1195,8.215,8.2186,8.2186,8.2186,8.2186,8.2186,8.2186,8.2186,8.2186,8.2186,8.2186,8.2186,0.0,0.0,0.0,0.0,4.7755,0.0,0.0,0.0,4.3709,4.1222,0.0,4.2983,4.3873,0.0,0.0,4.4534,4.7131,4.9444,5.0408,5.2858,5.5893,5.949,6.1765,6.3123,6.3196,6.2585,6.3429,6.6549,6.4738,6.5105,6.8862,6.8996,6.9281,6.9889,6.8909,6.8305,6.8189,6.8189,6.8648,6.9547,7.0254,7.0995,7.1713,7.0828,7.0353,7.0094,6.8741,6.8064,6.7861,6.7197,6.7394,6.8146,6.9131,7.0024,7.1073,7.3743,7.526,7.6066,7.6965,7.7289,7.7289,7.7289,7.7227,7.7165,7.7258,7.7289,7.7289,7.7289,7.7289,7.7289,7.7289,7.7289,7.7289,7.7289,7.7289,7.7289,7.7289,7.7289,7.7289,7.7289,7.7289,7.7289,7.7289,7.7289,7.7289,7.7289,7.7289,7.7289,7.7289,7.7289,7.7289,7.7289,7.7289,7.7362,7.7436,7.7436,7.817,7.9816,7.9926,8.0624,8.215,8.2186,8.2186,8.2186,8.2186,8.2186,8.2186,8.2186,8.2186,8.2186,8.2186,8.2186,0.0,0.0,0.0,0.0,0.0,0.0,4.3864,0.0,4.3057,0.0,0.0,0.0,0.0,0.0,0.0,0.0,4.5406,4.7021,4.7398,4.915,5.1856,5.593,5.6884,5.7948,5.9832,6.0566,6.1851,6.4187,6.2952,6.3503,6.6646,6.7179,6.819,6.9974,6.9006,6.891,6.9865,6.9883,7.0109,7.0518,7.1323,7.155,7.1263,7.1352,7.0778,6.9735,6.9639,6.9358,6.8906,6.8593,6.872,6.9203,7.066,7.1337,7.1729,7.3448,7.4865,7.6057,7.6972,7.7289,7.7289,7.7289,7.7289,7.7289,7.7289,7.7289,7.7289,7.7289,7.7289,7.7289,7.7289,7.7289,7.7289,7.7289,7.7289,7.7289,7.7289,7.7289,7.7289,7.7289,7.7289,7.7289,7.7289,7.7289,7.7289,7.7289,7.7289,7.7289,7.7289,7.7289,7.7289,7.7289,7.7289,7.7289,7.7289,7.7766,7.8369,7.9082,7.9984,8.1012,8.215,8.2186,8.2186,8.2186,8.2186,8.2186,8.2186,8.2186,8.2186,8.2186,8.2186,8.2186,5.2721,0.0,0.0,0.0,0.0,0.0,0.0,0.0,0.0,0.0,0.0,0.0,0.0,0.0,0.0,0.0,0.0,4.5232,4.5232,4.5663,4.7609,5.1903,5.2674,5.3959,5.6748,5.7483,5.8902,6.1618,6.0456,6.13,6.5105,6.5749,6.7266,7.0022,6.9105,6.9257,7.0717,7.0962,7.1071,7.1057,7.236,7.2451,7.146,7.2352,7.1732,7.0065,7.0613,7.0628,7.0327,7.0115,7.031,7.0856,7.2144,7.2847,7.3203,7.3915,7.505,7.6313,7.7035,7.7289,7.7289,7.7289,7.7289,7.7289,7.7289,7.7289,7.7289,7.7289,7.7289,7.7289,7.7289,7.7289,7.7289,7.7289,7.7289,7.7289,7.7289,7.7289,7.7289,7.7289,7.7289,7.7289,7.7289,7.7289,7.7289,7.7289,7.7289,7.7289,7.7289,7.7289,7.7289,7.7289,7.7289,7.7289,7.7289,7.7876,7.8369,7.8589,8.0131,8.1269,8.1856,8.2076,8.2186,8.2186,8.2186,8.2186,8.2186,8.2186,8.2186,8.2186,8.2186,8.2186,0.0,0.0,0.0,5.1143,0.0,0.0,0.0,0.0,4.5553,0.0,0.0,0.0,0.0,0.0,0.0,0.0,0.0,0.0,0.0,4.1597,4.1956,4.6746,5.0105,5.2685,5.4363,5.2454,5.3398,5.8902,5.6407,5.774,6.4921,6.5125,6.6606,6.9972,6.9072,6.8893,6.9761,7.0651,7.101,7.0931,7.355,7.4183,7.3071,7.4132,7.351,7.1576,7.1108,7.1338,7.194,7.1196,7.1869,7.3385,7.3438,7.4486,7.598,7.6011,7.6524,7.7243,7.7273,7.7289,7.7289,7.7289,7.7289,7.7289,7.7289,7.7289,7.7289,7.7289,7.7289,7.7289,7.7289,7.7289,7.7289,7.7289,7.7289,7.7289,7.7289,7.7289,7.7289,7.7289,7.7289,7.7289,7.7289,7.7289,7.7289,7.7289,7.7289,7.7289,7.7289,7.7289,7.7289,7.7289,7.7289,7.7289,7.7289,7.7326,7.7693,7.8552,8.0131,8.1012,8.1048,8.1782,8.2186,8.2186,8.2186,8.2186,8.2186,8.2186,8.2186,8.2186,8.2186,8.2186,0.0,0.0,6.015,5.4252,0.0,0.0,0.0,0.0,0.0,0.0,0.0,0.0,0.0,0.0,0.0,0.0,0.0,0.0,0.0,0.0,3.9321,4.1992,4.5663,4.8379,4.9471,5.0325,5.227,5.5757,5.5023,5.6859,6.2548,6.3252,6.5278,6.9165,6.8904,6.9617,7.1526,7.1854,7.227,7.2771,7.4223,7.4374,7.3431,7.4946,7.4629,7.2905,7.3363,7.37,7.3881,7.3082,7.311,7.3684,7.4232,7.4787,7.538,7.5909,7.6592,7.7289,7.7289,7.7289,7.7289,7.7289,7.7289,7.7289,7.7289,7.7289,7.7289,7.7289,7.7289,7.7289,7.7289,7.7289,7.7289,7.7289,7.7289,7.7289,7.7289,7.7289,7.7289,7.7289,7.7289,7.7289,7.7289,7.7289,7.7289,7.7289,7.7289,7.7289,7.7289,7.7289,7.7289,7.7289,7.7289,7.7289,7.7289,7.7289,7.7656,7.8552,7.9617,8.0424,8.0975,8.1782,8.2186,8.2186,8.2186,8.2186,8.2186,8.2186,8.2186,8.2186,8.2186,8.2186,6.2952,6.3282,0.0,5.7435,5.571,0.0,4.9187,0.0,0.0,0.0,0.0,0.0,0.0,0.0,0.0,0.0,0.0,0.0,0.0,3.7881,0.0,3.9357,4.2506,4.5406,4.7342,4.7416,4.9077,5.3225,5.2454,5.4289,0.0,6.187,6.4503,6.8334,6.8983,7.0147,7.1975,7.2314,7.2878,7.3632,7.449,7.4712,7.4374,7.5833,7.5718,7.4355,7.5045,7.5491,7.5674,7.4588,7.4441,7.4992,7.5249,7.5491,7.5821,7.6335,7.6848,7.7289,7.7289,7.7289,7.7289,7.7289,7.7289,7.7289,7.7289,7.7289,7.7289,7.7289,7.7509,7.7766,7.7766,7.7949,7.8185,7.8185,7.8185,7.8185,7.8185,7.7949,7.7766,7.7766,7.7509,7.7289,7.7289,7.7289,7.7289,7.7289,7.7289,7.7289,7.7289,7.7289,7.7289,7.7289,7.7289,7.7289,7.7289,7.7289,7.7546,7.8112,7.8919,7.9727,8.0534,8.1342,8.1893,8.2186,8.2186,8.2186,8.2186,8.2186,8.2186,8.2186,8.2186,8.2186]}]]